[[{"header":{"parameterUnit":"m.s-1","parameterCategory":1,"la1":30.6,"la2":29.2853,"lo1":-89.7004,"lo2":-87.6739,"dy":0.0162,"dx":0.0183,"nx":112,"ny":82,"refTime":"2024-10-01T06:00:00:Z","depth":0,"parameterNumber":2,"parameterNumberName":"U-component_of_WINDS"},"data":[0.0,0.0,0.0,0.0,0.0,0.0,0.0,0.0,0.0,0.0,0.0,0.0,0.0,0.0,0.0,0.0,0.0,0.0,0.0,0.0,0.0,0.0,0.0,0.0,0.0,0.0,0.0,0.0,0.0,0.0,0.0,0.0,0.0,0.0,0.0,0.0,0.0,0.0,0.0,0.0,0.0,0.0,0.0,0.0,0.0,0.0,0.0,0.0,0.0,0.0,0.0,0.0,0.0,0.0,0.0,0.0,0.0,0.0,0.0,0.0,0.0,0.0,0.0,0.0,0.0,0.0,0.0,0.0,0.0,0.0,0.0,0.0,0.0,0.0,0.0,0.0,0.0,0.0,0.0,0.0,0.0,0.0,0.0,0.0,0.0,0.0,0.0,0.0,0.0,0.0,0.0,1.9548,2.0494,2.1109,2.1109,2.1069,2.0334,1.8664,0.0,0.0,0.0,0.0,0.0,0.0,0.0,0.0,0.0,0.0,0.0,0.0,0.0,0.0,0.0,0.0,0.0,0.0,0.0,0.0,0.0,0.0,0.0,0.0,0.0,0.0,0.0,0.0,0.0,0.0,0.0,0.0,0.0,0.0,0.0,0.0,0.0,0.0,0.0,0.0,0.0,0.0,0.0,0.0,0.0,0.0,0.0,0.0,0.0,0.0,0.0,0.0,0.0,0.0,0.0,0.0,0.0,0.0,0.0,0.0,0.0,0.0,0.0,0.0,0.0,0.0,0.0,0.0,0.0,0.0,0.0,0.0,0.0,0.0,0.0,0.0,0.0,0.0,0.0,0.0,0.0,0.0,0.0,0.0,0.0,0.0,0.0,0.0,0.0,0.0,0.0,0.0,0.0,0.0,0.0,0.0,0.0,0.0,0.0,0.0,0.0,0.0,0.0,0.0,1.9052,2.0378,2.0855,2.1109,2.1109,2.0882,2.0201,1.8916,0.0,0.0,0.0,0.0,0.0,0.0,0.0,0.0,0.0,0.0,0.0,0.0,0.0,0.0,0.0,0.0,0.0,0.0,0.0,0.0,0.0,0.0,0.0,0.0,0.0,0.0,0.0,0.0,0.0,0.0,0.0,0.0,0.0,0.0,0.0,0.0,0.0,0.0,0.0,0.0,0.0,0.0,0.0,0.0,0.0,0.0,0.0,0.0,0.0,0.0,0.0,0.0,0.0,0.0,0.0,0.0,0.0,0.0,0.0,0.0,0.0,0.0,0.0,0.0,0.0,0.0,0.0,0.0,0.0,0.0,0.0,0.0,0.0,0.0,0.0,0.0,0.0,0.0,0.0,0.0,0.0,0.0,0.0,0.0,0.0,0.0,0.0,0.0,0.0,0.0,0.0,0.0,0.0,0.0,0.0,0.0,0.0,0.0,0.0,0.0,0.0,0.0,0.0,1.8985,1.9495,2.0775,2.1029,2.1109,2.1109,2.0989,2.0281,1.8784,1.8557,0.0,0.0,0.0,0.0,0.0,0.0,0.0,0.0,0.0,0.0,0.0,0.0,0.0,0.0,0.0,0.0,0.0,0.0,0.0,0.0,0.0,0.0,0.0,0.0,0.0,0.0,0.0,0.0,0.0,0.0,0.0,0.0,0.0,0.0,0.0,0.0,0.0,0.0,0.0,0.0,0.0,0.0,0.0,0.0,0.0,0.0,0.0,0.0,0.0,0.0,0.0,0.0,0.0,0.0,0.0,0.0,0.0,0.0,0.0,0.0,0.0,0.0,0.0,0.0,0.0,0.0,0.0,0.0,0.0,0.0,0.0,0.0,0.0,0.0,0.0,0.0,0.0,0.0,0.0,0.0,0.0,0.0,0.0,0.0,0.0,0.0,0.0,0.0,0.0,0.0,0.0,0.0,0.0,0.0,0.0,0.0,0.0,0.0,0.0,0.0,0.0,0.0,1.984,2.012,2.1015,2.1109,2.1109,2.1109,2.0922,2.0134,1.8584,1.8317,0.0,0.0,0.0,0.0,0.0,0.0,0.0,0.0,0.0,0.0,0.0,0.0,0.0,0.0,0.0,0.0,0.0,0.0,0.0,0.0,0.0,0.0,0.0,0.0,0.0,0.0,0.0,0.0,0.0,0.0,0.0,0.0,0.0,0.0,0.0,0.0,0.0,0.0,0.0,0.0,0.0,0.0,0.0,0.0,0.0,0.0,0.0,0.0,0.0,0.0,0.0,0.0,0.0,0.0,0.0,0.0,0.0,0.0,0.0,0.0,0.0,0.0,0.0,0.0,0.0,0.0,0.0,0.0,0.0,0.0,0.0,0.0,0.0,0.0,0.0,0.0,0.0,0.0,0.0,0.0,0.0,0.0,0.0,0.0,0.0,0.0,0.0,0.0,0.0,0.0,0.0,0.0,0.0,0.0,0.0,0.0,0.0,0.0,0.0,0.0,0.0,0.0,2.0174,2.1015,2.1096,2.1109,2.1109,2.1109,2.0361,1.9492,1.8544,1.7729,0.0,0.0,0.0,0.0,0.0,0.0,0.0,0.0,0.0,0.0,0.0,0.0,0.0,0.0,0.0,0.0,0.0,0.0,0.0,0.0,0.0,0.0,0.0,0.0,0.0,0.0,0.0,0.0,0.0,0.0,0.0,0.0,0.0,0.0,0.0,0.0,0.0,0.0,0.0,0.0,0.0,0.0,0.0,0.0,0.0,0.0,0.0,0.0,0.0,0.0,0.0,0.0,0.0,0.0,0.0,0.0,0.0,0.0,0.0,0.0,0.0,0.0,0.0,0.0,0.0,0.0,0.0,0.0,0.0,0.0,0.0,0.0,0.0,0.0,0.0,0.0,0.0,0.0,0.0,0.0,0.0,0.0,0.0,0.0,0.0,0.0,0.0,0.0,0.0,0.0,0.0,0.0,0.0,0.0,0.0,0.0,0.0,0.0,0.0,0.0,0.0,0.0,1.984,2.0508,0.0,2.1109,2.1109,2.1109,2.0641,1.9813,1.8571,0.0,0.0,0.0,0.0,0.0,0.0,0.0,0.0,0.0,0.0,0.0,0.0,0.0,0.0,0.0,0.0,0.0,0.0,0.0,0.0,0.0,0.0,0.0,0.0,0.0,0.0,0.0,0.0,0.0,0.0,0.0,0.0,0.0,0.0,0.0,0.0,0.0,0.0,0.0,0.0,0.0,0.0,0.0,0.0,0.0,0.0,0.0,0.0,0.0,0.0,0.0,0.0,0.0,0.0,0.0,0.0,0.0,0.0,0.0,0.0,0.0,0.0,0.0,0.0,0.0,0.0,0.0,0.0,0.0,0.0,0.0,0.0,0.0,0.0,0.0,0.0,0.0,0.0,0.0,0.0,0.0,0.0,0.0,0.0,0.0,0.0,0.0,0.0,0.0,0.0,0.0,0.0,0.0,0.0,0.0,0.0,0.0,0.0,0.0,0.0,0.0,0.0,1.9107,1.98,2.0441,0.0,2.1109,2.1109,2.1109,2.0588,1.9789,1.8571,0.0,0.0,0.0,0.0,0.0,0.0,0.0,0.0,0.0,0.0,0.0,0.0,0.0,0.0,0.0,0.0,0.0,0.0,0.0,0.0,0.0,0.0,0.0,0.0,0.0,0.0,0.0,0.0,0.0,0.0,0.0,0.0,0.0,0.0,0.0,0.0,0.0,0.0,0.0,0.0,0.0,0.0,0.0,0.0,0.0,0.0,0.0,0.0,0.0,0.0,0.0,0.0,0.0,0.0,0.0,0.0,0.0,0.0,0.0,0.0,0.0,0.0,0.0,0.0,0.0,0.0,0.0,0.0,0.0,0.0,0.0,0.0,0.0,0.0,0.0,0.0,0.0,0.0,0.0,0.0,0.0,0.0,0.0,0.0,0.0,0.0,0.0,0.0,0.0,0.0,0.0,0.0,0.0,0.0,0.0,0.0,0.0,0.0,0.0,0.0,0.0,0.0,1.8876,2.0214,2.1109,2.1109,2.1109,2.1109,2.1109,2.004,1.9147,0.0,0.0,0.0,0.0,0.0,0.0,0.0,0.0,0.0,0.0,0.0,0.0,0.0,0.0,0.0,0.0,0.0,0.0,0.0,0.0,0.0,0.0,0.0,0.0,0.0,0.0,0.0,0.0,0.0,0.0,0.0,0.0,0.0,0.0,0.0,0.0,0.0,0.0,0.0,0.0,0.0,0.0,0.0,0.0,0.0,0.0,0.0,0.0,0.0,0.0,0.0,0.0,0.0,0.0,0.0,0.0,0.0,0.0,0.0,0.0,0.0,0.0,0.0,0.0,0.0,0.0,0.0,0.0,0.0,0.0,0.0,0.0,0.0,0.0,0.0,0.0,0.0,0.0,0.0,0.0,0.0,0.0,0.0,0.0,0.0,0.0,0.0,0.0,0.0,0.0,0.0,0.0,0.0,0.0,0.0,0.0,0.0,0.0,0.0,0.0,0.0,0.0,0.0,1.9757,2.0762,2.1462,2.1462,2.1229,2.1109,2.1109,2.0414,1.9546,1.8557,0.0,0.0,0.0,0.0,0.0,0.0,0.0,0.0,0.0,0.0,0.0,0.0,0.0,0.0,0.0,0.0,0.0,0.0,0.0,0.0,0.0,0.0,0.0,0.0,0.0,0.0,0.0,0.0,0.0,0.0,0.0,0.0,0.0,0.0,0.0,0.0,0.0,0.0,0.0,0.0,0.0,0.0,0.0,0.0,0.0,0.0,0.0,0.0,0.0,0.0,0.0,0.0,0.0,0.0,0.0,0.0,0.0,0.0,0.0,0.0,0.0,0.0,0.0,0.0,0.0,0.0,0.0,0.0,0.0,0.0,0.0,0.0,0.0,0.0,0.0,0.0,0.0,0.0,0.0,0.0,0.0,0.0,0.0,0.0,0.0,0.0,0.0,0.0,0.0,0.0,0.0,0.0,0.0,0.0,0.0,0.0,0.0,0.0,0.0,0.0,0.0,0.0,2.013,2.1109,2.1756,2.1756,2.1563,2.1416,2.1296,2.0855,2.004,1.8744,0.0,0.0,0.0,0.0,0.0,0.0,0.0,0.0,0.0,0.0,0.0,0.0,0.0,0.0,0.0,0.0,0.0,0.0,0.0,0.0,0.0,0.0,0.0,0.0,0.0,0.0,0.0,0.0,0.0,0.0,0.0,0.0,0.0,0.0,0.0,0.0,0.0,0.0,0.0,0.0,0.0,0.0,0.0,0.0,0.0,0.0,0.0,0.0,0.0,0.0,0.0,0.0,0.0,0.0,0.0,0.0,0.0,0.0,0.0,0.0,0.0,0.0,0.0,0.0,0.0,0.0,0.0,0.0,0.0,0.0,0.0,0.0,0.0,0.0,0.0,0.0,0.0,0.0,0.0,0.0,0.0,0.0,0.0,0.0,0.0,0.0,0.0,0.0,0.0,0.0,0.0,0.0,0.0,0.0,0.0,0.0,0.0,0.0,0.0,0.0,0.0,0.0,2.029,2.1349,2.2031,2.2091,2.2017,2.1903,2.1609,2.1283,2.0477,1.9063,0.0,0.0,0.0,0.0,0.0,0.0,0.0,0.0,0.0,0.0,0.0,0.0,0.0,0.0,0.0,0.0,0.0,0.0,0.0,0.0,0.0,0.0,0.0,0.0,0.0,0.0,0.0,0.0,0.0,0.0,0.0,0.0,0.0,0.0,0.0,0.0,0.0,0.0,0.0,0.0,0.0,0.0,0.0,0.0,0.0,0.0,0.0,0.0,0.0,0.0,0.0,0.0,0.0,0.0,0.0,0.0,0.0,0.0,0.0,0.0,1.9826,0.0,0.0,0.0,0.0,0.0,0.0,0.0,0.0,0.0,0.0,0.0,0.0,0.0,0.0,0.0,0.0,0.0,0.0,0.0,0.0,0.0,0.0,0.0,0.0,0.0,0.0,0.0,0.0,0.0,0.0,0.0,0.0,0.0,0.0,0.0,0.0,0.0,0.0,0.0,0.0,0.0,2.151,2.2031,2.2418,2.2679,2.2291,2.1903,2.1609,2.1283,2.0681,1.9679,1.9036,0.0,0.0,0.0,0.0,0.0,0.0,0.0,0.0,0.0,0.0,0.0,0.0,0.0,0.0,0.0,0.0,0.0,0.0,0.0,0.0,0.0,0.0,0.0,0.0,0.0,0.0,0.0,0.0,0.0,0.0,0.0,0.0,0.0,0.0,0.0,0.0,0.0,0.0,0.0,0.0,0.0,0.0,0.0,0.0,0.0,0.0,0.0,0.0,0.0,0.0,0.0,0.0,0.0,0.0,0.0,0.0,0.0,0.0,0.0,0.0,2.0762,0.0,0.0,0.0,0.0,0.0,0.0,0.0,0.0,0.0,0.0,0.0,0.0,0.0,0.0,0.0,0.0,0.0,0.0,0.0,0.0,0.0,0.0,0.0,0.0,0.0,0.0,0.0,0.0,0.0,0.0,0.0,0.0,0.0,0.0,0.0,0.0,0.0,0.0,0.0,0.0,2.1903,2.2365,2.2752,2.306,2.2706,2.2318,2.2024,2.1697,2.1149,2.0281,1.8885,0.0,0.0,0.0,0.0,0.0,0.0,0.0,0.0,0.0,0.0,0.0,0.0,0.0,0.0,0.0,0.0,0.0,0.0,0.0,0.0,0.0,0.0,0.0,0.0,0.0,0.0,0.0,0.0,0.0,0.0,0.0,0.0,0.0,0.0,0.0,0.0,0.0,0.0,0.0,0.0,0.0,0.0,0.0,0.0,0.0,0.0,0.0,0.0,0.0,0.0,0.0,0.0,0.0,2.2893,2.3161,2.2913,2.3714,2.3941,2.3625,2.2926,2.2458,2.2191,2.193,0.0,0.0,0.0,0.0,0.0,0.0,0.0,0.0,0.0,0.0,0.0,0.0,0.0,0.0,0.0,0.0,0.0,0.0,0.0,0.0,0.0,0.0,0.0,0.0,2.4302,2.4022,0.0,0.0,0.0,0.0,0.0,0.0,0.0,0.0,0.0,0.0,0.0,0.0,2.2064,2.2639,2.3046,2.3265,2.3046,2.2773,2.2445,2.1892,2.1267,2.0496,1.8261,1.6767,0.0,0.0,0.0,0.0,0.0,0.0,0.0,0.0,0.0,0.0,0.0,0.0,0.0,0.0,0.0,0.0,0.0,0.0,0.0,0.0,0.0,0.0,0.0,0.0,0.0,0.0,0.0,0.0,0.0,0.0,0.0,0.0,2.1764,2.2051,0.0,0.0,0.0,0.0,0.0,0.0,0.0,0.0,0.0,0.0,0.0,0.0,0.0,2.292,2.3455,2.3741,2.3888,2.3861,2.4489,2.4807,2.4743,2.5117,2.5264,2.5211,2.5104,0.0,2.3092,2.2853,0.0,0.0,0.0,0.0,0.0,0.0,0.0,0.0,0.0,0.0,0.0,0.0,0.0,0.0,0.0,0.0,0.0,0.0,0.0,0.0,0.0,0.0,2.5543,2.5331,2.5543,2.5623,0.0,2.3728,2.2398,2.1529,2.1176,0.0,0.0,0.0,0.0,0.0,0.0,0.0,2.2693,2.3046,2.3252,2.3292,2.3046,2.2773,2.2445,2.0871,1.979,1.9423,1.7303,1.6045,1.5952,1.5115,0.0,0.0,0.0,0.0,0.0,0.0,0.0,0.0,0.0,0.0,0.0,0.0,0.0,0.0,0.0,0.0,0.0,0.0,0.0,0.0,0.0,0.0,0.0,0.0,0.0,0.0,0.0,0.0,0.0,2.1716,2.2439,2.2205,2.2458,2.2298,0.0,0.0,0.0,0.0,0.0,0.0,0.0,0.0,0.0,2.3781,2.3848,2.3995,2.4249,2.4716,2.4863,2.4703,2.5329,2.5703,2.5825,2.6119,2.6333,2.6493,2.6493,2.6039,2.5173,2.4249,2.3514,2.3014,0.0,0.0,0.0,0.0,2.3207,2.3273,2.3924,2.3995,0.0,2.3834,0.0,0.0,0.0,0.0,0.0,0.0,0.0,0.0,0.0,0.0,2.6051,2.6199,2.648,2.6613,2.6106,2.5398,2.4526,0.0,2.2939,2.2539,2.1577,0.0,0.0,0.0,0.0,2.2445,2.3046,2.3394,2.3581,2.3581,2.2364,2.1433,2.1124,1.9221,1.7959,1.7863,1.5875,1.4726,1.4726,1.3352,1.2903,0.0,0.0,0.0,0.0,0.0,0.0,0.0,0.0,0.0,0.0,0.0,0.0,0.0,0.0,0.0,0.0,0.0,0.0,0.0,0.0,0.0,0.0,0.0,0.0,0.0,0.0,0.0,0.0,2.2679,2.3054,2.2532,2.3121,2.2974,0.0,0.0,0.0,0.0,0.0,0.0,2.3705,2.3781,2.4115,2.485,2.4973,2.5079,2.5159,2.5625,2.5745,2.5531,2.6091,2.6439,2.6653,2.6841,2.7054,2.7309,2.7309,2.7134,2.6841,2.5518,2.4676,2.4245,2.4165,2.3968,2.3834,2.4342,2.4396,2.4365,2.5144,2.517,2.4826,2.4877,2.4529,2.4017,2.33,0.0,0.0,0.0,0.0,2.4459,2.5304,2.5944,2.6453,2.6921,2.7268,2.7389,2.6841,2.6667,2.6172,0.0,2.4369,2.3941,2.2752,0.0,0.0,0.0,0.0,2.3006,2.3394,2.3701,2.3821,2.3674,2.1786,2.0392,2.0168,1.7771,1.6275,1.6275,1.4448,1.3343,1.3295,1.1913,1.1534,1.2355,0.0,0.0,0.0,0.0,0.0,0.0,0.0,0.0,0.0,0.0,0.0,0.0,0.0,0.0,0.0,0.0,0.0,0.0,0.0,0.0,0.0,0.0,0.0,0.0,0.0,0.0,0.0,0.0,0.0,2.375,2.469,0.0,0.0,0.0,0.0,2.3225,2.3527,2.4111,2.4943,2.4997,2.5518,2.6614,2.644,2.644,2.6707,2.6707,2.6747,2.6734,2.7054,2.7242,2.7269,2.7282,2.7296,2.7309,2.7309,2.7296,2.7215,2.6305,2.5743,2.5398,2.5117,2.4997,2.5024,2.5331,2.5438,2.5504,2.6119,2.5945,2.5598,2.6387,2.5932,2.5048,2.4994,2.4556,0.0,0.0,2.5197,2.5625,2.6507,2.6961,2.7322,2.7589,2.7924,2.8058,2.7696,2.7415,2.6827,0.0,2.481,2.4466,2.4155,0.0,2.371,2.3683,2.3915,2.4022,2.3817,2.3995,2.3968,2.3372,2.1639,2.0439,2.0285,1.6917,1.4794,1.4794,1.314,1.21,1.1912,1.1826,1.1647,1.1453,1.1132,0.0,0.0,0.0,0.0,0.0,0.0,0.0,0.0,0.0,0.0,0.0,0.0,0.0,0.0,0.0,0.0,0.0,0.0,0.0,0.0,0.0,0.0,0.0,0.0,0.0,0.0,0.0,0.0,2.466,2.5355,0.0,2.3861,2.4262,2.4606,2.4462,2.4941,2.5516,2.6159,2.6199,2.648,2.7094,2.7041,2.7041,2.7108,2.7108,2.7108,2.7108,2.7255,2.7403,2.7549,2.7549,2.7684,2.7871,2.7871,2.7871,2.7831,2.7322,2.6787,2.636,2.6453,2.6373,2.6239,2.6533,2.664,2.6667,2.6881,2.6694,2.6346,2.6279,2.6024,2.565,2.5411,2.5211,2.513,2.5569,2.5757,2.5959,2.664,2.7041,2.7376,2.7629,2.7965,2.8098,2.7762,2.7468,2.7148,2.6626,2.5984,2.5331,2.485,2.469,2.4459,2.3884,2.4182,2.4382,2.4088,2.3181,2.2374,2.1981,1.9067,1.7058,1.686,1.4379,1.2846,1.2846,1.2154,1.1789,1.1793,1.1793,1.1746,1.1674,1.1442,1.1124,0.0,0.0,0.0,0.0,0.0,0.0,0.0,0.0,0.0,0.0,0.0,0.0,0.0,0.0,0.0,0.0,0.0,0.0,0.0,0.0,0.0,0.0,0.0,0.0,0.0,2.469,2.5382,2.5237,2.6038,2.6039,2.477,2.5358,2.581,2.5678,2.6158,2.6653,2.7094,2.7121,2.7255,2.759,2.751,2.7415,2.7415,2.7415,2.7415,2.7456,2.755,2.771,2.7884,2.7884,2.8005,2.8179,2.8179,2.8179,2.8165,2.7965,2.7615,2.7281,2.7375,2.7295,2.7134,2.7335,2.7415,2.7443,2.7336,2.7201,2.7014,2.644,2.6359,2.6359,2.5932,2.5879,2.5972,2.6118,2.6212,2.636,2.6841,2.7188,2.7523,2.7817,2.8045,2.8125,2.7938,2.7657,2.7415,2.7415,2.6787,2.6119,2.5732,2.5665,2.5398,2.466,2.4836,2.4668,2.3595,2.2459,2.1328,2.028,1.7234,1.521,1.498,1.3089,1.1932,1.1986,1.185,1.1809,1.1904,1.1911,1.1884,1.1793,1.1705,1.1536,1.1286,0.0,0.0,0.0,0.0,0.0,0.0,0.0,0.0,0.0,0.0,0.0,0.0,0.0,0.0,0.0,0.0,0.0,0.0,0.0,0.0,0.0,0.0,0.0,2.4626,2.5438,2.5931,2.5611,2.6841,2.7148,2.5718,2.6653,2.7215,2.6827,2.7121,2.7456,2.7696,2.7709,2.7843,2.8179,2.7856,2.7709,2.7709,2.7709,2.7709,2.7722,2.8045,2.8179,2.8179,2.8179,2.8179,2.8179,2.8179,2.8192,2.8205,2.8192,2.8192,2.8165,2.7871,2.7709,2.7709,2.7709,2.7709,2.7669,2.7416,2.7468,2.7602,2.7028,2.7028,2.7202,2.6587,2.6613,2.6774,2.6493,2.6627,2.6907,2.7242,2.7495,2.7776,2.8112,2.8179,2.8179,2.8179,2.7951,2.7696,2.7709,2.7241,2.6854,2.6841,2.6827,2.6627,2.6091,2.5959,0.0,2.2326,2.1875,2.0845,1.8309,1.6366,1.5173,1.5069,1.3237,1.2173,1.2284,1.2186,1.2104,1.2111,1.2118,1.2013,1.1834,1.1827,1.1938,1.2111,0.0,0.0,0.0,0.0,0.0,0.0,0.0,0.0,0.0,0.0,0.0,0.0,0.0,0.0,0.0,0.0,0.0,0.0,0.0,0.0,0.0,2.4583,2.5239,2.5239,2.6213,2.6988,2.7081,2.7684,2.7817,2.7161,2.763,2.7817,2.7482,2.7777,2.7978,2.8058,2.8058,2.8098,2.8179,2.8112,2.8058,2.8058,2.8058,2.8058,2.8058,2.8138,2.8179,2.8179,2.8179,2.8179,2.8179,2.8179,2.8312,2.8457,2.8272,2.8312,2.8444,2.8179,2.8058,2.8058,2.8058,2.8058,2.8018,2.7682,2.7629,2.7642,2.7268,2.7242,2.7282,2.7108,2.7122,2.7162,2.7081,2.7122,2.7215,2.7509,2.7642,2.7776,2.8112,2.8179,2.8179,2.8179,2.7951,2.7762,2.8018,2.7709,2.7388,2.7175,2.6961,2.6694,2.6319,2.476,0.0,2.2357,1.9528,1.7373,1.6649,1.4829,1.3626,1.3587,1.2838,1.2352,1.2291,1.2186,1.2193,1.2372,1.2488,1.2576,1.269,1.269,1.2562,0.0,0.0,0.0,0.0,0.0,0.0,0.0,0.0,0.0,0.0,0.0,0.0,0.0,0.0,0.0,0.0,0.0,0.0,0.0,0.0,0.0,0.0,2.5678,2.6293,2.6413,2.7014,2.7603,2.7856,2.8085,2.8112,2.7938,2.8085,2.8165,2.8083,2.8165,2.8299,2.8511,2.8446,2.8433,2.8511,2.8524,2.8524,2.8524,2.8524,2.8524,2.8524,2.8524,2.8524,2.8524,2.8524,2.8524,2.8524,2.8524,2.8617,2.8778,2.8591,2.8631,0.0,0.0,0.0,0.0,0.0,2.8179,2.8165,2.7991,2.7924,2.7884,2.7535,2.7576,2.763,2.7376,2.7389,2.7415,2.7336,2.7389,2.7482,2.7655,2.7789,2.7965,2.8138,2.8179,2.8179,2.8179,2.8045,2.7978,2.8152,2.8045,0.0,2.771,2.6581,2.563,2.5365,2.3259,2.1249,2.007,1.7833,1.5982,1.496,1.382,1.3186,1.3186,1.2922,0.0,0.0,0.0,1.2554,1.2684,1.2779,0.0,0.0,0.0,0.0,0.0,0.0,0.0,0.0,1.3329,1.3214,0.0,0.0,0.0,0.0,0.0,0.0,0.0,0.0,0.0,0.0,0.0,0.0,0.0,0.0,0.0,0.0,2.68,2.7469,2.7749,2.7802,2.7896,2.8205,2.8232,2.8245,2.8286,2.8286,2.8406,2.8631,2.8404,2.8513,2.8961,2.8748,0.0,0.0,0.0,2.9001,2.9001,2.9001,2.9001,2.9001,2.9001,2.9001,2.9001,2.9001,2.9001,2.9001,2.9001,2.9015,2.9041,2.9015,2.9001,2.8935,2.846,2.8232,2.8232,2.8205,2.8179,2.8179,2.8179,0.0,0.0,2.7829,2.7965,2.8085,2.7563,2.759,2.7696,2.7483,2.759,2.7749,2.7749,2.7991,2.8192,2.8232,2.8232,2.8232,2.8232,2.8232,2.8232,2.8192,2.8179,2.8179,2.8179,2.5969,2.4137,2.3873,2.163,1.9131,1.6955,1.6568,1.5729,1.3521,0.0,0.0,1.3451,1.3308,1.3275,1.3397,1.3173,1.3084,1.3098,1.3152,1.3322,1.368,1.372,1.4041,1.4563,1.4708,1.4909,1.5018,1.3955,1.3731,0.0,0.0,0.0,0.0,0.0,0.0,0.0,0.0,0.0,0.0,0.0,0.0,0.0,0.0,0.0,2.6547,2.7201,2.7802,2.835,2.843,2.8457,2.8511,2.8524,2.8604,2.8801,2.8871,2.8855,2.8908,2.8855,2.8868,2.8988,2.8948,2.8935,2.9001,2.9001,2.9001,2.9001,2.9001,2.9001,2.9001,0.0,0.0,2.9001,2.9001,2.9001,2.9001,2.9001,2.9135,2.9379,2.9095,2.9001,2.8961,2.8657,2.8524,2.8484,2.8272,2.8179,2.8179,2.8179,2.8179,2.8179,2.8112,2.8138,2.8165,2.8045,2.8058,0.0,2.8031,2.8058,2.8098,2.8098,2.8138,2.8245,2.8457,2.8524,2.8524,2.8524,2.8524,2.8444,2.8232,2.8179,2.8179,2.8179,2.5969,2.4196,2.4149,2.0475,1.7569,1.7079,1.5462,1.4238,1.3758,1.3693,1.3714,1.3714,1.3585,1.3498,1.3403,1.3464,1.3511,1.3626,1.4021,1.4251,1.434,1.4584,1.4767,1.4882,1.5276,1.5431,1.5451,1.5018,1.4901,0.0,0.0,0.0,0.0,0.0,0.0,0.0,0.0,0.0,0.0,0.0,2.5213,2.5838,0.0,2.7068,2.7774,2.831,2.8698,2.9005,2.9179,2.9152,2.8858,2.8775,2.8938,2.9232,2.9259,2.9379,2.9673,2.9566,2.9562,2.99,2.978,2.9766,2.9913,2.9913,2.9847,2.97,2.97,2.9633,2.9428,2.9428,2.9428,2.9428,2.9428,2.9428,2.9428,2.9428,2.9566,2.9686,2.9539,2.9428,2.9402,2.9165,2.8871,2.8591,2.843,2.8312,2.8179,2.8179,2.8179,2.8179,2.8179,2.8179,2.8179,2.8179,2.8179,2.8219,2.8379,2.8419,2.8446,2.8551,2.8591,2.8631,2.8791,2.8775,2.8775,2.8775,2.8711,2.8564,2.8446,2.8286,2.8179,2.8179,2.6124,2.4067,2.2865,1.8707,1.5673,1.5633,1.4707,1.4041,1.3966,1.4027,1.4068,1.4068,1.4068,1.4041,1.396,1.4102,1.4173,1.4241,1.4577,1.4774,1.4848,1.5147,1.5343,1.5459,1.5791,1.5974,1.5974,1.5893,1.573,0.0,0.0,0.0,0.0,0.0,0.0,0.0,2.4756,2.4983,2.5638,2.6039,2.6533,2.7375,2.7856,2.835,2.8975,2.9419,2.9673,2.9726,2.998,3.002,2.9548,2.9402,2.9499,2.9793,2.9873,3.0145,3.0627,3.0394,3.0461,3.0942,3.0734,3.0635,3.0862,3.0822,3.0675,3.0493,3.044,3.0234,3.0007,3.0007,2.9967,2.9913,2.998,2.9967,2.9913,2.9913,2.9913,2.9913,2.9913,2.9913,2.99,2.9659,2.9245,2.8778,2.8711,2.8537,2.8366,2.8366,2.8366,2.8366,2.8366,2.8366,2.8353,2.8286,2.8312,2.8406,2.8551,2.8644,2.8751,2.8935,2.9001,2.9028,2.9135,2.9161,2.9161,2.9161,2.9032,2.8831,2.8711,2.8484,2.8339,2.8286,2.6416,2.4195,2.2191,1.7972,1.4985,1.4821,1.4581,1.4319,1.418,1.4251,1.434,1.434,1.4475,1.4557,1.4557,1.4626,1.4694,1.4694,1.4916,1.5079,1.5221,1.5554,1.5798,1.599,1.6246,1.6395,1.6395,1.651,1.6341,2.4035,2.4252,2.4666,2.5197,2.5144,2.5518,0.0,2.7468,2.7215,2.803,2.8657,2.8925,2.8524,2.9125,2.9619,2.9459,2.9945,3.04,3.0608,3.0902,3.1156,3.1356,3.0915,3.0715,3.0996,3.1276,3.1497,3.1564,3.1537,3.155,3.1617,3.1289,3.1142,3.1122,3.0929,3.0782,3.0742,3.0533,3.0386,3.036,3.036,3.0167,2.9927,3.0194,3.0167,2.9913,2.9913,2.9913,2.9913,2.9913,2.9913,2.9913,2.9887,2.9673,2.9352,2.9085,2.8921,2.8895,2.8895,2.8895,2.8895,2.8895,2.8895,2.8855,2.8631,2.8738,2.8855,2.8671,2.8791,2.8961,2.8988,2.9001,2.9121,2.9655,2.982,2.982,2.982,2.9793,2.9619,2.9041,2.8921,2.8815,2.8604,2.6853,2.5219,2.4407,2.0477,1.7552,1.7405,1.5794,1.4539,1.4306,1.4401,1.4489,1.4489,1.4579,1.4667,1.4667,1.4687,1.4694,1.4694,1.5011,1.5228,1.5384,1.5811,1.611,1.6259,1.6506,1.6648,1.6648,1.6662,1.6506,2.5999,2.6199,2.6306,2.6934,2.7215,2.7642,2.8588,2.8698,2.8711,2.9259,2.97,2.9958,2.9673,3.0207,3.0635,3.0515,3.0996,3.141,3.1543,3.181,3.1971,3.1931,3.1864,3.1797,3.1744,3.1851,3.1998,3.2219,3.2233,3.2233,3.2233,3.2112,3.1917,3.1744,3.1623,3.1396,3.1049,3.0929,3.0782,3.0608,3.0608,3.0541,3.0434,3.0555,3.0448,3.0167,2.9993,2.9913,2.9913,2.9913,2.9913,2.9913,2.9913,2.9847,2.97,2.9406,2.9192,2.9001,2.9001,2.9001,2.9001,2.9001,2.9001,2.8975,2.8855,2.8895,2.9041,2.9312,2.9459,2.9588,2.9967,3.006,3.0127,3.0368,3.0421,3.0381,3.0207,3.0181,2.9993,2.9406,2.9299,2.9205,2.8911,2.8156,2.7477,2.7248,2.3326,1.9854,1.836,1.7375,1.622,1.4575,1.4557,1.4566,1.4516,1.4733,1.4875,1.4875,1.5038,1.5133,1.5133,1.5418,1.5649,1.5669,1.611,1.6368,1.6435,1.6734,1.6883,1.6883,1.6883,1.6768,2.7094,2.7415,2.767,2.8192,2.8845,2.9419,2.9455,2.982,3.0127,3.0247,3.0515,3.0721,3.056,3.1022,3.1436,3.1356,3.1904,3.2345,3.2345,3.2581,3.2634,3.2372,3.2514,3.2514,3.2251,3.2291,3.2465,3.2808,3.2835,3.2835,3.2835,3.2755,3.2607,3.2345,3.2265,3.1984,3.1476,3.1383,3.1196,3.0915,3.0915,3.0862,3.0795,3.0795,3.0675,3.0507,3.0167,3.0034,3.0034,2.9953,2.9913,2.9913,2.9913,2.9913,2.99,2.9766,2.9539,2.9242,2.9335,2.9352,2.9268,2.9428,2.9472,2.9406,2.9406,2.9459,2.9548,2.994,3.01,3.0261,3.0688,3.0795,3.0808,3.0889,3.0915,3.0849,3.0648,3.0595,3.0448,2.994,2.9847,2.9726,2.9308,2.9375,2.9428,2.9268,2.6552,2.3242,1.9824,1.8186,1.668,1.4826,1.474,1.476,1.4645,1.4882,1.5091,1.5086,1.5296,1.5432,1.5472,1.5716,1.5922,1.5962,1.6313,1.6544,1.6585,1.6849,1.6978,1.6978,1.6978,1.6917,2.6573,2.7296,2.8232,2.8511,2.9459,3.044,3.0675,3.1183,3.1517,3.1249,3.1423,3.1497,3.0889,3.149,3.1984,3.1751,3.2433,3.2946,3.2946,3.2959,3.2959,3.2946,3.2755,3.2594,3.2581,3.2835,3.3066,3.336,3.3387,3.3387,3.3387,3.312,3.2959,3.2946,3.2728,3.2433,3.2078,3.1797,3.1503,3.1209,3.1209,3.1062,3.0795,3.0795,3.0795,3.0768,3.052,3.0386,3.0373,3.0034,2.9913,2.9913,2.9913,2.9913,2.9953,3.0279,3.014,2.9927,3.0221,3.0127,2.998,3.0555,3.0555,3.036,3.036,3.0515,3.0688,3.0467,3.0555,3.0768,3.0795,3.0795,3.0862,3.1142,3.1209,3.1209,3.1196,3.1196,3.1116,3.0808,3.0755,3.0568,2.9993,3.0368,3.0541,2.998,3.0231,2.8407,2.2536,1.7698,1.484,1.4989,1.501,1.501,1.5003,1.5092,1.5242,1.5391,1.5404,1.5479,1.558,1.5778,1.5976,1.6069,1.6368,1.654,1.6689,1.6904,1.6978,1.6978,1.6978,1.6978,2.7696,2.843,2.9289,3.0127,3.0795,3.1403,3.1898,3.2152,3.2152,3.1623,3.1436,3.1196,3.0654,3.1062,3.1557,3.1698,3.2412,3.3053,3.324,3.344,3.336,3.2808,3.2822,3.2728,3.2291,3.2567,3.2862,3.3106,3.312,3.3213,3.34,3.332,3.3173,3.2986,3.2929,3.2741,3.2447,3.2353,3.2152,3.181,3.161,3.1463,3.1417,3.1169,3.1076,3.1062,3.0768,3.0648,3.0635,3.0541,3.0501,3.0501,3.0501,3.0501,3.0515,3.0608,3.0581,3.0515,3.0608,3.0581,3.0528,3.0728,3.0728,3.0648,3.0648,3.0715,3.0808,3.0902,3.1009,3.1129,3.1316,3.1417,3.1396,3.149,3.1517,3.1463,3.1276,3.1383,3.137,3.0889,3.0942,3.0955,3.0568,3.0662,3.0728,3.0528,2.9287,2.7558,2.5377,2.2234,2.0188,2.017,2.0069,2.0023,2.0161,1.8722,1.7828,1.7844,1.6496,1.573,1.5778,1.6022,1.6178,1.6232,1.6524,1.6648,1.6696,1.6904,1.6978,1.6978,1.6978,1.6978,2.8591,2.9272,2.9913,3.1089,3.169,3.2152,3.2634,3.2674,3.2433,3.1831,3.1356,3.0889,3.0314,3.0675,3.1209,3.1644,3.2412,3.312,3.3521,3.3654,3.3507,3.2969,3.2888,3.2728,3.2291,3.2487,3.2714,3.2959,3.308,3.3213,3.34,3.3414,3.332,3.3146,3.3133,3.2986,3.2755,3.2648,3.2447,3.2104,3.1917,3.1925,3.2019,3.1677,3.1543,3.1517,3.1116,3.0942,3.0942,3.0835,3.0795,3.0795,3.0795,3.0795,3.0808,3.0902,3.0942,3.0942,3.0942,3.0875,3.0822,3.1036,3.1036,3.0969,3.1076,3.1102,3.1142,3.133,3.1383,3.145,3.1744,3.1824,3.1851,3.2005,3.1952,3.177,3.1583,3.161,3.1604,3.1183,3.1263,3.1289,3.0996,3.0942,3.0982,3.1089,2.9755,2.8258,2.686,2.4638,2.3029,2.2724,2.2672,2.2354,2.1567,2.0853,2.0144,1.9392,1.8052,1.7328,1.738,1.6671,1.6334,1.6381,1.6574,1.6723,1.6836,1.6985,1.7032,1.6985,1.7032,1.7026,2.9219,2.9766,3.0287,3.145,3.2206,3.2688,3.2942,3.2781,3.2393,3.1751,3.1129,3.0541,2.994,3.0341,3.0955,3.1577,3.2433,3.3187,3.3801,3.3641,3.3454,3.344,3.2995,3.2648,3.2621,3.2621,3.2728,3.2959,3.324,3.34,3.3414,3.3414,3.3414,3.3414,3.3414,3.328,3.3,3.2755,3.2474,3.2131,3.2104,3.2238,3.2541,3.2211,3.2078,3.2051,3.149,3.1249,3.1223,3.0955,3.0835,3.0835,3.0835,3.0835,3.0875,3.1142,3.1249,3.1249,3.1249,3.1062,3.0929,3.155,3.149,3.1303,3.1583,3.1711,3.1711,3.1711,3.1724,3.1805,3.2024,3.2118,3.2185,3.2514,3.2305,3.2104,3.2104,3.1877,3.1724,3.1738,3.1724,3.1583,3.1289,3.1249,3.1343,3.1623,3.1711,3.0543,2.7359,2.507,2.3567,2.3005,2.3185,2.2376,1.9912,2.1845,2.2358,2.0329,2.0064,2.0102,2.0241,1.7971,1.6786,1.6932,1.7092,1.7245,1.7398,1.7544,1.7544,1.7465,1.7544,1.7537,3.014,3.0835,3.145,3.2412,3.2759,3.2875,3.2741,3.2474,3.1864,3.0621,3.0074,2.9566,2.8794,2.9664,3.0641,3.0955,3.2118,3.3187,3.3801,3.4002,3.4002,3.3788,3.3641,3.3374,3.2969,3.2915,3.2955,3.2973,3.3053,3.3187,3.34,3.3414,3.3414,3.3414,3.3414,3.3374,3.3307,3.3013,3.2768,3.2474,3.2211,3.2024,3.1938,3.1858,3.1784,3.177,3.1623,3.1557,3.1557,3.1524,3.145,3.145,3.145,3.145,3.1497,3.153,3.1557,3.1557,3.1557,3.1503,3.155,3.1877,3.1797,3.157,3.165,3.1711,3.1711,3.1711,3.1824,3.2011,3.2078,3.2313,3.2447,3.2251,3.2158,3.2104,3.2104,3.1877,3.1778,3.1944,3.1824,3.1684,3.157,3.1557,3.1583,3.1711,3.1711,3.1314,3.0197,2.9398,2.8842,2.8703,2.8565,2.8336,2.7874,2.6841,2.609,2.5768,2.3944,2.3092,2.3551,2.2831,2.2562,2.2817,2.297,2.3058,2.3104,2.336,2.3434,2.3388,2.3434,2.3434,3.0862,3.1517,3.2038,3.2786,3.2929,3.2688,3.2091,3.1436,3.0568,2.9219,2.8818,2.847,2.7709,2.8928,3.0159,3.0587,3.1885,3.3143,3.3961,3.4215,3.4309,3.4269,3.4162,3.3895,3.3427,3.3374,3.332,3.3187,3.3173,3.324,3.34,3.3414,3.3414,3.3414,3.3414,3.3347,3.3227,3.3066,3.2942,3.2781,3.2572,3.2465,3.2425,3.2219,3.2099,3.2086,0.0,3.1791,3.1851,3.1764,3.1791,3.1851,3.1764,3.1711,3.1711,3.1711,3.1711,3.1738,3.181,3.1784,3.1738,3.1864,3.1797,3.1711,3.1711,3.1711,3.1711,3.1711,3.1784,3.1944,3.2064,3.2225,3.242,3.2465,3.2291,3.2171,3.2425,3.2064,3.1764,3.1877,3.1784,3.1711,3.1711,3.1711,3.1711,3.1711,3.1711,3.161,3.1436,3.1169,3.0889,3.0635,3.0614,3.0182,2.9158,2.9049,2.8662,2.7864,2.6509,2.5956,2.6277,2.5288,2.48,2.5023,2.5154,2.5215,2.5215,2.5427,2.5488,2.5448,2.5488,2.5488,3.1517,3.2024,3.2345,3.2853,3.2781,3.23,3.1316,3.0207,2.9045,2.7883,2.7615,2.7442,2.6974,2.827,2.9646,3.036,3.1631,3.2969,3.4148,3.4322,3.4442,3.4829,3.4563,3.4282,3.4028,3.3961,3.3828,3.3547,3.3534,3.3494,3.3414,3.3414,3.3414,3.3414,3.3414,3.3293,3.304,3.304,3.3013,3.2973,3.2973,3.3093,3.328,3.2822,3.2594,3.2567,3.2059,3.1931,3.2144,3.1938,3.1979,3.2131,3.1837,3.1791,3.1831,3.1791,3.1805,3.1872,3.2078,3.1998,3.1831,3.1791,3.173,3.1764,3.1724,3.1738,3.1764,3.1724,3.1751,3.1831,3.2038,3.2131,3.2278,3.2746,3.2478,3.2251,3.2799,3.2407,3.1885,3.1845,3.1805,3.1791,3.1831,3.1805,3.1791,3.1831,3.1805,3.173,3.173,3.1436,3.1036,3.0574,3.0702,2.9943,2.7647,2.9815,3.0466,2.8548,2.8595,2.8751,2.8908,2.7042,2.6105,2.6137,2.6236,2.6291,2.6291,2.6492,2.6513,2.6386,2.6524,2.6513,3.2438,3.2786,3.2853,3.2946,3.2572,3.1891,3.0814,2.9606,2.8484,2.7576,2.7148,2.7014,2.7161,2.8243,2.9472,3.0541,3.1543,3.2679,3.4122,3.4322,3.4523,3.5057,3.4857,3.4721,3.4668,3.4389,3.4229,3.4162,3.4162,3.3948,3.344,3.3414,3.3414,3.3414,3.3414,3.3387,3.3334,3.3334,3.3213,3.2973,3.2973,3.2929,3.2741,3.2648,3.2594,3.2581,3.2487,0.0,3.2514,3.246,3.2474,3.2487,3.2144,3.2171,3.2407,3.2118,3.2233,3.2447,3.25,3.2487,3.2407,3.2104,3.2024,3.1984,3.1791,3.1837,3.1971,3.1744,3.1837,3.2038,3.2091,3.2326,3.2474,3.2291,3.2171,3.2198,3.2594,3.2741,3.2728,3.2487,3.2198,3.2104,3.2407,3.2185,3.2104,3.2407,3.2233,3.2024,3.2024,3.1557,3.1136,3.1089,3.1116,3.0956,3.0475,3.1174,3.1667,3.1763,3.157,3.1731,3.2487,3.1935,3.1712,3.1943,3.1944,3.1969,3.1969,3.2507,3.2737,3.275,3.2737,3.2737,3.2746,3.2973,3.2973,3.2973,3.2305,3.1263,2.978,2.8644,2.7575,2.6412,2.6493,2.6814,2.6814,2.803,2.9188,2.9793,3.0621,3.1717,3.3187,3.3521,3.3961,3.4857,3.4977,3.499,3.499,3.4723,3.4549,3.4549,3.4402,3.4189,3.3895,3.3734,3.3654,3.3654,3.3494,3.3414,3.3414,3.3414,3.3347,3.32,3.32,3.3133,3.2986,3.2888,3.2822,3.2808,3.2661,3.2688,3.2808,3.2661,3.2688,3.2795,3.25,3.2474,3.2581,3.2433,3.2474,3.2594,3.2594,3.2594,3.2567,3.2433,3.2225,3.2078,3.1931,3.1891,3.1877,3.1891,3.1998,3.2144,3.2291,3.2487,3.2594,3.2559,3.2679,3.2746,3.2634,3.2822,3.2942,3.2648,3.2474,3.2433,3.2567,3.2474,3.2433,3.2567,3.2474,3.238,3.238,3.2091,3.173,3.1276,3.1503,3.1623,3.1463,3.1912,3.23,3.2581,3.2607,3.2746,3.3173,3.32,3.3267,3.3414,3.3574,3.3654,3.3654,3.4108,3.4322,3.4322,3.4162,3.4095,3.3702,3.3498,3.3188,3.3631,3.2415,3.078,2.9499,2.8509,2.7468,2.6167,2.6687,2.7199,2.668,2.7776,2.8815,2.9135,2.986,3.0935,3.2474,3.2995,3.3574,3.4695,3.5017,3.5217,3.5284,3.5084,3.4977,3.5096,3.4776,3.4496,3.4242,3.4015,3.3855,3.3788,3.3547,3.3414,3.3414,3.3414,3.3414,3.3414,3.3414,3.3414,3.34,3.3173,3.3066,3.3053,3.2875,3.2915,3.3053,3.2875,3.2915,3.304,3.2795,3.2728,3.2768,3.2714,3.2728,3.2781,3.2781,3.2781,3.2781,3.2781,3.2532,3.2265,3.2144,3.1984,3.1938,3.2051,3.2104,3.2171,3.2514,3.2594,3.2648,3.2875,3.3106,3.32,3.2781,3.2915,3.3,3.2822,3.2728,3.2701,3.2768,3.2728,3.2714,3.2768,3.2728,3.2688,3.2688,3.2688,3.2393,3.1583,3.1917,3.2104,3.1925,3.2326,3.2621,3.2688,3.2902,3.3013,3.3066,3.3293,3.344,3.3507,3.3761,3.3921,3.3975,3.4269,3.4416,3.4402,3.4175,3.4042,3.6593,3.5161,3.3823,3.5652,3.3445,3.0876,3.1109,3.0384,2.9424,2.8609,2.8824,2.8772,2.7446,2.7535,2.827,2.9619,3.0127,3.1015,3.2741,3.344,3.4042,3.4735,3.5017,3.5297,3.5565,3.5565,3.5658,3.5979,3.5672,3.5044,3.3988,3.3895,3.3761,3.3467,3.3427,3.3414,3.3414,3.3414,3.3414,3.3414,3.3414,3.3414,3.3414,3.3387,3.3374,3.3374,3.3347,3.3347,0.0,3.3347,3.3347,3.3347,3.3053,3.3106,3.3293,3.304,3.3106,3.3334,3.3334,3.3334,3.3334,3.3334,3.3133,3.2799,3.2265,3.2326,3.246,3.2171,3.2104,3.2171,3.2514,3.2594,3.2607,3.2621,3.2848,3.3,3.2946,3.316,3.336,3.3334,3.312,3.3026,3.328,3.3106,3.3026,3.3293,3.3106,3.2933,3.2933,3.2933,3.2848,3.2514,3.2527,3.2541,3.2514,3.2567,3.2701,3.2969,3.3009,3.3093,3.336,3.34,3.3547,3.3841,3.3868,3.4015,3.4282,3.4576,3.4775,3.4775,3.4748,3.4536,3.891,3.7508,3.6157,3.7773,3.5452,3.2815,3.3307,3.2729,3.1504,2.9365,2.9461,2.9804,2.9307,2.8538,2.8613,3.0496,2.9833,2.9503,3.0702,3.1383,3.2286,3.3534,3.4108,3.4736,3.5498,3.5578,3.5672,3.5792,3.5378,3.483,3.4189,3.4148,3.4015,3.3708,3.3507,3.3414,3.3414,3.3414,3.3414,3.3414,3.3414,3.3414,3.3414,3.3414,3.3414,3.3414,3.3414,3.3414,0.0,3.3414,3.3414,3.34,3.328,3.3307,3.34,3.328,3.332,3.3414,3.3414,3.3414,3.3414,3.3414,3.3334,3.316,3.2759,3.2634,3.2607,3.2612,3.2625,3.2692,3.2986,3.3066,3.3066,3.3066,3.316,3.324,3.324,3.3334,3.3414,3.3414,3.332,3.328,3.3387,3.332,3.328,3.3387,3.332,3.324,3.324,3.324,3.32,3.308,3.3066,3.3,3.2875,3.2973,3.312,3.3227,3.324,3.3293,3.3414,3.3587,3.3761,3.3881,3.4229,3.4469,3.4589,3.4883,3.5017,3.5017,3.4895,3.4748,4.0764,3.9608,3.8446,3.9974,3.7643,3.5064,3.5458,3.5106,3.3976,3.1452,3.169,3.2037,3.0836,2.9818,2.9439,3.0431,2.9382,2.8767,2.9664,3.0373,3.1323,3.2728,3.3387,3.4175,3.5271,3.5605,3.5725,3.5631,3.5177,3.4723,3.4336,3.4242,3.4055,3.3761,3.3534,3.3414,3.3414,3.3414,3.3414,3.3414,3.3414,3.3414,3.3414,3.3414,3.3414,3.3414,3.3414,3.3414,0.0,3.3414,3.3414,3.3414,3.3414,3.3414,3.3414,3.3414,3.3414,3.3414,3.3414,3.3414,3.3414,3.3414,3.3414,3.3374,3.3173,3.2955,3.2768,3.2969,3.304,3.316,3.336,3.3414,3.3414,3.3414,3.3414,3.3414,3.3414,3.3414,3.3414,3.3414,3.3414,3.3414,3.3414,3.3414,3.3414,3.3414,3.3414,3.3414,3.3414,3.3414,3.3414,3.3414,3.3414,3.3334,3.312,3.3374,3.3547,3.3547,3.3627,3.3681,3.3681,3.3895,3.4055,3.4148,3.4643,3.4949,3.4949,3.5177,3.5324,3.5324,3.503,3.4895,4.2004,4.1149,4.0321,4.21,3.9873,3.7301,3.746,3.7353,3.6919,3.5674,3.6376,3.5948,3.1751,3.1224,3.0778,2.8922,2.8845,2.9339,3.0279,3.1149,3.1925,3.2527,3.3066,3.3774,3.4735,3.5618,3.5952,3.5591,3.5364,3.4937,3.4349,3.4055,3.3748,3.3427,3.3414,3.3414,3.3414,3.3414,3.3414,3.3414,3.3414,3.3414,3.3414,3.3414,3.3414,3.3414,3.3414,3.3414,0.0,3.3414,3.3414,3.3414,3.3414,3.3414,3.3414,3.3414,3.3414,3.3414,3.3414,3.3414,3.3414,3.3414,3.3414,3.3414,3.3414,3.32,3.2973,3.2973,3.3187,3.3414,3.3414,3.3414,3.3414,3.3414,3.3414,3.3414,3.3414,3.3414,3.3414,3.3414,3.3414,3.3414,3.3414,3.3414,3.3414,3.3414,3.3414,3.3414,3.3414,3.3414,3.3414,3.3414,3.3414,3.3414,3.3414,3.3694,3.3881,3.3881,3.4148,3.4309,3.4309,3.4309,3.4456,3.4802,3.5044,3.5191,3.5191,3.5485,3.5631,3.5565,3.5324,3.5044,4.2607,4.1628,4.0666,4.2115,4.031,3.8441,3.9338,3.9527,3.8877,3.6833,3.6868,3.6477,3.3707,3.3435,3.3759,3.4012,3.2634,3.1888,3.2847,3.2057,3.1664,3.25,3.3774,3.4817,3.5311,3.5431,3.5431,3.5338,3.5057,3.4643,3.4055,3.3935,3.3748,3.3427,3.3414,3.3414,3.3414,3.3414,3.3414,3.3414,3.3414,3.3414,3.3414,3.3414,3.3414,3.3414,3.3414,3.3414,3.3414,3.3414,3.3414,3.3414,3.3414,3.3414,3.3414,3.3414,3.3414,3.3414,3.3414,3.3414,3.3414,3.3414,3.3414,3.3414,3.3414,3.3347,3.328,3.328,3.3334,3.3414,3.3414,3.3414,3.3414,3.3414,3.3414,3.3414,3.3414,3.3414,3.3414,3.3414,3.3414,3.3414,3.3414,3.3414,3.3414,3.3414,3.3414,3.3414,3.3414,3.3414,3.3414,3.3414,3.3414,3.3414,3.3414,3.3708,3.3881,3.3881,3.4162,3.4322,3.4322,3.471,3.4963,3.5057,3.5538,3.5792,3.5792,3.5885,3.5832,3.5565,3.5324,3.5151,4.1836,4.1675,4.136,4.202,4.0988,3.9906,4.0376,4.0644,4.0279,3.8534,3.8507,3.8103,3.5998,3.5749,3.5899,3.5892,3.4656,3.3714,3.3795,3.2964,3.2424,3.2718,3.3988,3.4937,3.511,3.5177,3.5191,3.5191,3.4923,3.4549,3.4082,3.3948,3.3748,3.3427,3.3414,3.3414,3.3414,3.3414,3.3414,3.3414,3.3414,3.3414,3.3414,3.3414,3.3414,3.3414,3.3414,3.3414,0.0,3.3414,3.3414,3.3414,3.3414,3.3414,3.3414,3.3414,3.3414,3.3414,3.3414,3.3414,3.3414,3.3414,3.3414,3.3414,3.3414,3.3414,3.3414,3.3414,3.3414,3.3414,3.3414,3.3414,3.3414,3.3414,3.3414,3.3414,3.3414,3.3414,3.3414,3.3414,3.3414,3.3414,3.3414,3.3414,3.3414,3.3414,3.3414,3.3414,3.3414,3.3414,3.3414,3.3414,3.3414,3.3454,3.3574,3.3868,3.4055,3.4055,3.4429,3.4696,3.4817,3.5164,3.5418,3.5525,3.5992,3.6179,3.6072,3.6072,3.5925,3.5631,3.5444,3.5297,0.0,4.123,4.209,4.168,4.1621,4.1465,4.0664,4.084,0.0,4.0644,4.0898,4.0529,3.8383,3.7932,3.7295,3.5443,3.5171,3.4803,3.3731,3.3918,3.3902,3.3202,3.3828,3.4362,3.4376,3.4857,3.5164,3.5164,3.4937,3.4643,3.4309,3.4055,3.3761,3.3427,3.3414,3.3414,3.3414,3.3414,3.3414,3.3414,3.3414,3.3414,3.3414,3.3414,3.3414,0.0,3.3414,3.3414,3.3414,3.3414,3.3414,3.3414,3.3414,3.3414,3.3414,3.3414,3.3414,3.3414,3.3414,3.3414,3.3414,3.3414,3.3414,3.3414,3.3414,3.3414,3.3414,3.3414,3.3414,3.3414,3.3414,3.3414,3.3414,3.3414,3.3414,3.3414,3.3414,3.3414,3.3414,3.3414,3.3414,3.3414,3.3414,3.3414,3.3414,3.3414,3.3414,3.3414,3.344,3.3427,3.3414,3.344,3.344,3.3561,3.3855,3.4148,3.4322,3.4349,3.491,3.5351,3.5565,3.5618,3.5819,3.6099,3.6393,3.6393,3.6099,3.6086,3.5925,3.5578,3.5551,3.5458,3.8867,0.0,3.9863,3.9434,3.9844,4.0293,0.0,4.0625,4.1191,4.1035,4.1094,4.0721,3.9193,3.8351,3.828,3.9413,3.6453,3.4802,3.7163,3.5449,3.3996,3.3986,3.4389,3.475,3.4977,3.491,3.487,3.487,3.5004,3.4776,3.4028,3.4135,3.3975,3.3427,3.3414,3.3414,3.3414,3.3414,3.3414,3.3414,3.3414,3.3414,3.3414,3.3414,3.3414,3.3414,3.3414,3.3414,3.3414,3.3414,3.3414,3.3414,3.3414,3.3414,3.3414,3.3414,3.3414,3.3414,3.3414,3.3414,3.3414,3.3414,3.3414,3.3414,3.3414,3.3414,3.3414,3.3414,3.3414,3.3414,3.3414,3.3414,3.3414,3.3414,3.3414,3.3414,3.3414,3.3414,3.3414,3.3414,3.3414,3.3414,3.3414,3.3414,3.3414,3.3414,3.3414,3.3494,3.3748,3.3561,3.3507,3.3748,3.3774,3.3801,3.3881,3.4148,3.4416,3.4643,3.5204,3.5551,3.5631,3.6059,3.6326,3.6393,3.6687,3.6687,3.6393,3.6179,3.5925,3.5631,3.5404,3.5257,3.8809,3.9316,3.9805,3.9766,4.0273,4.0762,4.0762,4.0976,4.1211,4.1211,4.1211,4.0977,4.0233,3.9153,3.8716,3.988,3.7438,3.5873,3.7335,3.5548,3.4095,3.4122,3.4616,3.4977,3.499,3.4977,3.4963,3.4963,3.511,3.487,3.4122,3.4229,3.4042,3.3427,3.3414,3.3414,3.3414,3.3414,3.3414,3.3414,3.3414,3.3414,3.3414,3.3414,3.3414,3.3414,3.3414,3.3414,3.3414,3.3414,3.3414,3.3414,3.3414,3.3414,3.3414,3.3414,3.3414,3.3414,3.3414,3.3414,3.3414,3.3414,3.3414,3.3414,3.3414,3.3414,3.3414,3.3414,3.3414,3.3414,3.3414,3.3414,3.3414,3.3414,3.3414,3.3414,3.3414,3.3414,3.3414,3.3414,3.3414,3.3414,3.3414,3.3414,3.3414,3.3414,3.3414,3.3467,3.3641,3.3521,3.3534,3.3855,3.3881,3.4002,3.4269,3.4429,3.4589,3.4802,3.5177,3.5551,3.5819,3.6139,3.6433,3.6687,3.6805,3.6794,3.65,3.6219,3.5992,3.5819,3.5538,3.5471,3.9453,4.0234,4.0996,4.0976,4.1445,4.1836,4.1641,4.1387,4.1211,4.1211,4.1211,4.1191,4.111,3.9928,3.9061,3.9324,3.8457,3.7224,3.5743,3.4773,3.4162,3.3921,3.4576,3.4963,3.4775,3.4963,3.5137,3.5137,3.5177,3.4963,3.4416,3.4349,3.4068,3.3507,3.344,3.3414,3.3414,3.3414,3.3414,3.3414,3.3414,3.3414,3.3414,3.3414,3.3414,3.3414,0.0,0.0,3.3414,3.3414,3.3414,3.3414,3.3414,3.3414,3.3414,3.3414,3.3414,3.3414,3.3414,3.3414,3.3414,3.3414,3.3414,3.3414,3.3414,3.3414,3.3414,3.3414,3.3414,3.3414,3.3414,3.3414,3.3414,3.3414,3.3414,3.3414,3.3414,3.3414,3.3414,3.3414,3.3414,3.3414,3.3414,3.3414,3.3414,3.3414,3.3414,3.3427,3.348,3.344,3.3547,3.3921,3.3948,3.4175,3.4762,3.4855,3.4882,3.4882,3.5097,3.5525,3.6112,3.6139,3.6393,3.6885,3.6885,3.6754,3.6433,3.6233,3.6099,3.6006,3.5792,3.5832,4.0566,4.2012,4.2715,4.0625,4.1211,4.2051,4.0957,4.0957,4.1211,4.1211,4.1211,4.1067,4.0678,4.0078,4.0114,4.1634,4.0197,3.7663,3.3962,3.3758,3.3935,3.3895,3.4229,3.4442,3.4389,3.4656,3.4882,3.4882,3.5057,3.5044,3.471,3.4456,3.4162,3.3828,3.3547,3.3414,3.3414,3.3414,3.3414,3.3414,3.3414,3.3414,3.3414,3.3414,3.3414,3.3414,0.0,3.3414,3.3414,3.3414,3.3414,3.3414,3.3414,3.3414,3.3414,3.3414,3.3414,3.3414,3.3414,3.3414,3.3414,3.3414,3.3414,3.3414,3.3414,3.3414,3.3414,3.3414,3.3414,3.3414,3.3414,3.3414,3.3414,3.3414,3.3414,3.3414,3.3414,3.3414,3.3414,3.3414,3.3414,3.3414,3.3414,3.3414,3.3414,3.3414,3.3414,3.3507,3.3788,3.3574,3.3627,3.4189,3.4255,3.4389,3.4788,3.499,3.5137,3.5137,3.5404,3.5832,3.6393,3.6433,3.6552,3.6885,3.6885,3.6687,3.6139,3.634,3.6179,3.5698,3.5912,3.6032,4.0312,4.2051,4.3379,4.1973,4.1936,4.1611,3.9468,3.8802,3.9012,4.0317,4.0603,4.0588,4.0485,3.9599,3.8546,3.7508,3.6489,3.5231,3.3444,3.3601,3.3881,3.3881,3.4282,3.4563,3.4563,3.483,3.5004,3.5004,3.5124,3.507,3.4829,3.4629,3.4349,3.3895,3.3748,3.3587,3.3414,3.3414,3.3414,3.3414,3.3414,3.3414,3.3414,3.3414,3.3414,3.3414,0.0,3.3414,3.3414,3.3414,3.3414,3.3414,3.3414,3.3414,3.3414,3.3414,3.3414,3.3414,3.3414,3.3414,3.3414,3.3414,3.3414,3.3414,3.3414,3.3414,3.3414,3.3414,3.3414,3.3414,3.3414,3.3414,3.3414,3.3414,3.3414,3.3414,3.3414,3.3414,3.3414,3.3414,3.3414,3.3414,3.3414,3.3414,3.3414,3.3414,3.3561,3.3721,3.3868,3.3895,3.4068,3.4509,3.4563,3.4683,3.4977,3.5124,3.5191,3.5191,3.5471,3.5698,3.6019,3.634,3.65,3.6473,3.6739,3.658,3.5832,3.6286,3.6286,3.5872,3.6166,3.6313,4.0254,4.1836,4.3256,4.2568,4.2378,4.1724,3.9086,3.7755,3.752,3.9095,3.9376,3.9499,3.9992,3.9312,3.7783,3.5167,3.4331,3.3918,3.3581,3.3668,3.3828,3.3975,3.4389,3.4656,3.4656,3.499,3.5164,3.5097,3.5151,3.507,3.4829,3.4748,3.4429,3.3908,3.3814,3.3654,3.3414,3.3414,3.3414,3.3414,3.3414,3.3414,3.3414,3.3414,3.3414,3.3414,3.3414,3.3414,3.3414,3.3414,3.3414,3.3414,3.3414,3.3414,3.3414,3.3414,3.3414,3.3414,3.3414,3.3414,3.3414,3.3414,3.3414,3.3414,3.3414,3.3414,3.3414,3.3414,3.3414,3.3414,3.3414,3.3414,3.3414,3.3414,3.3414,3.3427,3.3507,3.3467,3.3454,3.3601,3.3507,3.3427,3.3507,3.3467,3.3414,3.3414,3.3614,3.3801,3.3881,3.4082,3.4362,3.4775,3.4815,3.4936,3.5177,3.5191,3.5231,3.5297,3.5444,3.5591,3.5725,3.6099,3.6286,3.6273,3.6647,3.65,3.5832,3.6286,3.6353,3.614,3.6366,3.65,4.1348,4.207,4.2151,4.0688,4.1988,4.3128,4.1348,3.9951,3.8684,3.7711,3.7309,3.748,3.8544,3.9596,4.0242,4.0007,3.8307,3.628,3.4155,3.3614,3.3654,3.4215,3.4322,3.4349,3.4349,3.487,3.5084,3.4869,3.5044,3.507,3.4829,3.4496,3.4202,3.3895,3.3601,3.3427,3.3414,3.3414,3.3414,3.3414,3.3414,3.3414,3.3414,3.3414,3.3414,3.3414,3.3414,3.3414,3.3414,3.3414,3.3414,3.3414,3.3414,3.3414,3.3414,3.3414,3.3414,3.3414,3.3414,3.3414,3.3414,3.3414,3.3414,3.3414,3.3414,3.3414,3.3414,3.3414,3.3414,3.3414,3.3414,3.3414,3.3414,3.3414,3.3414,3.3494,3.3788,3.3614,3.3574,3.4148,3.3801,3.3507,3.3801,3.3614,3.3414,3.3414,3.3427,3.3547,3.3855,3.3908,3.4135,3.4748,3.4815,3.4936,3.5177,3.5191,3.5311,3.5578,3.5364,3.5471,3.6019,3.5819,3.6072,3.6805,3.6647,3.65,3.6433,3.6473,3.6353,3.614,3.6366,3.65,4.0879,4.0934,4.1082,4.2065,4.2242,4.1301,3.801,3.7123,3.7417,3.899,3.7911,3.7274,3.9063,3.7451,3.6318,3.7836,3.6256,3.4646,3.3993,3.3788,3.3921,3.4523,3.4603,3.467,3.4843,3.507,3.5151,3.5044,3.5137,3.507,3.4829,3.4656,3.4376,3.3895,3.3774,3.3614,3.3414,3.3414,3.3414,3.3414,3.3414,3.3414,3.3414,3.3414,3.3414,3.3414,3.3414,3.3414,3.3414,3.3414,3.3414,3.3414,3.3414,3.3414,3.3414,3.3414,3.3414,3.3414,3.3414,3.3414,3.3414,3.3414,3.3414,3.3414,3.3414,3.3414,3.3414,3.3414,3.3414,3.3454,3.3654,3.3561,3.3467,3.3654,3.3547,3.344,3.3561,3.3494,3.348,3.3708,3.3574,3.3454,3.3574,3.3494,3.3414,3.3414,3.3574,3.3814,3.4122,3.4322,3.4589,3.499,3.503,3.5084,3.5191,3.5191,3.5324,3.5551,3.5525,3.5645,3.6059,3.6139,3.6246,3.6393,3.6647,3.6552,3.6233,3.6433,3.6353,3.614,3.6366,3.6393,4.0859,4.07,4.1049,4.3355,4.2443,4.0158,3.7115,3.6572,3.7003,3.8183,3.8087,3.7968,3.8624,3.6777,3.5487,3.6434,3.4892,3.3668,3.3975,3.4028,3.4202,3.4762,3.4815,3.4895,3.5044,3.5137,3.5151,3.507,3.5151,3.499,3.4561,3.4563,3.4349,3.3761,3.3734,3.3627,3.3414,3.3414,3.3414,3.3414,3.3414,3.3414,3.3414,3.3414,3.3414,3.3414,3.3414,3.3414,3.3414,3.3414,3.3414,3.3414,3.3414,3.3414,3.3414,3.3414,3.3414,3.3414,3.3414,3.3414,3.3414,3.3414,3.3414,3.3414,3.3414,3.3414,3.3414,3.3414,3.3414,3.348,3.3801,3.3654,3.3494,3.3814,3.3721,3.3587,3.3681,3.3627,3.3587,3.3681,3.3547,3.344,3.3547,3.348,3.3414,3.3414,3.3601,3.3881,3.4269,3.4496,3.4803,3.5284,3.5418,3.5471,3.5471,3.5471,3.5591,3.5885,3.5912,3.5992,3.6206,3.6313,3.6366,3.6353,3.6647,3.6607,3.6206,3.6313,3.6273,3.6072,3.6273,3.6313,4.1562,4.1797,4.2187,4.3923,4.2419,4.0351,3.9792,3.932,3.8025,3.4619,3.7316,3.945,3.6705,3.8198,3.9098,3.6922,3.5089,3.3988,3.4282,3.4322,3.4429,3.4788,3.4815,3.4815,3.4815,3.503,3.5084,3.4842,3.503,3.4817,3.3935,3.4162,3.4042,3.3427,3.3414,3.3414,3.3414,3.3414,3.3414,3.3414,3.3414,3.3414,3.3414,3.3414,3.3414,3.3414,3.3414,3.3414,3.3414,3.3414,3.3414,3.3414,3.3414,3.3414,3.3414,3.3414,3.3414,3.3414,3.3414,3.3414,3.3414,3.3414,3.3414,3.3414,3.3414,3.3414,3.3414,3.3414,3.3414,3.348,3.3801,3.3654,3.3494,3.3814,3.3881,3.3961,3.4255,3.4082,3.3961,3.4255,3.3828,3.3507,3.3828,3.3614,3.3414,3.3414,3.3414,3.3627,3.4242,3.4322,3.4656,3.5471,3.5899,3.6126,3.6126,3.6126,3.6193,3.6473,3.65,3.65,3.65,3.6233,3.6353,3.6885,3.6647,3.65,3.65,3.6219,3.6072,3.6072,3.6072,3.6233,4.1445,4.0927,4.057,4.1108,4.0377,3.9138,3.7506,3.8577,3.9276,3.703,3.7446,3.7855,3.6699,3.5701,3.5404,3.6434,3.4892,3.3734,3.4242,3.4322,3.4509,3.5004,3.507,3.499,3.4829,3.503,3.5084,3.4842,3.4895,3.4683,3.4215,3.4082,3.3828,3.3427,3.3414,3.3414,3.3414,3.3414,3.3414,3.3414,3.3414,3.3414,3.3414,3.3414,3.3414,3.3414,3.3414,3.3414,3.3414,3.3414,3.3414,3.3414,3.3414,3.3414,3.3414,3.3414,3.3414,3.3414,3.3414,3.3414,3.3414,3.3414,3.3414,3.3414,3.3414,3.3414,3.3414,3.3414,3.3414,3.3427,3.3534,3.348,3.3494,3.3814,3.3881,3.3855,3.3708,3.3614,3.3574,3.3668,3.3534,3.344,3.3534,3.3467,3.3414,3.3414,3.3414,3.3627,3.4242,3.4683,3.503,3.5297,3.5591,3.5765,3.5765,3.5765,3.5979,3.6473,3.6313,3.638,3.6794,3.6727,3.6754,3.6885,3.6805,3.6672,3.65,3.6219,3.6072,3.6072,3.6072,3.6233,4.2558,4.1605,4.084,4.274,4.1416,3.9754,3.9833,3.8775,3.7459,3.6399,3.6744,3.6829,3.5589,3.4822,3.4633,3.5237,3.4372,3.3734,3.4095,3.4349,3.4589,3.4817,3.5057,3.5084,3.4842,3.503,3.5084,3.4842,3.4815,3.4589,3.4162,3.3975,3.3748,3.3427,3.3414,3.3414,3.3414,3.3414,3.3414,3.3414,3.3414,3.3414,3.3414,3.3414,3.3414,3.3414,3.3414,3.3414,3.3414,3.3414,3.3414,3.3414,3.3414,3.3414,3.3414,3.3414,3.3414,3.3414,3.3414,3.3414,3.3414,3.3414,3.3414,3.3414,3.3414,3.3414,3.3414,3.3414,3.3414,3.3414,3.3414,3.3507,3.3654,3.3841,3.3881,3.3841,3.3641,3.3601,3.3561,3.344,3.3414,3.3414,3.3414,3.3414,3.3454,3.3574,3.3801,3.4082,3.4456,3.5004,3.5364,3.5364,3.5631,3.5805,3.5805,3.5805,3.6006,3.6473,3.634,3.6473,3.6901,3.6885,3.6874,3.6754,3.6874,3.6632,3.6153,3.6219,3.6179,3.6072,3.6193,3.6393,4.4219,4.3238,4.2605,4.6741,4.4192,4.14,4.4284,3.9363,3.4284,3.4537,3.5927,3.6405,3.385,3.4977,3.5684,3.371,3.3654,3.3855,3.3881,3.4362,3.4629,3.4349,3.4843,3.507,3.475,3.5004,3.5084,3.4842,3.4788,3.4548,3.3961,3.3868,3.3708,3.3427,3.3414,3.3414,3.3414,3.3414,3.3414,3.3414,3.3414,3.3414,3.3414,3.3414,3.3414,3.3414,3.3414,3.3414,3.3414,3.3414,3.3414,3.3414,3.3414,3.3414,3.3414,3.3414,3.3414,3.3414,3.3414,3.3414,3.3414,3.3414,3.3414,3.3414,3.3414,3.3414,3.3414,3.3414,3.3414,3.3414,3.3414,3.3627,3.3841,3.3841,3.3868,3.3881,3.3855,3.3841,3.3761,3.3467,3.3427,3.344,3.3414,3.344,3.3547,3.3841,3.4362,3.4788,3.4815,3.5244,3.5538,3.5538,3.5859,3.6032,3.6032,3.6032,3.6153,3.6433,3.6433,3.658,3.6845,3.6845,3.6754,3.65,3.6754,3.6473,3.5578,3.6193,3.6313,3.6046,3.6326,3.662,4.334,4.4094,4.4709,4.468,4.3074,4.1097,3.946,3.778,3.7155,3.9184,3.8522,3.6732,3.3941,3.3796,3.3919,3.345,3.3467,3.3601,3.3855,3.4189,3.4389,3.4322,3.4843,3.499,3.4469,3.4897,3.5084,3.4842,3.4549,3.4362,3.4229,3.3774,3.348,3.3414,3.3414,3.3414,3.3414,3.3414,3.3414,3.3414,3.3414,3.3414,3.3414,3.3414,3.3414,3.3414,3.3414,3.3414,3.3414,3.3414,3.3414,3.3414,3.3414,3.3414,3.3414,3.3414,3.3414,3.3414,3.3414,3.3414,3.3414,3.3414,3.3414,3.3414,3.3414,3.3414,3.3414,3.3414,3.3414,3.3414,3.3414,3.3467,3.3507,3.3507,3.3708,3.3814,3.3574,3.3507,3.3494,3.3427,3.3614,3.3708,3.3454,3.3614,3.3801,3.3881,3.4189,3.4496,3.4788,3.507,3.5284,3.5284,3.5551,3.5725,3.5725,3.5725,3.5845,3.6153,3.5952,3.6046,3.658,3.6607,3.658,3.65,3.658,3.6273,3.5578,3.5992,3.6006,3.5738,3.6032,3.6326,4.2579,4.3302,4.3667,4.2953,4.3209,4.3269,4.1695,4.0206,3.9545,4.0898,3.8252,3.5165,3.3691,3.3414,3.3414,3.3414,3.3534,3.3641,3.3654,3.4162,3.4429,3.4148,3.4629,3.4817,3.4362,3.4723,3.487,3.4576,3.4402,3.4255,3.4122,3.3668,3.3414,3.3414,3.3414,3.3414,3.3414,3.3414,3.3414,3.3414,3.3414,3.3414,3.3414,3.3414,3.3414,3.3414,3.3414,3.3414,3.3414,3.3414,3.3414,3.3414,3.3414,3.3414,3.3414,3.3414,3.3414,3.3414,3.3414,3.3414,3.3414,3.3414,3.3414,3.3414,3.3414,3.3414,3.3414,3.3414,3.3414,3.3414,3.3414,3.3414,3.3414,3.3414,3.3534,3.3614,3.3454,3.3414,3.3414,3.3414,3.3547,3.3601,3.344,3.3788,3.4148,3.4282,3.4549,3.479,3.495,3.5097,3.5191,3.5191,3.5338,3.5418,3.5418,3.5418,3.5551,3.5845,3.5712,3.5885,3.6473,3.6366,3.6366,3.65,3.65,3.6219,3.5578,3.6072,3.6059,3.5631,3.5939,3.6153,4.1984,4.2495,4.2649,4.2417,4.4346,4.6236,4.5716,4.3296,4.1187,4.1187,3.738,3.395,3.3464,3.3414,3.3414,3.3414,3.3681,3.3774,3.3454,3.4148,3.4469,3.3881,3.4322,3.4576,3.4269,3.4509,3.4589,3.4336,3.4269,3.4135,3.3895,3.3587,3.3414,3.3414,3.3414,3.3414,3.3414,3.3414,3.3414,3.3414,3.3414,3.3414,3.3414,3.3414,3.3414,3.3414,3.3414,3.3414,3.3414,3.3414,3.3414,3.3414,3.3414,3.3414,3.3414,3.3414,3.3414,3.3414,3.3414,3.3414,3.3414,3.3414,3.3414,3.3414,3.3414,3.3414,3.3414,3.3414,3.3414,3.3414,3.3414,3.3414,3.3414,3.3414,3.3414,3.3414,3.3414,3.3414,3.3414,3.3414,3.3414,3.344,3.3547,3.3948,3.4349,3.4643,3.4937,3.5124,3.5124,3.5124,3.5137,3.5191,3.5151,3.5137,3.5191,3.5191,3.5297,3.5538,3.5551,3.5792,3.6326,3.6072,3.6099,3.65,3.6473,3.6139,3.5551,3.6099,3.6072,3.5565,3.5859,3.5992,4.175,4.4006,4.5954,4.4862,4.682,4.8298,4.5684,4.3058,4.1187,4.1187,3.8831,3.608,3.38,3.3414,3.3414,3.3414,3.3681,3.3774,3.3454,3.3975,3.4148,3.3547,3.4015,3.4269,3.3975,3.4202,3.4362,3.4322,3.4082,3.3921,3.3895,3.3587,3.3414,3.3414,3.3414,3.3414,3.3414,3.3414,3.3414,3.3414,3.3414,3.3414,3.3414,3.3414,3.3414,3.3414,3.3414,3.3414,3.3414,3.3414,3.3414,3.3414,3.3414,3.3414,3.3414,3.3414,3.3414,3.3414,3.3414,3.3414,3.3414,3.3414,3.3414,3.3414,3.3414,3.3414,3.3414,3.3414,3.3414,3.3414,3.3414,3.3414,3.3414,3.3414,3.3414,3.3414,3.3414,3.3414,3.3414,3.3414,3.3414,3.3574,3.4108,3.4055,3.4042,3.4336,3.4629,3.4869,3.4869,3.4869,3.4923,3.5177,3.4977,3.4976,3.5177,3.5191,3.5217,3.5244,3.5257,3.5404,3.5725,3.5471,3.5685,3.65,3.6259,3.5845,3.5257,3.5591,3.5578,3.5257,3.5551,3.5685,4.2363,4.3613,4.4434,4.4621,4.6943,4.8354,4.5377,4.2868,4.1138,4.0875,3.7782,3.477,3.36,3.3414,3.3414,3.3414,3.3681,3.3774,3.3454,3.3935,3.4095,3.348,3.3801,3.3961,3.3654,3.3895,3.4002,3.3828,3.3855,3.3814,3.3627,3.3494,3.3414,3.3414,3.3414,3.3414,3.3414,3.3414,3.3414,3.3414,3.3414,3.3414,3.3414,3.3414,3.3414,3.3414,3.3414,3.3414,3.3414,3.3414,3.3414,3.3414,3.3414,3.3414,3.3414,3.3414,3.3414,3.3414,3.3414,3.3414,3.3414,3.3414,3.3414,3.3414,3.3414,3.3414,3.3414,3.3414,3.3414,3.3414,3.3414,3.3414,3.3414,3.3414,3.3414,3.3414,3.3414,3.3414,3.3414,3.3414,3.3414,3.3547,3.4002,3.3975,3.3988,3.4282,3.4576,3.4815,3.4815,3.491,3.5057,3.5177,3.5084,3.5057,3.5191,3.5191,3.5191,3.5191,3.5191,3.5324,3.5565,3.5511,3.5618,3.6006,3.5885,3.5778,3.5685,3.5645,3.5485,3.5204,3.5498,3.5538,4.2305,4.261,4.2491,4.3993,4.6364,4.767,4.5528,4.2894,4.084,4.0464,3.6572,3.3187,3.3187,3.3307,3.3414,3.3414,3.3681,3.3774,3.3454,3.3868,3.4015,3.3467,3.3614,3.3668,3.3427,3.3627,3.3668,3.3427,3.3627,3.3668,3.3427,3.3414,3.3414,3.3414,3.3414,3.3414,3.3414,3.3334,3.3307,3.3293,3.3227,3.3187,3.3187,3.3187,3.3227,3.3307,3.3374,3.3414,3.3414,3.3414,3.3414,3.3414,3.3414,3.3414,3.3414,3.3414,3.3414,3.3414,3.3414,3.3414,3.3414,3.3414,3.3414,3.3414,3.3414,3.3414,3.3414,3.3414,3.3414,3.3414,3.3414,3.3414,3.3414,3.3414,3.3414,3.3414,3.3414,3.3414,3.3414,3.3414,3.3414,3.3507,3.3828,3.3881,3.3961,3.4175,3.4523,3.4788,3.4656,3.491,3.5084,3.5084,3.5084,3.5084,3.5084,3.5151,3.5191,3.5191,3.5191,3.5297,3.5511,3.5525,3.5551,3.5578,3.5551,3.5631,3.5845,3.5631,3.5404,3.5204,3.5498,3.5471,4.0703,4.1289,4.1775,4.3854,4.5441,4.6479,4.6717,4.3349,4.0163,4.0146,3.6115,3.2634,3.2634,3.304,3.3414,3.3414,3.3681,3.3774,3.3454,3.3694,3.3788,3.3454,3.3427,3.3427,3.3414,3.3427,3.3427,3.3414,3.3427,3.3427,3.3414,3.3414,3.3414,3.3414,3.3414,3.3414,3.3414,3.3133,3.3,3.3,3.2768,3.2634,3.2634,3.2634,3.2795,3.3013,3.3293,3.3414,3.3414,3.3414,3.3414,3.3414,3.3414,3.3414,3.3414,3.3414,3.3414,3.3414,3.3414,3.3414,3.3414,3.3414,3.3414,3.3414,3.3414,3.3414,3.3414,3.3414,3.3414,3.3414,3.3414,3.3414,3.3414,3.3414,3.3414,3.3414,3.3414,3.3414,3.3414,3.3414,3.3414,3.3507,3.3828,3.3881,3.3895,3.3908,3.4402,3.4708,3.4376,3.4538,3.4724,3.479,3.4842,3.4842,3.4842,3.5044,3.5191,3.5191,3.5191,3.5204,3.5217,3.5217,3.5351,3.5631,3.5364,3.5231,3.5244,3.5231,3.5204,3.5204,3.5498,3.5471,4.0234,4.0762,4.1269,4.3418,4.4512,4.5195,4.5605,4.3804,4.1516,3.9653,3.6957,3.4432,3.2873,3.2915,3.3133,3.3133,3.3387,3.3547,3.3427,3.3507,3.3534,3.3427,3.3414,3.3414,3.3414,3.3414,3.3414,3.3414,3.3414,3.3414,3.3414,3.3414,3.3414,3.3414,3.3414,3.3414,3.3414,3.312,3.2973,3.2973,3.2929,3.2875,3.2875,3.3013,3.316,3.3267,3.336,3.3414,3.3414,3.3414,3.3414,3.3414,3.3414,3.3414,3.3414,3.3414,3.3414,3.3414,3.3414,3.3414,3.3414,3.3414,3.3414,3.3414,3.3414,3.3414,3.3414,3.3414,3.3414,3.3414,3.3414,3.3414,3.3414,3.3414,3.3414,3.3414,3.3414,3.3414,3.3414,3.3414,3.3414,3.3454,3.3561,3.3587,3.3587,3.3587,3.3935,3.4162,3.4055,3.4456,3.4763,3.4815,3.4923,3.5044,3.5044,3.5311,3.5391,3.5204,3.5364,3.5391,3.5204,3.5191,3.5244,3.5351,3.5244,3.5284,3.5471,3.5284,3.5191,3.5204,3.5498,3.5471,3.926,3.9766,4.0351,4.2363,4.3203,4.375,4.4609,4.3603,4.178,3.9191,3.7164,3.517,3.2843,3.2688,3.2915,3.3009,3.3227,3.3414,3.3414,3.3414,3.3414,3.3414,3.3414,3.3414,3.3414,3.3414,3.3414,3.3414,3.3414,3.3414,3.3414,3.3414,3.3414,3.3414,3.3414,3.336,3.3267,3.2973,3.2835,3.2679,3.2585,3.2585,3.2692,3.2879,3.308,3.3267,3.3267,3.332,3.3414,3.3414,3.3414,3.3414,3.3414,3.3414,3.3414,3.3414,3.3414,3.3414,3.3414,3.3414,3.3414,3.3414,3.3414,3.3414,3.3414,3.3414,3.3414,3.3414,3.3414,3.3414,3.3414,3.3414,3.3414,3.3414,3.3414,3.3414,3.3414,3.3414,3.3414,3.3414,3.3414,3.3414,3.3414,3.3414,3.3414,3.3414,3.3681,3.3881,3.3881,3.4454,3.4775,3.4629,3.4963,3.5151,3.5057,3.5404,3.5551,3.5351,3.5618,3.5645,3.5351,3.5338,3.5297,3.5204,3.5191,3.5284,3.5485,3.5284,3.5191,3.5204,3.5498,3.5525,0.0,0.0,0.0,4.0741,4.1445,4.2207,4.3926,4.2833,4.085,3.878,3.6755,3.4712,3.2586,3.2428,3.2674,3.2919,3.3213,3.3414,3.3414,3.3414,3.3414,3.3414,3.3414,3.3414,3.3414,3.3414,3.3414,3.3414,3.3414,3.3414,3.3414,3.3414,3.3414,3.3414,3.34,3.3267,3.2986,3.2728,3.2433,3.2118,3.1824,3.1837,3.2131,3.2131,3.2438,3.2986,3.2986,3.3146,3.3414,3.3414,3.3414,3.3414,3.3414,3.3414,3.3414,3.3414,3.3414,3.3414,3.3414,3.3414,3.3414,3.3414,3.3414,3.3414,3.3414,3.3414,3.3414,3.3414,3.3414,3.3414,3.3414,3.3414,3.3414,3.3414,3.3414,3.3414,3.3414,3.3414,3.3414,3.3414,3.3414,3.3414,3.3414,3.3414,3.3414,3.3414,3.3681,3.3881,3.3881,3.4441,3.4643,3.4362,3.4857,3.5084,3.4855,3.5297,3.5631,3.5565,3.5899,3.5939,3.5591,3.5631,3.5511,3.5217,3.5204,3.5204,3.5191,3.5191,3.5191,3.5204,3.5485,3.5618,3.7855,0.0,0.0,0.0,0.0,0.0,4.2207,4.2286,4.1729,4.0335,3.8441,3.6502,3.4715,3.3227,3.2318,3.2661,3.3093,3.3414,3.3414,3.3414,3.3414,3.3414,3.3414,3.3414,3.3414,3.3414,3.3414,3.3414,3.3414,3.3414,3.3414,3.3414,3.3414,3.3414,3.3213,3.3066,3.2973,3.2478,3.2291,3.2474,3.2118,3.2251,3.2732,3.2732,3.2946,3.3293,3.3293,3.3334,3.3414,3.3414,3.3414,3.3414,3.3414,3.3414,3.3414,3.3414,3.3414,3.3414,3.3414,3.3414,3.3414,3.3414,3.3414,3.3414,3.3414,3.3414,3.3414,3.3414,3.3414,3.3414,3.3414,3.3414,3.3414,3.3414,3.3414,3.3414,3.3414,3.3414,3.3414,3.3414,3.3414,3.3414,3.3414,3.3414,3.3414,3.3414,3.3494,3.3627,3.3855,3.4215,3.4496,3.4629,3.4977,3.5164,3.5084,3.5418,3.5538,3.5324,3.5792,3.5939,3.5591,3.5832,3.5805,3.5511,3.5511,3.5404,3.5191,3.5191,3.5191,3.5204,3.5284,3.5311,0.0,0.0,3.9101,4.0156,0.0,0.0,4.0779,4.1049,4.0579,3.8304,3.7038,3.5814,3.3944,3.2685,3.2064,3.2527,3.2982,3.328,3.3387,3.3414,3.3414,3.3414,3.3414,3.3414,3.3414,3.3414,3.3414,3.3414,3.3414,3.3414,3.3414,3.3414,3.3414,3.3414,3.3253,3.304,3.2848,3.2452,3.2367,3.2407,3.2185,3.2412,3.2973,3.2973,3.3133,3.3414,3.3414,3.3414,3.3414,3.3414,3.3414,3.3414,3.3414,3.3414,3.3414,3.3414,3.3414,3.3414,3.3414,3.3414,3.3414,3.3414,3.3414,3.3414,3.3414,3.3414,3.3414,3.3414,3.3414,3.3414,3.3414,3.3414,3.3414,3.3414,3.3414,3.3414,3.3414,3.3414,3.3414,3.3414,3.3414,3.3414,3.3414,3.3414,3.3414,3.3414,3.3521,3.3681,3.3855,3.4255,3.4576,3.4802,3.5017,3.5191,3.5191,3.5458,3.5605,3.5565,3.5885,3.6046,3.5992,3.5925,3.5872,3.5819,3.5698,3.5551,3.5378,3.5257,3.5191,3.5191,3.5191,3.5191,0.0,0.0,0.0,0.0,0.0,0.0,3.9877,3.9718,3.8753,3.5419,3.4854,3.4427,3.2541,3.2198,3.2394,3.2955,3.3171,3.3256,3.341,3.3414,3.3414,3.3414,3.3414,3.34,3.3374,3.336,3.336,3.336,3.3387,3.3414,3.3414,3.3414,3.3414,3.3414,3.3374,3.3106,3.2594,3.2567,3.2407,3.2104,3.2064,3.2385,3.2973,3.2946,3.3106,3.3414,3.3414,3.3414,3.3414,3.3414,3.3414,3.3414,3.3414,3.3414,3.3414,3.3414,3.3414,3.3414,3.3414,3.3414,3.3414,3.3414,3.3414,3.3414,3.3414,3.3414,3.3414,3.3414,3.3414,3.3414,3.3414,3.3414,3.3414,3.3414,3.3414,3.3414,3.3414,3.3414,3.3414,3.3414,3.3414,3.3414,3.3414,3.3414,3.3414,3.3414,3.3681,3.3895,3.3935,3.4467,3.4829,3.4855,3.5044,3.5191,3.5191,3.5431,3.5698,3.5965,3.6006,3.6139,3.6393,3.5965,3.5832,3.6072,3.5819,3.5672,3.5672,3.5391,3.5231,3.5191,3.5191,3.5191,0.0,0.0,0.0,0.0,0.0,0.0,4.0742,4.0625,4.0408,4.0662,3.9235,3.8061,3.8306,3.6785,3.5618,3.6014,3.5208,3.4278,3.3516,3.3414,3.3414,3.3414,3.3414,3.332,3.3093,3.3066,3.3066,3.3066,3.328,3.3414,3.3414,3.3414,3.3414,3.3414,3.3187,3.2942,3.2594,3.2305,3.2158,3.2104,3.1864,3.2233,3.2973,3.2781,3.2919,3.3414,3.3414,3.3414,3.3414,3.3414,3.3414,3.3414,3.3414,3.3414,3.3414,3.3414,3.3414,3.3414,3.3414,3.3414,3.3414,3.3414,3.3414,3.3414,3.3414,3.3414,3.3414,3.3414,3.3414,3.3414,3.3414,3.3414,3.3414,3.3414,3.3414,3.3414,3.3414,3.3414,3.3414,3.3414,3.3414,3.3414,3.3414,3.3414,3.3414,3.3414,3.3681,3.3975,3.4202,3.4549,3.4909,3.5084,3.5164,3.5191,3.5191,3.5244,3.5311,3.5364,3.5591,3.5738,3.5792,3.6139,3.6246,3.6072,3.6019,3.5992,3.5979,3.5685,3.5418,3.5191,3.5191,3.5191,0.0,0.0,0.0,4.0742,0.0,0.0,0.0,3.9434,3.9061,3.8992,3.7643,3.6772,3.7652,3.6735,3.6073,3.6867,3.5725,3.4546,3.4106,3.3672,3.3414,3.3414,3.328,3.32,3.32,3.2982,3.2875,3.2973,3.3253,3.3414,3.3414,3.3414,3.3414,3.3414,3.3133,3.2888,3.2594,3.2251,3.2104,3.2104,3.2152,3.246,3.2973,3.2973,3.3133,3.3414,3.3414,3.3414,3.3414,3.3414,3.3414,3.3414,3.3414,3.3414,3.3414,3.3414,3.3414,3.3414,3.3414,3.3414,3.3414,3.3414,3.3414,3.3414,3.3414,3.3414,3.3414,3.3414,3.3414,3.3414,3.3414,3.3414,3.3414,3.3414,3.3414,3.3414,3.3414,3.3414,3.3414,3.3414,3.3414,3.3414,3.3414,3.3414,3.3414,3.3414,3.3681,3.3988,3.4282,3.4576,3.4923,3.5364,3.5284,3.5257,3.5404,3.5284,3.5257,3.5404,3.5418,3.5538,3.5845,3.5992,3.6139,3.6286,3.6433,3.6433,3.6286,3.6139,3.5912,3.5631,3.5631,3.5631,0.0,0.0,0.0,0.0,0.0,4.0859,0.0,0.0,0.0,3.6854,3.6028,3.5767,3.6484,3.652,3.6784,3.7742,3.6511,3.5452,3.5542,3.4748,3.3841,3.3085,3.2839,3.2812,3.3053,3.2599,3.2487,3.2786,3.3026,3.3213,3.332,3.3387,3.3414,3.3414,3.3133,3.2888,3.2594,3.2251,3.2078,3.2024,3.2367,3.2634,3.2826,3.3173,3.3334,3.3334,3.3387,3.3414,3.3414,3.3414,3.3414,3.3414,3.3414,3.3414,3.3414,3.3414,3.3414,3.3414,3.3414,3.3414,3.3414,3.3414,3.3414,3.3414,3.3414,3.3414,3.3414,3.3414,3.3414,3.3414,3.3414,3.3414,3.3414,3.3414,3.3414,3.3414,3.3414,3.3414,3.3414,3.3414,3.3414,3.3414,3.3414,3.3414,3.3414,3.3414,3.3734,3.4055,3.4295,3.4629,3.503,3.5498,3.5338,3.5284,3.5525,3.5324,3.5297,3.5538,3.5324,3.5404,3.5885,3.5778,3.5992,3.658,3.6779,3.6779,3.658,3.658,3.6393,3.6072,3.6072,3.6072,0.0,0.0,0.0,0.0,4.1445,0.0,0.0,0.0,4.0743,4.0605,0.0,4.0431,4.0507,0.0,0.0,4.0698,3.9582,3.8681,3.8698,3.7612,3.5517,3.1893,3.1677,3.1872,3.1912,3.157,3.161,3.2158,3.2238,3.2478,3.3,3.3267,3.3414,3.3414,3.3133,3.2888,3.2594,3.2251,3.1971,3.1764,3.2011,3.2171,3.2225,3.2772,3.3026,3.304,3.3293,3.3414,3.3414,3.3414,3.3414,3.3414,3.3414,3.3414,3.3414,3.3414,3.3414,3.3414,3.3414,3.3414,3.3414,3.3414,3.3414,3.3414,3.3414,3.3414,3.3414,3.3414,3.3414,3.3414,3.3414,3.3414,3.3414,3.3414,3.3414,3.3414,3.3414,3.3414,3.3414,3.3414,3.3414,3.3414,3.3414,3.3414,3.3414,3.3414,3.3908,3.4282,3.4322,3.4803,3.5177,3.5244,3.5217,3.5204,3.5244,3.5217,3.5204,3.5244,3.5217,3.5231,3.5297,3.5765,3.6299,3.6861,3.6885,3.6885,3.6845,3.6845,3.6607,3.6072,3.6072,3.6072,0.0,0.0,0.0,0.0,0.0,0.0,0.0,0.0,4.0859,0.0,0.0,0.0,0.0,0.0,0.0,0.0,3.9711,3.8521,3.8469,3.7326,3.6123,3.4879,3.3574,3.2291,3.1087,3.1263,3.1517,3.1583,3.1757,3.2038,3.2452,3.2746,3.2986,3.316,3.2929,3.2714,3.2594,3.2251,3.1957,3.1724,3.1971,3.2185,3.242,3.2786,3.3066,3.324,3.336,3.3414,3.3414,3.3414,3.3414,3.3414,3.3414,3.3414,3.3414,3.3414,3.3414,3.3414,3.3414,3.3414,3.3414,3.3414,3.3414,3.3414,3.3414,3.3414,3.3414,3.3414,3.3414,3.3414,3.3414,3.3414,3.3414,3.3414,3.3414,3.3414,3.3414,3.3414,3.3414,3.3414,3.3414,3.3414,3.3414,3.3414,3.3414,3.3414,3.3627,3.3921,3.4269,3.4536,3.4883,3.5391,3.5297,3.5191,3.5191,3.5191,3.5124,3.495,3.5097,3.5431,3.5939,3.5859,3.6166,3.6885,3.6754,3.6754,3.6885,3.6754,3.6647,3.658,3.658,3.658,4.0215,0.0,0.0,0.0,0.0,0.0,0.0,0.0,0.0,0.0,0.0,0.0,0.0,0.0,0.0,0.0,0.0,3.8682,3.7906,3.7043,3.6323,3.5844,3.3811,3.1869,3.0294,3.0621,3.0955,3.0982,3.1116,3.1423,3.1957,3.2393,3.2728,3.2973,3.2822,3.2714,3.2714,3.242,3.2078,3.1797,3.2171,3.2372,3.2487,3.2893,3.3173,3.3293,3.3374,3.3414,3.3414,3.3414,3.3414,3.3414,3.3414,3.3467,3.3534,3.344,3.3414,3.3414,3.3414,3.3414,3.3414,3.3414,3.3414,3.3414,3.3414,3.3414,3.3414,3.3414,3.3414,3.3414,3.3414,3.348,3.3547,3.3547,3.3547,3.3547,3.3547,3.3467,3.3414,3.3414,3.3414,3.3414,3.3414,3.348,3.3507,3.3427,3.3547,3.3788,3.4148,3.4349,3.4683,3.5324,3.5271,3.5164,3.5084,3.5151,3.511,3.4897,3.5084,3.5511,3.6233,3.5859,3.6006,3.6794,3.662,3.6647,3.6885,3.6727,3.6727,3.6885,3.6805,3.6805,0.0,0.0,0.0,4.0839,0.0,0.0,0.0,0.0,4.1523,0.0,0.0,0.0,0.0,0.0,0.0,0.0,0.0,0.0,0.0,3.7697,3.6391,3.2461,3.059,2.9601,2.9557,2.9272,2.9472,3.0373,3.0127,3.0474,3.1671,3.2286,3.2728,3.2973,3.2973,3.3009,3.3009,3.2728,3.2433,3.2091,3.2679,3.2652,3.2144,3.3,3.3253,3.3013,3.3293,3.3414,3.3414,3.3414,3.3414,3.3414,3.3414,3.3601,3.3841,3.3521,3.3414,3.3414,3.3414,3.3414,3.3414,3.3414,3.3414,3.3414,3.3414,3.3414,3.3414,3.3414,3.3414,3.3414,3.3414,3.3641,3.3868,3.3868,3.3868,3.3868,3.3868,3.3627,3.3414,3.3414,3.3414,3.3414,3.3414,3.3668,3.3761,3.3454,3.3908,3.4202,3.3935,3.4402,3.4815,3.4842,3.503,3.5084,3.4855,3.503,3.5191,3.5177,3.5191,3.5338,3.5645,3.5591,3.5912,3.65,3.65,3.6647,3.6885,3.6885,3.6885,3.6885,3.6647,3.6632,0.0,0.0,3.5861,3.8888,0.0,0.0,0.0,0.0,0.0,0.0,0.0,0.0,0.0,0.0,0.0,0.0,0.0,0.0,0.0,3.6734,3.4903,3.3845,3.2324,3.0707,2.9041,2.8948,2.9202,2.974,2.9686,2.998,3.0801,3.1591,3.2152,3.2385,3.2772,3.2973,3.2973,3.2929,3.2728,3.2447,3.2648,3.2741,3.2692,3.2986,3.3173,3.3267,3.3374,3.3414,3.3414,3.3414,3.3414,3.3414,3.3414,3.348,3.3561,3.3454,3.3668,3.4015,3.4015,3.3748,3.3454,3.3654,3.3587,3.3414,3.3414,3.3414,3.3414,3.3414,3.3414,3.3414,3.3414,3.3494,3.3574,3.3574,3.3574,3.3574,3.3574,3.3494,3.3414,3.3414,3.3414,3.3414,3.3414,3.3681,3.3774,3.3454,3.3587,3.3761,3.3868,3.4068,3.4255,3.4456,3.4736,3.479,3.4496,3.4736,3.507,3.5458,3.5297,3.5498,3.6179,3.5832,3.5912,3.65,3.65,3.654,3.6647,3.6647,3.6754,3.6885,3.6592,3.654,3.4559,3.4024,0.0,3.7141,3.7048,0.0,3.9687,0.0,0.0,0.0,0.0,0.0,0.0,0.0,0.0,0.0,0.0,0.0,0.0,3.5162,3.2905,3.3465,3.1948,3.0212,2.8628,2.8617,2.8845,2.9152,2.9272,2.9579,3.0167,3.1036,3.169,3.2091,3.2679,3.3026,3.3133,3.3133,3.2986,3.2755,3.2848,3.2955,3.2986,3.3093,3.324,3.3414,3.3414,3.3414,3.3414,3.3414,3.3414,3.3414,3.3414,3.3547,3.3708,3.3494,3.3654,3.4015,3.4122,3.3828,3.344,3.3654,3.3574,3.3414,3.3414,3.3414,3.3414,3.3414,3.3414,3.3414,3.3414,3.3494,3.3574,3.3574,3.3574,3.3574,3.3574,3.3494,3.3414,3.3414,3.3414,3.3414,3.3414,3.3587,3.3654,3.344,3.3507,3.3654,3.3855,3.3881,3.4002,3.4282,3.4589,3.4723,3.4643,3.471,3.4963,3.5444,3.5297,3.5498,3.6166,3.5832,3.5859,3.634,3.6473,3.65,3.65,3.662,3.6687,3.6739,3.658,3.6393]},{"header":{"parameterUnit":"m.s-1","parameterCategory":1,"la1":30.6,"la2":29.2853,"lo1":-89.7004,"lo2":-87.6739,"dy":0.0162,"dx":0.0183,"nx":112,"ny":82,"refTime":"2024-10-01T06:00:00:Z","depth":0,"parameterNumber":3,"parameterNumberName":"V-component_of_WINDS"},"data":[0.0,0.0,0.0,0.0,0.0,0.0,0.0,0.0,0.0,0.0,0.0,0.0,0.0,0.0,0.0,0.0,0.0,0.0,0.0,0.0,0.0,0.0,0.0,0.0,0.0,0.0,0.0,0.0,0.0,0.0,0.0,0.0,0.0,0.0,0.0,0.0,0.0,0.0,0.0,0.0,0.0,0.0,0.0,0.0,0.0,0.0,0.0,0.0,0.0,0.0,0.0,0.0,0.0,0.0,0.0,0.0,0.0,0.0,0.0,0.0,0.0,0.0,0.0,0.0,0.0,0.0,0.0,0.0,0.0,0.0,0.0,0.0,0.0,0.0,0.0,0.0,0.0,0.0,0.0,0.0,0.0,0.0,0.0,0.0,0.0,0.0,0.0,0.0,0.0,0.0,0.0,5.3618,5.6308,5.7997,5.7997,5.7886,5.5868,5.1279,0.0,0.0,0.0,0.0,0.0,0.0,0.0,0.0,0.0,0.0,0.0,0.0,0.0,0.0,0.0,0.0,0.0,0.0,0.0,0.0,0.0,0.0,0.0,0.0,0.0,0.0,0.0,0.0,0.0,0.0,0.0,0.0,0.0,0.0,0.0,0.0,0.0,0.0,0.0,0.0,0.0,0.0,0.0,0.0,0.0,0.0,0.0,0.0,0.0,0.0,0.0,0.0,0.0,0.0,0.0,0.0,0.0,0.0,0.0,0.0,0.0,0.0,0.0,0.0,0.0,0.0,0.0,0.0,0.0,0.0,0.0,0.0,0.0,0.0,0.0,0.0,0.0,0.0,0.0,0.0,0.0,0.0,0.0,0.0,0.0,0.0,0.0,0.0,0.0,0.0,0.0,0.0,0.0,0.0,0.0,0.0,0.0,0.0,0.0,0.0,0.0,0.0,0.0,0.0,5.2344,5.5893,5.7299,5.7997,5.7997,5.7373,5.55,5.206,0.0,0.0,0.0,0.0,0.0,0.0,0.0,0.0,0.0,0.0,0.0,0.0,0.0,0.0,0.0,0.0,0.0,0.0,0.0,0.0,0.0,0.0,0.0,0.0,0.0,0.0,0.0,0.0,0.0,0.0,0.0,0.0,0.0,0.0,0.0,0.0,0.0,0.0,0.0,0.0,0.0,0.0,0.0,0.0,0.0,0.0,0.0,0.0,0.0,0.0,0.0,0.0,0.0,0.0,0.0,0.0,0.0,0.0,0.0,0.0,0.0,0.0,0.0,0.0,0.0,0.0,0.0,0.0,0.0,0.0,0.0,0.0,0.0,0.0,0.0,0.0,0.0,0.0,0.0,0.0,0.0,0.0,0.0,0.0,0.0,0.0,0.0,0.0,0.0,0.0,0.0,0.0,0.0,0.0,0.0,0.0,0.0,0.0,0.0,0.0,0.0,0.0,0.0,5.216,5.3471,5.7079,5.7776,5.7997,5.7997,5.7666,5.5721,5.161,5.0986,0.0,0.0,0.0,0.0,0.0,0.0,0.0,0.0,0.0,0.0,0.0,0.0,0.0,0.0,0.0,0.0,0.0,0.0,0.0,0.0,0.0,0.0,0.0,0.0,0.0,0.0,0.0,0.0,0.0,0.0,0.0,0.0,0.0,0.0,0.0,0.0,0.0,0.0,0.0,0.0,0.0,0.0,0.0,0.0,0.0,0.0,0.0,0.0,0.0,0.0,0.0,0.0,0.0,0.0,0.0,0.0,0.0,0.0,0.0,0.0,0.0,0.0,0.0,0.0,0.0,0.0,0.0,0.0,0.0,0.0,0.0,0.0,0.0,0.0,0.0,0.0,0.0,0.0,0.0,0.0,0.0,0.0,0.0,0.0,0.0,0.0,0.0,0.0,0.0,0.0,0.0,0.0,0.0,0.0,0.0,0.0,0.0,0.0,0.0,0.0,0.0,0.0,5.4509,5.528,5.774,5.7997,5.7997,5.7997,5.7483,5.5317,5.1059,5.0241,0.0,0.0,0.0,0.0,0.0,0.0,0.0,0.0,0.0,0.0,0.0,0.0,0.0,0.0,0.0,0.0,0.0,0.0,0.0,0.0,0.0,0.0,0.0,0.0,0.0,0.0,0.0,0.0,0.0,0.0,0.0,0.0,0.0,0.0,0.0,0.0,0.0,0.0,0.0,0.0,0.0,0.0,0.0,0.0,0.0,0.0,0.0,0.0,0.0,0.0,0.0,0.0,0.0,0.0,0.0,0.0,0.0,0.0,0.0,0.0,0.0,0.0,0.0,0.0,0.0,0.0,0.0,0.0,0.0,0.0,0.0,0.0,0.0,0.0,0.0,0.0,0.0,0.0,0.0,0.0,0.0,0.0,0.0,0.0,0.0,0.0,0.0,0.0,0.0,0.0,0.0,0.0,0.0,0.0,0.0,0.0,0.0,0.0,0.0,0.0,0.0,0.0,5.5427,5.774,5.796,5.7997,5.7997,5.7997,5.5941,5.3555,5.0949,4.8627,0.0,0.0,0.0,0.0,0.0,0.0,0.0,0.0,0.0,0.0,0.0,0.0,0.0,0.0,0.0,0.0,0.0,0.0,0.0,0.0,0.0,0.0,0.0,0.0,0.0,0.0,0.0,0.0,0.0,0.0,0.0,0.0,0.0,0.0,0.0,0.0,0.0,0.0,0.0,0.0,0.0,0.0,0.0,0.0,0.0,0.0,0.0,0.0,0.0,0.0,0.0,0.0,0.0,0.0,0.0,0.0,0.0,0.0,0.0,0.0,0.0,0.0,0.0,0.0,0.0,0.0,0.0,0.0,0.0,0.0,0.0,0.0,0.0,0.0,0.0,0.0,0.0,0.0,0.0,0.0,0.0,0.0,0.0,0.0,0.0,0.0,0.0,0.0,0.0,0.0,0.0,0.0,0.0,0.0,0.0,0.0,0.0,0.0,0.0,0.0,0.0,0.0,5.4509,5.6345,0.0,5.7997,5.7997,5.7997,5.6712,5.4436,5.1022,0.0,0.0,0.0,0.0,0.0,0.0,0.0,0.0,0.0,0.0,0.0,0.0,0.0,0.0,0.0,0.0,0.0,0.0,0.0,0.0,0.0,0.0,0.0,0.0,0.0,0.0,0.0,0.0,0.0,0.0,0.0,0.0,0.0,0.0,0.0,0.0,0.0,0.0,0.0,0.0,0.0,0.0,0.0,0.0,0.0,0.0,0.0,0.0,0.0,0.0,0.0,0.0,0.0,0.0,0.0,0.0,0.0,0.0,0.0,0.0,0.0,0.0,0.0,0.0,0.0,0.0,0.0,0.0,0.0,0.0,0.0,0.0,0.0,0.0,0.0,0.0,0.0,0.0,0.0,0.0,0.0,0.0,0.0,0.0,0.0,0.0,0.0,0.0,0.0,0.0,0.0,0.0,0.0,0.0,0.0,0.0,0.0,0.0,0.0,0.0,0.0,0.0,5.2407,5.4399,5.6161,0.0,5.7997,5.7997,5.7997,5.6565,5.4278,5.1022,0.0,0.0,0.0,0.0,0.0,0.0,0.0,0.0,0.0,0.0,0.0,0.0,0.0,0.0,0.0,0.0,0.0,0.0,0.0,0.0,0.0,0.0,0.0,0.0,0.0,0.0,0.0,0.0,0.0,0.0,0.0,0.0,0.0,0.0,0.0,0.0,0.0,0.0,0.0,0.0,0.0,0.0,0.0,0.0,0.0,0.0,0.0,0.0,0.0,0.0,0.0,0.0,0.0,0.0,0.0,0.0,0.0,0.0,0.0,0.0,0.0,0.0,0.0,0.0,0.0,0.0,0.0,0.0,0.0,0.0,0.0,0.0,0.0,0.0,0.0,0.0,0.0,0.0,0.0,0.0,0.0,0.0,0.0,0.0,0.0,0.0,0.0,0.0,0.0,0.0,0.0,0.0,0.0,0.0,0.0,0.0,0.0,0.0,0.0,0.0,0.0,0.0,5.195,5.5537,5.7997,5.7997,5.7997,5.7997,5.7997,5.506,5.2517,0.0,0.0,0.0,0.0,0.0,0.0,0.0,0.0,0.0,0.0,0.0,0.0,0.0,0.0,0.0,0.0,0.0,0.0,0.0,0.0,0.0,0.0,0.0,0.0,0.0,0.0,0.0,0.0,0.0,0.0,0.0,0.0,0.0,0.0,0.0,0.0,0.0,0.0,0.0,0.0,0.0,0.0,0.0,0.0,0.0,0.0,0.0,0.0,0.0,0.0,0.0,0.0,0.0,0.0,0.0,0.0,0.0,0.0,0.0,0.0,0.0,0.0,0.0,0.0,0.0,0.0,0.0,0.0,0.0,0.0,0.0,0.0,0.0,0.0,0.0,0.0,0.0,0.0,0.0,0.0,0.0,0.0,0.0,0.0,0.0,0.0,0.0,0.0,0.0,0.0,0.0,0.0,0.0,0.0,0.0,0.0,0.0,0.0,0.0,0.0,0.0,0.0,0.0,5.4373,5.7042,5.8866,5.8866,5.8327,5.7997,5.7997,5.6088,5.3702,5.0986,0.0,0.0,0.0,0.0,0.0,0.0,0.0,0.0,0.0,0.0,0.0,0.0,0.0,0.0,0.0,0.0,0.0,0.0,0.0,0.0,0.0,0.0,0.0,0.0,0.0,0.0,0.0,0.0,0.0,0.0,0.0,0.0,0.0,0.0,0.0,0.0,0.0,0.0,0.0,0.0,0.0,0.0,0.0,0.0,0.0,0.0,0.0,0.0,0.0,0.0,0.0,0.0,0.0,0.0,0.0,0.0,0.0,0.0,0.0,0.0,0.0,0.0,0.0,0.0,0.0,0.0,0.0,0.0,0.0,0.0,0.0,0.0,0.0,0.0,0.0,0.0,0.0,0.0,0.0,0.0,0.0,0.0,0.0,0.0,0.0,0.0,0.0,0.0,0.0,0.0,0.0,0.0,0.0,0.0,0.0,0.0,0.0,0.0,0.0,0.0,0.0,0.0,5.5401,5.7997,5.9673,5.9673,5.9245,5.8841,5.851,5.7299,5.506,5.1499,0.0,0.0,0.0,0.0,0.0,0.0,0.0,0.0,0.0,0.0,0.0,0.0,0.0,0.0,0.0,0.0,0.0,0.0,0.0,0.0,0.0,0.0,0.0,0.0,0.0,0.0,0.0,0.0,0.0,0.0,0.0,0.0,0.0,0.0,0.0,0.0,0.0,0.0,0.0,0.0,0.0,0.0,0.0,0.0,0.0,0.0,0.0,0.0,0.0,0.0,0.0,0.0,0.0,0.0,0.0,0.0,0.0,0.0,0.0,0.0,0.0,0.0,0.0,0.0,0.0,0.0,0.0,0.0,0.0,0.0,0.0,0.0,0.0,0.0,0.0,0.0,0.0,0.0,0.0,0.0,0.0,0.0,0.0,0.0,0.0,0.0,0.0,0.0,0.0,0.0,0.0,0.0,0.0,0.0,0.0,0.0,0.0,0.0,0.0,0.0,0.0,0.0,5.5842,5.8657,6.0529,6.0591,6.0493,6.0077,5.9269,5.8474,5.6356,5.2464,0.0,0.0,0.0,0.0,0.0,0.0,0.0,0.0,0.0,0.0,0.0,0.0,0.0,0.0,0.0,0.0,0.0,0.0,0.0,0.0,0.0,0.0,0.0,0.0,0.0,0.0,0.0,0.0,0.0,0.0,0.0,0.0,0.0,0.0,0.0,0.0,0.0,0.0,0.0,0.0,0.0,0.0,0.0,0.0,0.0,0.0,0.0,0.0,0.0,0.0,0.0,0.0,0.0,0.0,0.0,0.0,0.0,0.0,0.0,0.0,5.4473,0.0,0.0,0.0,0.0,0.0,0.0,0.0,0.0,0.0,0.0,0.0,0.0,0.0,0.0,0.0,0.0,0.0,0.0,0.0,0.0,0.0,0.0,0.0,0.0,0.0,0.0,0.0,0.0,0.0,0.0,0.0,0.0,0.0,0.0,0.0,0.0,0.0,0.0,0.0,0.0,0.0,5.9098,6.0529,6.1594,6.2205,6.1141,6.0077,5.9269,5.8474,5.6822,5.4069,5.2391,0.0,0.0,0.0,0.0,0.0,0.0,0.0,0.0,0.0,0.0,0.0,0.0,0.0,0.0,0.0,0.0,0.0,0.0,0.0,0.0,0.0,0.0,0.0,0.0,0.0,0.0,0.0,0.0,0.0,0.0,0.0,0.0,0.0,0.0,0.0,0.0,0.0,0.0,0.0,0.0,0.0,0.0,0.0,0.0,0.0,0.0,0.0,0.0,0.0,0.0,0.0,0.0,0.0,0.0,0.0,0.0,0.0,0.0,0.0,0.0,5.7042,0.0,0.0,0.0,0.0,0.0,0.0,0.0,0.0,0.0,0.0,0.0,0.0,0.0,0.0,0.0,0.0,0.0,0.0,0.0,0.0,0.0,0.0,0.0,0.0,0.0,0.0,0.0,0.0,0.0,0.0,0.0,0.0,0.0,0.0,0.0,0.0,0.0,0.0,0.0,0.0,6.0077,6.1447,6.2511,6.3356,6.2279,6.1215,6.0407,5.9612,5.8107,5.5721,5.4269,0.0,0.0,0.0,0.0,0.0,0.0,0.0,0.0,0.0,0.0,0.0,0.0,0.0,0.0,0.0,0.0,0.0,0.0,0.0,0.0,0.0,0.0,0.0,0.0,0.0,0.0,0.0,0.0,0.0,0.0,0.0,0.0,0.0,0.0,0.0,0.0,0.0,0.0,0.0,0.0,0.0,0.0,0.0,0.0,0.0,0.0,0.0,0.0,0.0,0.0,0.0,0.0,0.0,6.2793,6.3527,6.2952,6.5154,6.5778,6.502,6.2989,6.1704,6.097,6.015,0.0,0.0,0.0,0.0,0.0,0.0,0.0,0.0,0.0,0.0,0.0,0.0,0.0,0.0,0.0,0.0,0.0,0.0,0.0,0.0,0.0,0.0,0.0,0.0,6.6769,6.5999,0.0,0.0,0.0,0.0,0.0,0.0,0.0,0.0,0.0,0.0,0.0,0.0,6.0517,6.2095,6.3319,6.4029,6.3319,6.2462,6.1667,6.1078,5.9849,5.7678,5.662,5.5491,0.0,0.0,0.0,0.0,0.0,0.0,0.0,0.0,0.0,0.0,0.0,0.0,0.0,0.0,0.0,0.0,0.0,0.0,0.0,0.0,0.0,0.0,0.0,0.0,0.0,0.0,0.0,0.0,0.0,0.0,0.0,0.0,5.9795,6.0688,0.0,0.0,0.0,0.0,0.0,0.0,0.0,0.0,0.0,0.0,0.0,0.0,0.0,6.2866,6.4334,6.5228,6.5632,6.5558,6.7283,6.8041,6.7981,6.9009,6.9412,6.9265,6.8972,0.0,6.3552,6.2683,0.0,0.0,0.0,0.0,0.0,0.0,0.0,0.0,0.0,0.0,0.0,0.0,0.0,0.0,0.0,0.0,0.0,0.0,0.0,0.0,0.0,0.0,7.0059,6.9596,7.0059,7.0279,0.0,6.5191,6.1435,5.9049,5.818,0.0,0.0,0.0,0.0,0.0,0.0,0.0,6.2242,6.3319,6.3992,6.4103,6.3319,6.2462,6.1667,6.1929,6.1709,6.0678,6.0219,5.988,5.9662,5.754,0.0,0.0,0.0,0.0,0.0,0.0,0.0,0.0,0.0,0.0,0.0,0.0,0.0,0.0,0.0,0.0,0.0,0.0,0.0,0.0,0.0,0.0,0.0,0.0,0.0,0.0,0.0,0.0,0.0,5.9563,6.1545,6.1006,6.1704,6.1263,0.0,0.0,0.0,0.0,0.0,0.0,0.0,0.0,0.0,6.5338,6.5521,6.5925,6.6623,6.7907,6.8311,6.7871,6.9472,7.0499,7.0954,7.1762,7.2349,7.2789,7.2789,7.1541,6.9279,6.6623,6.4604,6.3123,0.0,0.0,0.0,0.0,6.3759,6.3943,6.5618,6.5925,0.0,6.5485,0.0,0.0,0.0,0.0,0.0,0.0,0.0,0.0,0.0,0.0,7.1454,7.1982,7.2753,7.2995,7.1725,6.9779,6.727,0.0,6.3025,6.1924,5.9281,0.0,0.0,0.0,0.0,6.1667,6.3319,6.4273,6.4787,6.4787,6.4267,6.3595,6.2792,6.2747,6.2632,6.2294,6.1943,6.1785,6.1785,6.0537,5.9116,0.0,0.0,0.0,0.0,0.0,0.0,0.0,0.0,0.0,0.0,0.0,0.0,0.0,0.0,0.0,0.0,0.0,0.0,0.0,0.0,0.0,0.0,0.0,0.0,0.0,0.0,0.0,0.0,6.2205,6.3233,6.1802,6.3417,6.3013,0.0,0.0,0.0,0.0,0.0,0.0,6.5241,6.5338,6.6256,6.8274,6.8728,6.9022,6.9242,7.0403,7.0734,7.0146,7.1564,7.2518,7.3105,7.3744,7.4331,7.4903,7.4903,7.4551,7.3744,7.011,6.7797,6.6499,6.6279,6.5852,6.5485,6.688,6.7026,6.683,6.9082,6.9155,6.8325,6.8348,6.7393,6.5875,6.4016,0.0,0.0,0.0,0.0,6.7086,6.9522,7.116,7.2555,7.3964,7.4918,7.5124,7.3744,7.3266,7.1908,0.0,6.6953,6.5778,6.2511,0.0,0.0,0.0,0.0,6.3209,6.4273,6.5118,6.5448,6.5044,6.4877,6.4551,6.3966,6.3944,6.3938,6.3938,6.4015,6.3975,6.3745,6.3501,6.242,6.039,0.0,0.0,0.0,0.0,0.0,0.0,0.0,0.0,0.0,0.0,0.0,0.0,0.0,0.0,0.0,0.0,0.0,0.0,0.0,0.0,0.0,0.0,0.0,0.0,0.0,0.0,0.0,0.0,0.0,6.5141,6.7834,0.0,0.0,0.0,0.0,6.3919,6.464,6.6132,6.8531,6.8678,7.011,7.3244,7.2642,7.2642,7.3377,7.3501,7.3487,7.345,7.4331,7.472,7.4793,7.483,7.4867,7.4903,7.4903,7.4867,7.4647,7.2151,7.061,6.9779,6.9009,6.8678,6.8752,6.9596,6.9889,7.0073,7.1762,7.1284,7.033,7.262,7.1248,6.8701,6.8554,6.7467,0.0,0.0,6.9229,7.0403,7.2826,7.4074,7.494,7.5799,7.6592,7.6959,7.6093,7.5322,7.3582,0.0,6.8164,6.7333,6.6366,0.0,6.5031,6.4958,6.5705,6.5999,6.5325,6.5925,6.5852,6.4323,6.4556,6.4823,6.483,6.5709,6.6219,6.6219,6.7403,6.7756,6.6917,6.6853,6.6051,6.434,6.2731,0.0,0.0,0.0,0.0,0.0,0.0,0.0,0.0,0.0,0.0,0.0,0.0,0.0,0.0,0.0,0.0,0.0,0.0,0.0,0.0,0.0,0.0,0.0,0.0,0.0,0.0,0.0,0.0,6.7637,6.9545,0.0,6.5558,6.6659,6.749,6.721,6.8408,6.9986,7.1872,7.1982,7.2753,7.4441,7.4169,7.4169,7.4478,7.4478,7.4478,7.4478,7.4757,7.516,7.5689,7.5689,7.5931,7.6445,7.6445,7.6445,7.6335,7.494,7.3597,7.2422,7.2679,7.2459,7.2092,7.2899,7.3193,7.3266,7.3854,7.334,7.2386,7.2202,7.138,7.0353,6.9816,6.9265,6.9045,7.0132,7.0646,7.1321,7.3193,7.4294,7.5087,7.5909,7.6702,7.7069,7.6276,7.5469,7.4463,7.3032,7.127,6.9596,6.8274,6.7834,6.7086,6.5508,6.6439,6.699,6.6182,6.7084,6.7358,6.6295,6.6906,6.7165,6.6691,6.675,6.6863,6.6863,6.6794,6.6859,6.7096,6.7096,6.6827,6.6205,6.5096,6.3288,0.0,0.0,0.0,0.0,0.0,0.0,0.0,0.0,0.0,0.0,0.0,0.0,0.0,0.0,0.0,0.0,0.0,0.0,0.0,0.0,0.0,0.0,0.0,0.0,0.0,6.7834,6.9619,6.9339,7.1417,7.1541,6.8054,6.9669,7.0793,7.055,7.1747,7.3105,7.4441,7.4515,7.4882,7.5674,7.5454,7.5322,7.5322,7.5322,7.5322,7.5307,7.5564,7.6004,7.6481,7.6481,7.6812,7.7289,7.7289,7.7289,7.7252,7.6702,7.5873,7.4955,7.5212,7.4992,7.4551,7.5102,7.5322,7.527,7.4977,7.4735,7.4221,7.2642,7.2298,7.2298,7.1248,7.1101,7.1358,7.1637,7.1894,7.2422,7.3744,7.4698,7.5491,7.6298,7.6922,7.7142,7.6628,7.5858,7.5322,7.5322,7.3597,7.1762,7.0697,7.0513,6.9779,6.7637,6.8238,6.8589,6.7685,6.8358,6.8556,6.765,6.8329,6.8608,6.8098,6.7731,6.7667,6.7975,6.7205,6.6974,6.7513,6.7552,6.7398,6.7096,6.6596,6.5634,6.4211,0.0,0.0,0.0,0.0,0.0,0.0,0.0,0.0,0.0,0.0,0.0,0.0,0.0,0.0,0.0,0.0,0.0,0.0,0.0,0.0,0.0,0.0,0.0,6.7774,6.9889,7.1123,7.0367,7.3744,7.4588,7.066,7.3105,7.4647,7.3832,7.4515,7.5307,7.6093,7.613,7.6497,7.7289,7.6533,7.613,7.613,7.613,7.613,7.6166,7.6922,7.7289,7.7289,7.7289,7.7289,7.7289,7.7289,7.7326,7.7362,7.7326,7.7326,7.7252,7.6445,7.613,7.613,7.613,7.613,7.6019,7.5197,7.5469,7.5836,7.4258,7.4258,7.461,7.3046,7.312,7.356,7.2789,7.3156,7.3927,7.472,7.5542,7.6313,7.7105,7.7289,7.7289,7.7289,7.6665,7.6093,7.613,7.4845,7.378,7.3744,7.3707,7.3156,7.1564,7.1321,0.0,6.9879,6.9776,6.9398,6.8332,6.8662,6.8976,6.9039,6.8697,6.8814,6.9667,6.8891,6.843,6.8468,6.8507,6.8129,6.7327,6.7289,6.7705,6.8468,0.0,0.0,0.0,0.0,0.0,0.0,0.0,0.0,0.0,0.0,0.0,0.0,0.0,0.0,0.0,0.0,0.0,0.0,0.0,0.0,0.0,6.754,6.9463,6.9463,7.2018,7.4023,7.4404,7.5931,7.6298,7.4625,7.5784,7.6298,7.5506,7.6188,7.6738,7.6959,7.6959,7.7069,7.7289,7.7105,7.6959,7.6959,7.6959,7.6959,7.6959,7.7179,7.7289,7.7289,7.7289,7.7289,7.7289,7.7289,7.7656,7.8185,7.7546,7.7656,7.8148,7.7289,7.6959,7.6959,7.6959,7.6959,7.6848,7.6056,7.5909,7.5946,7.4918,7.472,7.483,7.4353,7.439,7.45,7.428,7.439,7.4771,7.5579,7.5946,7.6313,7.7105,7.7289,7.7289,7.7289,7.6665,7.6276,7.6848,7.613,7.5249,7.4661,7.4074,7.334,7.2312,7.2035,0.0,7.0771,7.132,7.1674,7.1405,7.1885,7.2202,7.2209,7.0997,7.0052,6.9706,6.8891,6.893,7.0167,7.0821,7.1321,7.1738,7.1738,7.1245,0.0,0.0,0.0,0.0,0.0,0.0,0.0,0.0,0.0,0.0,0.0,0.0,0.0,0.0,0.0,0.0,0.0,0.0,0.0,0.0,0.0,0.0,7.055,7.2239,7.2569,7.4221,7.5711,7.6533,7.7032,7.7105,7.6628,7.7032,7.7252,7.7157,7.7252,7.7619,7.8332,7.8023,7.7986,7.8332,7.8369,7.8369,7.8369,7.8369,7.8369,7.8369,7.8369,7.8369,7.8369,7.8369,7.8369,7.8369,7.8369,7.8626,7.9066,7.8552,7.8662,0.0,0.0,0.0,0.0,0.0,7.7289,7.7252,7.6775,7.6592,7.6481,7.5652,7.5637,7.5784,7.5087,7.5124,7.5322,7.4977,7.5124,7.5506,7.5983,7.635,7.6702,7.7179,7.7289,7.7289,7.7289,7.6922,7.6738,7.7215,7.6922,0.0,7.6004,7.5455,7.4834,7.4058,7.405,7.3799,7.2832,7.3573,7.3997,7.3532,7.4113,7.4546,7.4546,7.3283,0.0,0.0,0.0,7.0968,7.1937,7.2476,0.0,0.0,0.0,0.0,0.0,0.0,0.0,0.0,7.5353,7.4938,0.0,0.0,0.0,0.0,0.0,0.0,0.0,0.0,0.0,0.0,0.0,0.0,0.0,0.0,0.0,0.0,7.3509,7.5344,7.624,7.6387,7.6644,7.7362,7.7436,7.7472,7.7582,7.7582,7.7913,7.8662,7.8038,7.8206,7.9706,7.9119,0.0,0.0,0.0,7.9816,7.9816,7.9816,7.9816,7.9816,7.9816,7.9816,7.9816,7.9816,7.9816,7.9816,7.9816,7.9853,7.9926,7.9853,7.9816,7.9633,7.806,7.7436,7.7436,7.7362,7.7289,7.7289,7.7289,0.0,0.0,7.646,7.6702,7.7032,7.5601,7.5674,7.6093,7.538,7.5674,7.624,7.624,7.6775,7.7326,7.7436,7.7436,7.7436,7.7436,7.7436,7.7436,7.7326,7.7289,7.7289,7.7289,7.7194,7.6845,7.615,7.6533,7.6552,7.5502,7.6108,7.6246,7.524,0.0,0.0,7.6284,7.5476,7.5284,7.5976,7.4707,7.3969,7.4046,7.4353,7.5553,7.783,7.8061,7.9631,8.2593,8.3678,8.4555,8.517,7.8892,7.7623,0.0,0.0,0.0,0.0,0.0,0.0,0.0,0.0,0.0,0.0,0.0,0.0,0.0,0.0,0.0,7.2936,7.4735,7.6387,7.7892,7.8112,7.8185,7.8332,7.8369,7.8589,7.9265,7.9323,7.9412,7.9559,7.9412,7.9449,7.9779,7.9669,7.9633,7.9816,7.9816,7.9816,7.9816,7.9816,7.9816,7.9816,0.0,0.0,7.9816,7.9816,7.9816,7.9816,7.9816,8.0183,8.0718,8.0073,7.9816,7.9706,7.8736,7.8369,7.8259,7.7546,7.7289,7.7289,7.7289,7.7289,7.7289,7.7105,7.7179,7.7252,7.6922,7.6959,0.0,7.6885,7.6959,7.7069,7.7069,7.7179,7.7472,7.8185,7.8369,7.8369,7.8369,7.8369,7.8148,7.7436,7.7289,7.7289,7.7289,7.7194,7.7031,7.6882,7.7255,7.7446,7.7236,7.7735,7.8008,7.7777,7.7907,7.8023,7.8023,7.7292,7.6553,7.6015,7.6361,7.6868,7.7522,7.9515,8.0823,8.1323,8.2708,8.3747,8.4401,8.6632,8.7795,8.791,8.517,8.4239,0.0,0.0,0.0,0.0,0.0,0.0,0.0,0.0,0.0,0.0,0.0,6.9389,7.0991,0.0,7.4368,7.6438,7.7781,7.8846,7.969,8.0167,8.0094,7.9286,7.9192,7.9507,8.0314,8.0388,8.0718,8.1525,8.1232,8.1358,8.215,8.1819,8.1782,8.2186,8.2186,8.2003,8.1599,8.1599,8.1415,8.0991,8.0991,8.0991,8.0991,8.0991,8.0991,8.0991,8.0991,8.1232,8.1562,8.1158,8.0991,8.0918,8.0131,7.9323,7.8552,7.8112,7.7656,7.7289,7.7289,7.7289,7.7289,7.7289,7.7289,7.7289,7.7289,7.7289,7.7399,7.7839,7.7949,7.8023,7.8442,7.8552,7.8662,7.9103,7.9192,7.9192,7.9192,7.8883,7.8479,7.8023,7.7582,7.7289,7.7289,7.7513,7.7808,7.8129,7.8866,7.9246,7.8816,7.9352,7.9631,7.9208,7.9554,7.9785,7.9785,7.9785,7.9631,7.9169,7.9977,8.0639,8.1023,8.267,8.3785,8.4209,8.5901,8.7017,8.7393,8.9556,9.0594,9.0594,9.0133,8.921,0.0,0.0,0.0,0.0,0.0,0.0,0.0,6.8017,6.8641,7.044,7.1541,7.2899,7.5212,7.6533,7.7892,7.9743,8.0828,8.1525,8.1672,8.237,8.248,8.1321,8.0918,8.1048,8.1856,8.2076,8.2684,8.4005,8.3508,8.3691,8.5013,8.4298,8.4168,8.4792,8.4682,8.4278,8.3638,8.3491,8.3067,8.2443,8.2443,8.2333,8.2186,8.237,8.2333,8.2186,8.2186,8.2186,8.2186,8.2186,8.2186,8.215,8.1489,8.0351,7.9066,7.8883,7.8405,7.7803,7.7803,7.7803,7.7803,7.7803,7.7803,7.7766,7.7582,7.7656,7.7913,7.8442,7.8699,7.8993,7.9633,7.9816,7.989,8.0183,8.0257,8.0257,8.0257,7.9764,7.9213,7.8883,7.8259,7.7729,7.7582,7.8239,7.8831,7.9013,8.0238,8.0849,7.9966,8.0884,8.1208,8.0162,8.0823,8.1323,8.1323,8.2093,8.2554,8.2554,8.3216,8.3601,8.3601,8.4593,8.5517,8.6324,8.8209,8.9594,9.0393,9.2133,9.2979,9.2979,9.3633,9.2672,6.6035,6.6746,6.7884,6.9229,6.9082,7.011,0.0,7.5469,7.4647,7.7011,7.8736,7.947,7.8369,8.0021,8.1379,8.0938,8.2133,8.3381,8.4095,8.4903,8.56,8.6151,8.4939,8.4389,8.5159,8.593,8.639,8.6574,8.65,8.6537,8.6721,8.5967,8.5563,8.5654,8.4976,8.4572,8.4462,8.3748,8.3344,8.3271,8.3271,8.2884,8.2223,8.2957,8.2884,8.2186,8.2186,8.2186,8.2186,8.2186,8.2186,8.2186,8.2113,8.1525,8.0645,7.991,7.9596,7.9522,7.9522,7.9522,7.9522,7.9522,7.9522,7.9412,7.8662,7.8956,7.9412,7.8772,7.9103,7.9706,7.9779,7.9816,8.0147,8.1615,8.1929,8.1929,8.1929,8.1856,8.1379,7.9926,7.9596,7.9302,7.8589,7.9534,7.9985,7.8602,8.0079,8.1051,8.0163,8.1969,8.2716,8.1131,8.167,8.217,8.217,8.2947,8.3447,8.3447,8.3563,8.3601,8.3601,8.5132,8.6363,8.7248,8.9671,9.1364,9.221,9.3912,9.472,9.472,9.4797,9.3912,7.1431,7.1982,7.2275,7.3876,7.4771,7.5946,7.8678,7.8846,7.8883,8.0388,8.1599,8.217,8.1525,8.2994,8.4168,8.3838,8.5159,8.6297,8.6664,8.7399,8.7839,8.7729,8.7545,8.7362,8.7215,8.7509,8.7912,8.8372,8.8409,8.8409,8.8409,8.8078,8.7692,8.7215,8.6885,8.6261,8.5306,8.4976,8.4572,8.4095,8.4095,8.3911,8.3618,8.3948,8.3654,8.2884,8.2406,8.2186,8.2186,8.2186,8.2186,8.2186,8.2186,8.2003,8.1599,8.0791,8.0204,7.9816,7.9816,7.9816,7.9816,7.9816,7.9816,7.9743,7.9412,7.9522,7.9926,8.0534,8.0938,8.1432,8.2333,8.259,8.2774,8.3434,8.3581,8.3471,8.2994,8.292,8.2406,8.0791,8.0498,8.0241,7.9433,7.9787,7.9941,7.9276,8.0517,8.1523,8.1552,8.2407,8.2721,8.1877,8.2554,8.287,8.2324,8.3555,8.4362,8.4362,8.5286,8.5824,8.5824,8.744,8.847,8.8863,9.1364,9.2826,9.321,9.4903,9.5749,9.5749,9.5749,9.5095,7.4441,7.5322,7.5894,7.7326,7.925,8.0828,8.1064,8.1929,8.2774,8.3104,8.3838,8.4262,8.3821,8.5233,8.6371,8.6151,8.7655,8.8867,8.8867,8.9363,8.951,8.894,8.9179,8.9179,8.861,8.872,8.9197,8.9987,9.006,9.006,9.006,8.984,8.9436,8.8867,8.8647,8.7876,8.6481,8.6224,8.571,8.4939,8.4939,8.4792,8.4609,8.4609,8.4278,8.3675,8.2884,8.2517,8.2517,8.2296,8.2186,8.2186,8.2186,8.2186,8.215,8.1782,8.1158,8.0477,8.0734,8.0645,8.055,8.0991,8.0975,8.0791,8.0791,8.0938,8.1321,8.226,8.27,8.3141,8.4315,8.4609,8.4646,8.4866,8.4939,8.4756,8.4205,8.4058,8.3654,8.226,8.2003,8.1672,8.0661,8.0844,8.0991,8.055,8.1568,8.241,8.2375,8.2672,8.2909,8.3022,8.3593,8.3708,8.3054,8.4401,8.5316,8.5555,8.6748,8.7517,8.7748,8.9133,9.0009,9.0239,9.2518,9.3826,9.4057,9.5557,9.6288,9.6288,9.6288,9.5942,7.301,7.4867,7.7436,7.8332,8.0938,8.3491,8.4278,8.5673,8.6591,8.5857,8.6334,8.639,8.4866,8.6518,8.7876,8.7088,8.8959,9.0519,9.0519,9.0555,9.0555,9.0519,8.984,8.94,8.9363,9.006,9.0849,9.1657,9.173,9.173,9.173,9.0996,9.0555,9.0519,8.9767,8.8959,8.8133,8.7362,8.6554,8.5747,8.5747,8.5343,8.4609,8.4609,8.4609,8.4535,8.3711,8.3344,8.3308,8.2517,8.2186,8.2186,8.2186,8.2186,8.2296,8.3051,8.281,8.2223,8.303,8.2774,8.237,8.3948,8.3948,8.3271,8.3271,8.3838,8.4315,8.3564,8.3948,8.4535,8.4609,8.4609,8.4792,8.5563,8.5747,8.5747,8.571,8.571,8.549,8.4646,8.4499,8.3985,8.2406,8.3434,8.3911,8.237,8.3484,8.3833,8.1958,8.2817,8.3893,8.4739,8.4854,8.4854,8.4816,8.5593,8.644,8.7286,8.7363,8.7786,8.8641,8.9479,9.0316,9.1133,9.2826,9.4104,9.4951,9.5865,9.6288,9.6288,9.6288,9.6288,7.6093,7.8112,8.0335,8.2774,8.4609,8.6133,8.7491,8.8189,8.8189,8.6885,8.6371,8.571,8.4078,8.5343,8.6701,8.6941,8.905,9.0812,9.1326,9.1877,9.1657,8.9987,9.0024,8.9767,8.872,8.9326,9.0134,9.0959,9.0996,9.1253,9.1767,9.1546,9.1143,9.0629,9.0317,8.9803,8.8996,8.8739,8.8189,8.7399,8.6848,8.6444,8.617,8.5637,8.538,8.5343,8.4535,8.4205,8.4168,8.3911,8.3801,8.3801,8.3801,8.3801,8.3838,8.4095,8.4022,8.3838,8.4095,8.4022,8.3875,8.4425,8.4425,8.4205,8.4205,8.4389,8.4646,8.4903,8.5196,8.5527,8.604,8.617,8.6261,8.6518,8.6591,8.6444,8.593,8.6224,8.6187,8.4866,8.5013,8.5049,8.3985,8.4242,8.4425,8.3875,8.4605,8.4815,8.3657,8.4264,8.4697,8.4421,8.4404,8.4415,8.4383,8.5553,8.6422,8.6738,8.8197,8.921,8.9479,9.0864,9.1748,9.2056,9.371,9.472,9.4989,9.5865,9.6288,9.6288,9.6288,9.6288,7.8552,8.0424,8.2186,8.5416,8.7068,8.8189,8.951,8.962,8.8959,8.7308,8.6151,8.4866,8.3287,8.4278,8.5747,8.6794,8.905,9.0996,9.2097,9.2464,9.206,9.0427,9.0207,8.9767,8.872,8.9106,8.973,9.0555,9.0886,9.1253,9.1767,9.1803,9.1546,9.1069,9.1033,9.0629,8.984,8.9546,8.8996,8.8206,8.7692,8.7565,8.7822,8.7031,8.6664,8.6591,8.549,8.5013,8.5013,8.4719,8.4609,8.4609,8.4609,8.4609,8.4646,8.4903,8.5013,8.5013,8.5013,8.4829,8.4682,8.527,8.527,8.5086,8.538,8.5453,8.5563,8.6077,8.6224,8.6407,8.7215,8.7435,8.7509,8.7785,8.7638,8.7288,8.6775,8.6848,8.6684,8.5673,8.5894,8.5967,8.5159,8.5013,8.5123,8.5416,8.5807,8.5695,8.4547,8.5221,8.5386,8.4255,8.443,8.4717,8.4921,8.5622,8.6393,8.7246,8.8729,8.9669,8.9937,9.162,9.2633,9.2903,9.4296,9.5143,9.548,9.6326,9.6596,9.6326,9.6596,9.6557,8.0277,8.1782,8.3214,8.6407,8.8335,8.9657,9.0354,8.9913,8.8849,8.7088,8.5527,8.3911,8.226,8.3361,8.5049,8.6611,8.8959,9.1179,9.2868,9.2427,9.1913,9.1877,9.0501,8.9546,8.9473,8.9473,8.9767,9.0555,9.1326,9.1767,9.1803,9.1803,9.1803,9.1803,9.1803,9.1436,9.0665,8.984,8.9069,8.828,8.8206,8.8573,8.9253,8.85,8.8133,8.8059,8.6518,8.5857,8.5783,8.5049,8.4719,8.4719,8.4719,8.4719,8.4829,8.5563,8.5857,8.5857,8.5857,8.5343,8.4976,8.6537,8.6518,8.6004,8.6775,8.6978,8.6978,8.6978,8.7014,8.7234,8.7986,8.8243,8.8426,8.9179,8.8757,8.8206,8.8206,8.7582,8.7014,8.7051,8.7014,8.6775,8.5967,8.5857,8.6114,8.6885,8.6978,8.6401,8.4674,8.5664,8.5888,8.4381,8.4858,8.556,8.6247,8.5818,8.6452,8.8716,8.8896,8.9288,9.0138,9.1653,9.283,9.3637,9.4521,9.5367,9.6213,9.702,9.702,9.628,9.702,9.6982,8.281,8.4719,8.6407,8.905,9.0005,9.017,8.9803,8.9069,8.7545,8.4132,8.2627,8.1232,7.8977,8.1362,8.4042,8.5049,8.8243,9.1179,9.2868,9.3418,9.3418,9.2831,9.2427,9.1693,9.0427,9.028,9.0391,9.0592,9.0812,9.1179,9.1767,9.1803,9.1803,9.1803,9.1803,9.1693,9.151,9.0702,8.9877,8.9069,8.85,8.7986,8.7601,8.7381,8.7325,8.7288,8.6885,8.6701,8.6701,8.6464,8.6407,8.6407,8.6407,8.6407,8.639,8.6628,8.6701,8.6701,8.6701,8.6554,8.6537,8.7582,8.7362,8.6738,8.6958,8.6978,8.6978,8.6978,8.7435,8.7949,8.8133,8.8629,8.8996,8.861,8.8353,8.8206,8.8206,8.7582,8.7161,8.7766,8.7435,8.6904,8.6738,8.6701,8.6775,8.6978,8.6978,8.6623,8.557,8.5228,8.4965,8.4558,8.4151,8.4228,8.4999,8.5945,8.7033,8.8228,8.8781,8.9692,9.1066,9.1571,9.2201,9.3024,9.3871,9.4453,9.4642,9.5464,9.5768,9.5578,9.5768,9.5768,8.4792,8.6591,8.8023,9.0078,9.0317,8.9657,8.8169,8.6371,8.3985,8.0277,7.9176,7.8222,7.613,7.9344,8.272,8.3895,8.7455,9.0904,9.3308,9.4006,9.4263,9.4153,9.3859,9.3125,9.184,9.1693,9.1546,9.1179,9.1143,9.1326,9.1767,9.1803,9.1803,9.1803,9.1803,9.162,9.1289,9.0849,9.0354,8.9913,8.9491,8.9197,8.9087,8.8372,8.8042,8.8005,0.0,8.7198,8.7509,8.7124,8.7198,8.7509,8.7124,8.6978,8.6978,8.6978,8.6978,8.7051,8.7399,8.7325,8.7051,8.7545,8.7362,8.6978,8.6978,8.6978,8.6978,8.6978,8.7325,8.7766,8.8096,8.8536,8.8923,8.9197,8.872,8.839,8.9087,8.8096,8.7124,8.7582,8.7325,8.6978,8.6978,8.6978,8.6978,8.6978,8.6978,8.6848,8.6371,8.5637,8.4866,8.4168,8.3968,8.4207,8.4981,8.5884,8.692,8.8039,8.8783,8.9597,9.0521,9.1572,9.2353,9.2778,9.3673,9.4102,9.4102,9.4894,9.5121,9.4767,9.5121,9.5121,8.6591,8.7986,8.8867,9.0262,8.9913,8.8592,8.604,8.2994,7.98,7.6607,7.5873,7.5395,7.4111,7.7671,8.1452,8.3271,8.6757,9.0427,9.3822,9.4299,9.463,9.5528,9.496,9.4189,9.3492,9.3308,9.2941,9.217,9.2134,9.2024,9.1803,9.1803,9.1803,9.1803,9.1803,9.1473,9.0776,9.0776,9.0702,9.0592,9.0592,9.0922,9.1436,9.0024,8.94,8.9326,8.7932,8.7729,8.8316,8.7601,8.7711,8.828,8.7472,8.7198,8.7308,8.7198,8.7234,8.7418,8.8133,8.7912,8.7308,8.7198,8.7178,8.7124,8.7014,8.7051,8.7124,8.7014,8.7088,8.7308,8.8023,8.828,8.8683,8.9968,8.9234,8.861,9.0115,8.8886,8.7455,8.7344,8.7234,8.7198,8.7308,8.7234,8.7198,8.7308,8.7234,8.7178,8.7178,8.6371,8.527,8.3858,8.4352,8.4997,8.5566,8.5828,8.6635,8.8189,8.8831,8.9314,8.9633,9.1477,9.2561,9.2674,9.3417,9.3807,9.3807,9.4724,9.48,9.4146,9.4837,9.48,8.9124,9.0078,9.0262,9.0519,8.9491,8.7619,8.4519,8.1342,7.8259,7.5637,7.4588,7.4221,7.4625,7.7598,8.0975,8.3911,8.6664,8.9784,9.3749,9.4299,9.485,9.6318,9.5768,9.5235,9.5088,9.4483,9.4042,9.3859,9.3859,9.3272,9.1877,9.1803,9.1803,9.1803,9.1803,9.173,9.1583,9.1583,9.1253,9.0592,9.0592,9.0317,8.9803,8.9546,8.94,8.9363,8.9106,0.0,8.9179,8.9033,8.9069,8.9106,8.8316,8.839,8.8886,8.8243,8.8409,8.8996,8.9143,8.9106,8.8886,8.8206,8.7986,8.7876,8.7198,8.7472,8.7839,8.7215,8.7472,8.8023,8.8169,8.8666,8.9069,8.872,8.839,8.8463,8.94,8.9803,8.9767,8.9106,8.8463,8.8206,8.8886,8.8426,8.8206,8.8886,8.8409,8.7986,8.7986,8.6701,8.569,8.5416,8.549,8.5631,8.5762,8.6383,8.745,8.9077,8.8689,8.9295,9.1265,9.1129,9.1289,9.1953,9.2118,9.2192,9.2192,9.3742,9.4407,9.4278,9.4407,9.4407,8.9968,9.0592,9.0592,9.0592,8.8757,8.5894,8.1819,7.8699,7.5763,7.2445,7.2789,7.367,7.367,7.7011,8.033,8.1856,8.4132,8.7142,9.1179,9.2097,9.3308,9.5768,9.6098,9.6135,9.6135,9.5401,9.4923,9.4923,9.452,9.3932,9.3125,9.2684,9.2464,9.2464,9.2024,9.1803,9.1803,9.1803,9.162,9.1216,9.1216,9.1033,9.0629,9.0207,9.0024,8.9987,8.9583,8.9657,8.9987,8.9583,8.9657,8.995,8.9143,8.9069,8.9363,8.8959,8.9069,8.94,8.94,8.94,8.9326,8.8959,8.8536,8.8133,8.7729,8.7619,8.7582,8.7619,8.7912,8.8316,8.872,8.9106,8.94,8.9454,8.9784,8.9968,8.951,9.0024,9.0354,8.9546,8.9069,8.8959,8.9326,8.9069,8.8959,8.9326,8.9069,8.8812,8.8812,8.8169,8.7178,8.593,8.6554,8.6885,8.6444,8.7528,8.8592,8.9363,8.9436,8.9968,9.1143,9.1216,9.14,9.1803,9.2244,9.2464,9.2464,9.3712,9.4299,9.4299,9.3859,9.3675,8.999,9.0649,9.0721,9.01,8.7718,8.4282,7.9425,7.6251,7.3345,6.987,7.126,7.3112,7.3054,7.6313,7.9302,8.0183,8.2039,8.4849,8.9069,9.0501,9.2244,9.5161,9.6208,9.6759,9.6942,9.6392,9.6098,9.6262,9.5547,9.4777,9.4079,9.3455,9.3015,9.2831,9.217,9.1803,9.1803,9.1803,9.1803,9.1803,9.1803,9.1803,9.1767,9.1143,9.0849,9.0812,9.017,9.028,9.0812,9.017,9.028,9.0776,8.995,8.9767,8.9877,8.973,8.9767,8.9913,8.9913,8.9913,8.9913,8.9913,8.9381,8.8647,8.8316,8.7876,8.7601,8.8059,8.8206,8.839,8.9179,8.94,8.9546,9.017,9.0959,9.1216,8.9913,9.028,9.0665,9.0024,8.9767,8.9693,8.9877,8.9767,8.973,8.9877,8.9767,8.9657,8.9657,8.9657,8.8849,8.6775,8.7692,8.8206,8.7565,8.8666,8.9473,8.9657,9.0244,9.0702,9.0849,9.1473,9.1877,9.206,9.2758,9.3198,9.3345,9.4153,9.4556,9.452,9.3896,9.3529,8.9445,9.0855,9.107,8.852,8.6283,8.3414,7.8472,7.4849,7.2035,7.0258,7.0676,7.2003,7.4271,7.5652,7.7671,8.1379,8.2774,8.5069,8.9803,9.1877,9.3529,9.5272,9.6208,9.6979,9.7713,9.7713,9.797,9.8685,9.8007,9.6282,9.3382,9.3125,9.2758,9.195,9.184,9.1803,9.1803,9.1803,9.1803,9.1803,9.1803,9.1803,9.1803,9.173,9.1693,9.1693,9.162,9.162,0.0,9.162,9.162,9.162,9.0812,9.0959,9.1473,9.0776,9.0959,9.1583,9.1583,9.1583,9.1583,9.1583,9.1033,9.0115,8.8647,8.8666,8.9033,8.839,8.8206,8.839,8.9179,8.94,8.9436,8.9473,9.0097,9.0665,9.0519,9.1106,9.1657,9.1583,9.0996,9.0739,9.1436,9.0959,9.0739,9.1473,9.0959,9.0482,9.0482,9.0482,9.0097,8.9179,8.9216,8.9253,8.9179,8.9326,8.9693,9.0427,9.0537,9.0922,9.1657,9.1767,9.217,9.2978,9.3051,9.3455,9.4189,9.4997,9.5382,9.5382,9.5308,9.4887,8.765,8.9446,8.9916,8.6742,8.4802,8.225,7.6714,7.3726,7.1705,7.0242,7.1344,7.285,7.3808,7.5572,7.7171,7.8168,7.9133,8.0922,8.4352,8.6224,8.8556,9.2134,9.3712,9.5437,9.7696,9.7916,9.8007,9.8337,9.7199,9.5694,9.3932,9.3822,9.3455,9.2611,9.206,9.1803,9.1803,9.1803,9.1803,9.1803,9.1803,9.1803,9.1803,9.1803,9.1803,9.1803,9.1803,9.1803,0.0,9.1803,9.1803,9.1767,9.1436,9.151,9.1767,9.1436,9.1546,9.1803,9.1803,9.1803,9.1803,9.1803,9.1583,9.1106,9.0005,8.951,8.9436,8.9601,8.9638,8.9821,9.0629,9.0849,9.0849,9.0849,9.1106,9.1326,9.1326,9.1583,9.1803,9.1803,9.1546,9.1436,9.173,9.1546,9.1436,9.173,9.1546,9.1326,9.1326,9.1326,9.1216,9.0886,9.0849,9.0665,9.017,9.0592,9.0996,9.1289,9.1326,9.1473,9.1803,9.2281,9.2758,9.3088,9.4042,9.4703,9.5034,9.5841,9.6208,9.6208,9.5712,9.5308,8.4987,8.7165,8.8025,8.4757,8.3081,8.0763,7.5183,7.2884,7.1433,6.9718,7.1281,7.3134,7.3649,7.5455,7.6817,7.664,7.7425,7.8904,8.1362,8.3308,8.5913,8.9767,9.173,9.3896,9.6906,9.7823,9.8154,9.7897,9.6649,9.5401,9.4336,9.4079,9.3565,9.2758,9.2134,9.1803,9.1803,9.1803,9.1803,9.1803,9.1803,9.1803,9.1803,9.1803,9.1803,9.1803,9.1803,9.1803,0.0,9.1803,9.1803,9.1803,9.1803,9.1803,9.1803,9.1803,9.1803,9.1803,9.1803,9.1803,9.1803,9.1803,9.1803,9.1693,9.1143,9.0391,8.9877,9.0427,9.0776,9.1106,9.1657,9.1803,9.1803,9.1803,9.1803,9.1803,9.1803,9.1803,9.1803,9.1803,9.1803,9.1803,9.1803,9.1803,9.1803,9.1803,9.1803,9.1803,9.1803,9.1803,9.1803,9.1803,9.1803,9.1583,9.0996,9.1693,9.217,9.217,9.2391,9.2537,9.2537,9.3125,9.3565,9.3822,9.518,9.5859,9.5859,9.6649,9.7052,9.7052,9.6245,9.5712,8.1447,8.4019,8.5371,8.2627,8.1077,7.8978,7.4118,7.2331,7.1015,6.8713,7.0065,7.2298,7.4237,7.5265,7.6417,7.8264,7.925,8.0608,8.3051,8.5436,8.7565,8.9216,9.0849,9.2794,9.5272,9.7694,9.8778,9.7953,9.7163,9.5988,9.4373,9.3565,9.2721,9.184,9.1803,9.1803,9.1803,9.1803,9.1803,9.1803,9.1803,9.1803,9.1803,9.1803,9.1803,9.1803,9.1803,9.1803,0.0,9.1803,9.1803,9.1803,9.1803,9.1803,9.1803,9.1803,9.1803,9.1803,9.1803,9.1803,9.1803,9.1803,9.1803,9.1803,9.1803,9.1216,9.0592,9.0592,9.1179,9.1803,9.1803,9.1803,9.1803,9.1803,9.1803,9.1803,9.1803,9.1803,9.1803,9.1803,9.1803,9.1803,9.1803,9.1803,9.1803,9.1803,9.1803,9.1803,9.1803,9.1803,9.1803,9.1803,9.1803,9.1803,9.1803,9.2574,9.3088,9.3088,9.3822,9.4263,9.4263,9.4263,9.4666,9.5455,9.6282,9.6685,9.6685,9.7493,9.7897,9.7879,9.7052,9.6282,7.647,7.8912,8.0245,7.6965,7.6515,7.5854,7.1983,7.0853,7.0499,6.9915,7.0822,7.2076,7.3327,7.4223,7.5491,7.7643,7.8908,8.0181,8.1943,8.4473,8.6995,8.9143,9.2794,9.5658,9.7016,9.7346,9.7346,9.7089,9.6318,9.518,9.3565,9.3235,9.2721,9.184,9.1803,9.1803,9.1803,9.1803,9.1803,9.1803,9.1803,9.1803,9.1803,9.1803,9.1803,9.1803,9.1803,9.1803,9.1803,9.1803,9.1803,9.1803,9.1803,9.1803,9.1803,9.1803,9.1803,9.1803,9.1803,9.1803,9.1803,9.1803,9.1803,9.1803,9.1803,9.162,9.1436,9.1436,9.1583,9.1803,9.1803,9.1803,9.1803,9.1803,9.1803,9.1803,9.1803,9.1803,9.1803,9.1803,9.1803,9.1803,9.1803,9.1803,9.1803,9.1803,9.1803,9.1803,9.1803,9.1803,9.1803,9.1803,9.1803,9.1803,9.1803,9.2611,9.3088,9.3088,9.3859,9.4299,9.4299,9.5364,9.6061,9.6318,9.764,9.8337,9.8337,9.8594,9.8447,9.7879,9.7052,9.6575,7.2462,7.4798,7.6175,7.3707,7.3661,7.3498,7.0822,7.0398,7.0563,7.042,7.1013,7.185,7.2796,7.3397,7.4323,7.6101,7.7271,7.8708,8.0964,8.3284,8.6005,8.9437,9.3382,9.5988,9.6465,9.6649,9.6685,9.6685,9.5951,9.4923,9.3639,9.3272,9.2721,9.184,9.1803,9.1803,9.1803,9.1803,9.1803,9.1803,9.1803,9.1803,9.1803,9.1803,9.1803,9.1803,9.1803,9.1803,0.0,9.1803,9.1803,9.1803,9.1803,9.1803,9.1803,9.1803,9.1803,9.1803,9.1803,9.1803,9.1803,9.1803,9.1803,9.1803,9.1803,9.1803,9.1803,9.1803,9.1803,9.1803,9.1803,9.1803,9.1803,9.1803,9.1803,9.1803,9.1803,9.1803,9.1803,9.1803,9.1803,9.1803,9.1803,9.1803,9.1803,9.1803,9.1803,9.1803,9.1803,9.1803,9.1803,9.1803,9.1803,9.1913,9.2244,9.3051,9.3565,9.3565,9.4593,9.5327,9.5658,9.6612,9.7309,9.7603,9.8888,9.9402,9.9108,9.9108,9.8704,9.7897,9.7383,9.6979,0.0,7.1503,7.2902,7.2191,7.209,7.1819,7.0432,7.0737,0.0,7.0398,7.0838,7.1634,7.2762,7.2866,7.3195,7.4412,7.5317,7.7034,8.044,8.252,8.5517,9.03,9.2941,9.441,9.4446,9.5768,9.6612,9.6612,9.5988,9.518,9.4263,9.3565,9.2758,9.184,9.1803,9.1803,9.1803,9.1803,9.1803,9.1803,9.1803,9.1803,9.1803,9.1803,9.1803,0.0,9.1803,9.1803,9.1803,9.1803,9.1803,9.1803,9.1803,9.1803,9.1803,9.1803,9.1803,9.1803,9.1803,9.1803,9.1803,9.1803,9.1803,9.1803,9.1803,9.1803,9.1803,9.1803,9.1803,9.1803,9.1803,9.1803,9.1803,9.1803,9.1803,9.1803,9.1803,9.1803,9.1803,9.1803,9.1803,9.1803,9.1803,9.1803,9.1803,9.1803,9.1803,9.1803,9.1877,9.184,9.1803,9.1877,9.1877,9.2207,9.3015,9.3822,9.4299,9.4373,9.5914,9.7126,9.7879,9.8026,9.8411,9.9181,9.9989,9.9989,9.9181,9.9145,9.8704,9.7916,9.7843,9.7419,6.732,0.0,6.9045,6.8301,6.9011,6.9789,0.0,7.0364,7.1255,7.1075,7.1176,7.1974,7.4101,7.3573,7.383,7.6937,7.9072,8.1004,8.274,8.7464,9.1381,9.3216,9.4483,9.5474,9.6098,9.5914,9.5804,9.5804,9.6171,9.5547,9.3492,9.3786,9.3345,9.184,9.1803,9.1803,9.1803,9.1803,9.1803,9.1803,9.1803,9.1803,9.1803,9.1803,9.1803,9.1803,9.1803,9.1803,9.1803,9.1803,9.1803,9.1803,9.1803,9.1803,9.1803,9.1803,9.1803,9.1803,9.1803,9.1803,9.1803,9.1803,9.1803,9.1803,9.1803,9.1803,9.1803,9.1803,9.1803,9.1803,9.1803,9.1803,9.1803,9.1803,9.1803,9.1803,9.1803,9.1803,9.1803,9.1803,9.1803,9.1803,9.1803,9.1803,9.1803,9.1803,9.1803,9.2024,9.2721,9.2207,9.206,9.2721,9.2794,9.2868,9.3088,9.3822,9.4556,9.518,9.6722,9.7676,9.7897,9.9071,9.9805,9.9989,10.0796,10.0796,9.9989,9.9402,9.8704,9.7897,9.7273,9.6869,6.7218,6.8098,6.8944,6.8876,6.9755,7.0601,7.0601,7.0973,7.1289,7.1289,7.1289,7.1694,7.3052,7.3636,7.4572,7.6608,7.9604,8.2626,8.5228,9.0243,9.3675,9.3749,9.5107,9.6098,9.6135,9.6098,9.6061,9.6061,9.6465,9.5804,9.3749,9.4042,9.3529,9.184,9.1803,9.1803,9.1803,9.1803,9.1803,9.1803,9.1803,9.1803,9.1803,9.1803,9.1803,9.1803,9.1803,9.1803,9.1803,9.1803,9.1803,9.1803,9.1803,9.1803,9.1803,9.1803,9.1803,9.1803,9.1803,9.1803,9.1803,9.1803,9.1803,9.1803,9.1803,9.1803,9.1803,9.1803,9.1803,9.1803,9.1803,9.1803,9.1803,9.1803,9.1803,9.1803,9.1803,9.1803,9.1803,9.1803,9.1803,9.1803,9.1803,9.1803,9.1803,9.1803,9.1803,9.195,9.2427,9.2097,9.2134,9.3015,9.3088,9.3418,9.4153,9.4593,9.5034,9.5455,9.6649,9.7676,9.8411,9.9292,10.0099,10.0796,10.1294,10.109,10.0283,9.9512,9.8888,9.8411,9.764,9.7456,6.8335,6.9688,7.1007,7.0973,7.1785,7.2462,7.2124,7.1684,7.1289,7.1289,7.1289,7.1526,7.2293,7.4019,7.5537,7.6149,7.9508,8.3483,8.764,9.1631,9.3859,9.3198,9.4997,9.6061,9.5382,9.6061,9.6539,9.6539,9.6649,9.6061,9.4556,9.4373,9.3602,9.206,9.1877,9.1803,9.1803,9.1803,9.1803,9.1803,9.1803,9.1803,9.1803,9.1803,9.1803,9.1803,0.0,0.0,9.1803,9.1803,9.1803,9.1803,9.1803,9.1803,9.1803,9.1803,9.1803,9.1803,9.1803,9.1803,9.1803,9.1803,9.1803,9.1803,9.1803,9.1803,9.1803,9.1803,9.1803,9.1803,9.1803,9.1803,9.1803,9.1803,9.1803,9.1803,9.1803,9.1803,9.1803,9.1803,9.1803,9.1803,9.1803,9.1803,9.1803,9.1803,9.1803,9.184,9.1987,9.1877,9.217,9.3198,9.3272,9.3896,9.5345,9.5602,9.5675,9.5675,9.6428,9.7603,9.9218,9.9292,9.9989,10.1514,10.1514,10.098,10.0099,9.9548,9.9181,9.8924,9.8337,9.8447,7.0263,7.2766,7.3984,7.0364,7.1379,7.2834,7.0939,7.0939,7.1289,7.1289,7.1289,7.2586,7.6807,7.6682,7.7059,8.0407,8.2875,8.5724,8.9641,9.1969,9.3235,9.3125,9.4042,9.463,9.4483,9.5217,9.5675,9.5675,9.6318,9.6282,9.5364,9.4666,9.3859,9.2941,9.217,9.1803,9.1803,9.1803,9.1803,9.1803,9.1803,9.1803,9.1803,9.1803,9.1803,9.1803,0.0,9.1803,9.1803,9.1803,9.1803,9.1803,9.1803,9.1803,9.1803,9.1803,9.1803,9.1803,9.1803,9.1803,9.1803,9.1803,9.1803,9.1803,9.1803,9.1803,9.1803,9.1803,9.1803,9.1803,9.1803,9.1803,9.1803,9.1803,9.1803,9.1803,9.1803,9.1803,9.1803,9.1803,9.1803,9.1803,9.1803,9.1803,9.1803,9.1803,9.1803,9.206,9.2831,9.2244,9.2391,9.3932,9.4116,9.4483,9.5418,9.6135,9.6539,9.6539,9.7273,9.8447,9.9989,10.0099,10.0596,10.1514,10.1514,10.0796,9.9292,9.9842,9.9402,9.808,9.8668,9.8998,6.9823,7.2834,7.5134,7.2699,7.4787,7.7239,7.6426,7.5846,7.5342,7.4741,7.4586,7.5438,7.8187,7.9207,8.1155,8.5877,8.7417,8.873,9.096,9.2317,9.3088,9.3088,9.4189,9.496,9.496,9.5694,9.6171,9.6171,9.6502,9.6355,9.5528,9.5144,9.4373,9.3125,9.2721,9.2281,9.1803,9.1803,9.1803,9.1803,9.1803,9.1803,9.1803,9.1803,9.1803,9.1803,0.0,9.1803,9.1803,9.1803,9.1803,9.1803,9.1803,9.1803,9.1803,9.1803,9.1803,9.1803,9.1803,9.1803,9.1803,9.1803,9.1803,9.1803,9.1803,9.1803,9.1803,9.1803,9.1803,9.1803,9.1803,9.1803,9.1803,9.1803,9.1803,9.1803,9.1803,9.1803,9.1803,9.1803,9.1803,9.1803,9.1803,9.1803,9.1803,9.1803,9.2207,9.2648,9.3051,9.3125,9.3602,9.4813,9.496,9.529,9.6098,9.6502,9.6685,9.6685,9.7456,9.8246,9.8961,9.9842,10.0283,10.0209,10.111,10.0503,9.8447,9.9695,9.9695,9.8557,9.9365,9.9769,6.9722,7.2462,7.5205,7.5238,7.7445,7.9832,8.0809,7.9714,7.8442,7.8411,7.8227,7.8471,7.9666,8.1958,8.4987,8.9134,9.017,9.0868,9.195,9.2501,9.2941,9.3345,9.4483,9.5217,9.5217,9.6135,9.6612,9.6428,9.6575,9.6355,9.5528,9.5308,9.4593,9.3161,9.2905,9.2464,9.1803,9.1803,9.1803,9.1803,9.1803,9.1803,9.1803,9.1803,9.1803,9.1803,9.1803,9.1803,9.1803,9.1803,9.1803,9.1803,9.1803,9.1803,9.1803,9.1803,9.1803,9.1803,9.1803,9.1803,9.1803,9.1803,9.1803,9.1803,9.1803,9.1803,9.1803,9.1803,9.1803,9.1803,9.1803,9.1803,9.1803,9.1803,9.1803,9.184,9.206,9.195,9.1913,9.2317,9.206,9.184,9.206,9.195,9.1803,9.1803,9.2354,9.2868,9.3088,9.3639,9.441,9.5382,9.5492,9.5822,9.6649,9.6685,9.6795,9.6979,9.7383,9.7787,9.8154,9.9181,9.9695,9.9659,10.0686,10.0283,9.8447,9.9695,9.9879,9.9125,9.9916,10.0283,7.1616,7.2868,7.4217,7.6625,7.6634,7.6716,7.9323,7.8198,7.7481,8.0641,8.0699,8.0835,8.3011,8.5279,8.6917,8.7283,8.8894,9.0793,9.2738,9.2354,9.2464,9.4006,9.4299,9.4373,9.4373,9.5804,9.6392,9.5639,9.6282,9.6355,9.5528,9.4777,9.3969,9.3125,9.2317,9.184,9.1803,9.1803,9.1803,9.1803,9.1803,9.1803,9.1803,9.1803,9.1803,9.1803,9.1803,9.1803,9.1803,9.1803,9.1803,9.1803,9.1803,9.1803,9.1803,9.1803,9.1803,9.1803,9.1803,9.1803,9.1803,9.1803,9.1803,9.1803,9.1803,9.1803,9.1803,9.1803,9.1803,9.1803,9.1803,9.1803,9.1803,9.1803,9.1803,9.2024,9.2831,9.2354,9.2244,9.3822,9.2868,9.206,9.2868,9.2354,9.1803,9.1803,9.184,9.217,9.3015,9.3161,9.3786,9.5308,9.5492,9.5822,9.6649,9.6685,9.7016,9.775,9.7163,9.7456,9.8961,9.8411,9.9108,10.1294,10.0686,10.0283,10.0099,10.0209,9.9879,9.9125,9.9916,10.0283,7.0804,7.3468,7.6059,7.6279,7.7296,7.9127,8.2569,8.3015,8.3183,8.4698,8.5401,8.5596,8.5224,8.7434,8.905,8.8331,8.9877,9.1596,9.2922,9.2831,9.3198,9.485,9.507,9.5254,9.5731,9.6355,9.6575,9.6282,9.6539,9.6355,9.5528,9.5217,9.4446,9.3125,9.2794,9.2354,9.1803,9.1803,9.1803,9.1803,9.1803,9.1803,9.1803,9.1803,9.1803,9.1803,9.1803,9.1803,9.1803,9.1803,9.1803,9.1803,9.1803,9.1803,9.1803,9.1803,9.1803,9.1803,9.1803,9.1803,9.1803,9.1803,9.1803,9.1803,9.1803,9.1803,9.1803,9.1803,9.1803,9.1913,9.2464,9.2207,9.195,9.2464,9.217,9.1877,9.2207,9.2024,9.1987,9.2611,9.2244,9.1913,9.2244,9.2024,9.1803,9.1803,9.2244,9.2905,9.3749,9.4299,9.5034,9.6135,9.6245,9.6392,9.6685,9.6685,9.7052,9.7843,9.7603,9.7933,9.9071,9.9292,9.9585,9.9989,10.0686,10.0596,9.9548,10.0099,9.9879,9.9125,9.9916,9.9989,7.077,7.333,7.5899,7.6048,7.7765,8.0544,8.4727,8.5898,8.6648,8.8607,8.8649,8.7977,8.6751,8.7973,8.9091,8.8919,9.075,9.2501,9.3345,9.3492,9.3969,9.5345,9.5492,9.5712,9.6282,9.6539,9.6575,9.6355,9.6575,9.6135,9.4794,9.496,9.4373,9.2758,9.2684,9.2391,9.1803,9.1803,9.1803,9.1803,9.1803,9.1803,9.1803,9.1803,9.1803,9.1803,9.1803,9.1803,9.1803,9.1803,9.1803,9.1803,9.1803,9.1803,9.1803,9.1803,9.1803,9.1803,9.1803,9.1803,9.1803,9.1803,9.1803,9.1803,9.1803,9.1803,9.1803,9.1803,9.1803,9.1987,9.2868,9.2464,9.2024,9.2905,9.2648,9.2281,9.2537,9.2391,9.2281,9.2537,9.217,9.1877,9.217,9.1987,9.1803,9.1803,9.2317,9.3088,9.4153,9.4777,9.5621,9.6942,9.7309,9.7456,9.7456,9.7456,9.7787,9.8594,9.8668,9.8888,9.9475,9.9769,9.9916,9.9879,10.0686,10.0576,9.9475,9.9769,9.9659,9.9108,9.9659,9.9769,7.1988,7.2394,7.3161,7.6173,7.7823,8.0054,8.4972,8.5536,8.6546,9.1982,8.9949,8.7322,8.7665,8.6811,8.6667,8.859,9.126,9.3382,9.4189,9.4299,9.4593,9.5418,9.5492,9.5492,9.5492,9.6245,9.6392,9.5565,9.6245,9.5658,9.3235,9.3859,9.3529,9.184,9.1803,9.1803,9.1803,9.1803,9.1803,9.1803,9.1803,9.1803,9.1803,9.1803,9.1803,9.1803,9.1803,9.1803,9.1803,9.1803,9.1803,9.1803,9.1803,9.1803,9.1803,9.1803,9.1803,9.1803,9.1803,9.1803,9.1803,9.1803,9.1803,9.1803,9.1803,9.1803,9.1803,9.1803,9.1803,9.1987,9.2868,9.2464,9.2024,9.2905,9.3088,9.3308,9.4116,9.3639,9.3308,9.4116,9.2941,9.206,9.2941,9.2354,9.1803,9.1803,9.1803,9.2391,9.4079,9.4299,9.5217,9.7622,9.8631,9.9088,9.9088,9.9088,9.9438,10.0209,10.0283,10.0283,10.0283,9.9548,9.9879,10.1514,10.0686,10.0283,10.0283,9.9512,9.9108,9.9108,9.9108,9.9548,7.1785,7.3739,7.6201,7.7109,8.0216,8.3812,8.6645,8.69,8.7572,9.108,9.0403,8.9045,8.8598,8.8921,8.9166,8.8919,9.075,9.2684,9.4079,9.4299,9.4813,9.6171,9.6355,9.6135,9.5528,9.6245,9.6392,9.5565,9.5712,9.529,9.4006,9.3639,9.2941,9.184,9.1803,9.1803,9.1803,9.1803,9.1803,9.1803,9.1803,9.1803,9.1803,9.1803,9.1803,9.1803,9.1803,9.1803,9.1803,9.1803,9.1803,9.1803,9.1803,9.1803,9.1803,9.1803,9.1803,9.1803,9.1803,9.1803,9.1803,9.1803,9.1803,9.1803,9.1803,9.1803,9.1803,9.1803,9.1803,9.184,9.2134,9.1987,9.2024,9.2905,9.3088,9.3015,9.2611,9.2354,9.2244,9.2501,9.2134,9.1877,9.2134,9.195,9.1803,9.1803,9.1803,9.2391,9.4079,9.529,9.6245,9.6979,9.7787,9.8264,9.8264,9.8264,9.8851,10.0209,9.9769,9.9952,10.109,10.0907,10.098,10.1514,10.1294,10.0927,10.0283,9.9512,9.9108,9.9108,9.9108,9.9548,7.3713,7.6131,7.8663,7.9647,8.2841,8.611,8.7406,8.8648,9.0017,9.1671,9.0943,9.0023,9.0059,8.9981,8.9929,9.0029,9.1324,9.2684,9.3675,9.4373,9.5034,9.5658,9.6318,9.6392,9.5565,9.6245,9.6392,9.5565,9.5492,9.5034,9.3859,9.3345,9.2721,9.184,9.1803,9.1803,9.1803,9.1803,9.1803,9.1803,9.1803,9.1803,9.1803,9.1803,9.1803,9.1803,9.1803,9.1803,9.1803,9.1803,9.1803,9.1803,9.1803,9.1803,9.1803,9.1803,9.1803,9.1803,9.1803,9.1803,9.1803,9.1803,9.1803,9.1803,9.1803,9.1803,9.1803,9.1803,9.1803,9.1803,9.1803,9.206,9.2464,9.2978,9.3088,9.2978,9.2427,9.2317,9.2207,9.1877,9.1803,9.1803,9.1803,9.1803,9.1913,9.2244,9.2868,9.3639,9.4666,9.6171,9.7163,9.7163,9.7897,9.8374,9.8374,9.8374,9.8924,10.0209,9.9842,10.0209,10.1384,10.1514,10.131,10.098,10.131,10.0816,9.9328,9.9512,9.9402,9.9108,9.9438,9.9989,7.6589,7.871,8.0339,8.293,8.5461,8.741,8.7739,9.0395,9.2774,9.268,9.1353,9.0532,9.1602,9.0382,8.9727,9.1528,9.2464,9.3015,9.3088,9.441,9.5144,9.4373,9.5731,9.6355,9.5474,9.6171,9.6392,9.5565,9.5418,9.4758,9.3308,9.3051,9.2611,9.184,9.1803,9.1803,9.1803,9.1803,9.1803,9.1803,9.1803,9.1803,9.1803,9.1803,9.1803,9.1803,9.1803,9.1803,9.1803,9.1803,9.1803,9.1803,9.1803,9.1803,9.1803,9.1803,9.1803,9.1803,9.1803,9.1803,9.1803,9.1803,9.1803,9.1803,9.1803,9.1803,9.1803,9.1803,9.1803,9.1803,9.1803,9.2391,9.2978,9.2978,9.3051,9.3088,9.3015,9.2978,9.2758,9.195,9.184,9.1877,9.1803,9.1877,9.217,9.2978,9.441,9.5418,9.5492,9.6832,9.7806,9.7806,9.8521,9.8998,9.8998,9.8998,9.9328,10.0099,10.0099,10.0503,10.1404,10.1404,10.098,10.0283,10.098,10.0209,9.7916,9.9438,9.9769,9.9035,9.9805,10.0613,7.5067,7.7246,8.0039,8.3261,8.651,8.9018,8.9414,9.0095,9.0396,8.945,9.0205,9.1201,9.1693,9.1455,9.1326,9.1748,9.195,9.2317,9.3015,9.3932,9.4483,9.4299,9.5731,9.6135,9.4703,9.5878,9.6392,9.5565,9.4923,9.441,9.4042,9.2794,9.1987,9.1803,9.1803,9.1803,9.1803,9.1803,9.1803,9.1803,9.1803,9.1803,9.1803,9.1803,9.1803,9.1803,9.1803,9.1803,9.1803,9.1803,9.1803,9.1803,9.1803,9.1803,9.1803,9.1803,9.1803,9.1803,9.1803,9.1803,9.1803,9.1803,9.1803,9.1803,9.1803,9.1803,9.1803,9.1803,9.1803,9.1803,9.1803,9.195,9.206,9.206,9.2611,9.2905,9.2244,9.206,9.2024,9.184,9.2354,9.2611,9.1913,9.2354,9.2868,9.3088,9.3932,9.4777,9.5418,9.6355,9.6942,9.6942,9.7676,9.8154,9.8154,9.8154,9.8484,9.9328,9.8778,9.9035,10.0503,10.0576,10.0503,10.0283,10.0503,9.9659,9.7916,9.8888,9.8924,9.819,9.8998,9.9805,7.7111,7.9032,8.1056,8.5566,8.762,8.8592,8.8782,8.8995,8.8949,8.8335,8.998,9.1607,9.1785,9.1803,9.1803,9.1803,9.2134,9.2427,9.2464,9.3859,9.4593,9.3822,9.5144,9.5658,9.441,9.5401,9.5804,9.4997,9.452,9.4116,9.3749,9.2501,9.1803,9.1803,9.1803,9.1803,9.1803,9.1803,9.1803,9.1803,9.1803,9.1803,9.1803,9.1803,9.1803,9.1803,9.1803,9.1803,9.1803,9.1803,9.1803,9.1803,9.1803,9.1803,9.1803,9.1803,9.1803,9.1803,9.1803,9.1803,9.1803,9.1803,9.1803,9.1803,9.1803,9.1803,9.1803,9.1803,9.1803,9.1803,9.1803,9.1803,9.1803,9.1803,9.2134,9.2354,9.1913,9.1803,9.1803,9.1803,9.217,9.2317,9.1877,9.2831,9.3822,9.4189,9.4923,9.5584,9.6025,9.6428,9.6685,9.6685,9.7089,9.7309,9.7309,9.7309,9.7676,9.8484,9.8117,9.8594,10.0209,9.9916,9.9916,10.0283,10.0283,9.9512,9.7916,9.9108,9.9071,9.7897,9.8741,9.9328,7.8546,8.0663,8.2257,8.7573,8.8101,8.7301,8.7354,8.7795,8.8201,8.8201,8.9965,9.1565,9.1785,9.1803,9.1803,9.1803,9.2537,9.2794,9.1913,9.3822,9.4703,9.3088,9.4299,9.4997,9.4153,9.4813,9.5034,9.4336,9.4153,9.3786,9.3125,9.2281,9.1803,9.1803,9.1803,9.1803,9.1803,9.1803,9.1803,9.1803,9.1803,9.1803,9.1803,9.1803,9.1803,9.1803,9.1803,9.1803,9.1803,9.1803,9.1803,9.1803,9.1803,9.1803,9.1803,9.1803,9.1803,9.1803,9.1803,9.1803,9.1803,9.1803,9.1803,9.1803,9.1803,9.1803,9.1803,9.1803,9.1803,9.1803,9.1803,9.1803,9.1803,9.1803,9.1803,9.1803,9.1803,9.1803,9.1803,9.1803,9.1803,9.1877,9.217,9.3272,9.4373,9.518,9.5988,9.6502,9.6502,9.6502,9.6539,9.6685,9.6575,9.6539,9.6685,9.6685,9.6979,9.764,9.7676,9.8337,9.9805,9.9108,9.9181,10.0283,10.0209,9.9292,9.7676,9.9181,9.9108,9.7713,9.8521,9.8888,7.3232,7.7386,8.2162,8.5949,8.6457,8.6132,8.6488,8.7433,8.8201,8.8201,8.9306,9.0578,9.162,9.1803,9.1803,9.1803,9.2537,9.2794,9.1913,9.3345,9.3822,9.217,9.3455,9.4153,9.3345,9.3969,9.441,9.4299,9.3639,9.3198,9.3125,9.2281,9.1803,9.1803,9.1803,9.1803,9.1803,9.1803,9.1803,9.1803,9.1803,9.1803,9.1803,9.1803,9.1803,9.1803,9.1803,9.1803,9.1803,9.1803,9.1803,9.1803,9.1803,9.1803,9.1803,9.1803,9.1803,9.1803,9.1803,9.1803,9.1803,9.1803,9.1803,9.1803,9.1803,9.1803,9.1803,9.1803,9.1803,9.1803,9.1803,9.1803,9.1803,9.1803,9.1803,9.1803,9.1803,9.1803,9.1803,9.1803,9.1803,9.2244,9.3712,9.3565,9.3529,9.4336,9.5144,9.5639,9.5639,9.5639,9.5951,9.6649,9.6098,9.5932,9.6649,9.6685,9.6759,9.6832,9.6869,9.7273,9.8154,9.7456,9.8043,10.0283,9.9622,9.8484,9.6869,9.7787,9.775,9.6869,9.7676,9.8043,7.3375,7.7877,8.2373,8.5149,8.5455,8.5249,8.5679,8.7048,8.8095,8.7657,8.9415,9.1173,9.1694,9.1803,9.1803,9.1803,9.2537,9.2794,9.1913,9.3235,9.3675,9.1987,9.2868,9.3308,9.2464,9.3125,9.3418,9.2941,9.3015,9.2905,9.2391,9.2024,9.1803,9.1803,9.1803,9.1803,9.1803,9.1803,9.1803,9.1803,9.1803,9.1803,9.1803,9.1803,9.1803,9.1803,9.1803,9.1803,9.1803,9.1803,9.1803,9.1803,9.1803,9.1803,9.1803,9.1803,9.1803,9.1803,9.1803,9.1803,9.1803,9.1803,9.1803,9.1803,9.1803,9.1803,9.1803,9.1803,9.1803,9.1803,9.1803,9.1803,9.1803,9.1803,9.1803,9.1803,9.1803,9.1803,9.1803,9.1803,9.1803,9.217,9.3418,9.3345,9.3382,9.4189,9.4997,9.5492,9.5492,9.5914,9.6318,9.6649,9.6392,9.6318,9.6685,9.6685,9.6685,9.6685,9.6685,9.7052,9.7879,9.7566,9.786,9.8924,9.8594,9.83,9.8043,9.7933,9.7493,9.6722,9.753,9.764,7.3274,7.6871,7.9913,8.2521,8.332,8.3616,8.418,8.6032,8.7457,8.69,8.9116,9.1179,9.1179,9.151,9.1803,9.1803,9.2537,9.2794,9.1913,9.3051,9.3455,9.195,9.2354,9.2501,9.184,9.2391,9.2501,9.184,9.2391,9.2501,9.184,9.1803,9.1803,9.1803,9.1803,9.1803,9.1803,9.1583,9.151,9.1473,9.1289,9.1179,9.1179,9.1179,9.1289,9.151,9.1693,9.1803,9.1803,9.1803,9.1803,9.1803,9.1803,9.1803,9.1803,9.1803,9.1803,9.1803,9.1803,9.1803,9.1803,9.1803,9.1803,9.1803,9.1803,9.1803,9.1803,9.1803,9.1803,9.1803,9.1803,9.1803,9.1803,9.1803,9.1803,9.1803,9.1803,9.1803,9.1803,9.1803,9.1803,9.206,9.2941,9.3088,9.3308,9.3896,9.485,9.5418,9.5217,9.5914,9.6392,9.6392,9.6392,9.6392,9.6392,9.6575,9.6685,9.6685,9.6685,9.6979,9.7566,9.7603,9.7676,9.7916,9.7676,9.7897,9.8484,9.7897,9.7273,9.6722,9.753,9.7456,7.05,7.1695,7.2722,7.6438,7.8905,8.0606,8.1326,8.383,8.6006,8.5971,8.7867,8.951,8.951,9.0776,9.1803,9.1803,9.2537,9.2794,9.1913,9.2574,9.2831,9.1913,9.184,9.184,9.1803,9.184,9.184,9.1803,9.184,9.184,9.1803,9.1803,9.1803,9.1803,9.1803,9.1803,9.1803,9.1033,9.0665,9.0665,8.9877,8.951,8.951,8.951,8.995,9.0702,9.1473,9.1803,9.1803,9.1803,9.1803,9.1803,9.1803,9.1803,9.1803,9.1803,9.1803,9.1803,9.1803,9.1803,9.1803,9.1803,9.1803,9.1803,9.1803,9.1803,9.1803,9.1803,9.1803,9.1803,9.1803,9.1803,9.1803,9.1803,9.1803,9.1803,9.1803,9.1803,9.1803,9.1803,9.1803,9.206,9.2941,9.3088,9.3125,9.3161,9.452,9.5198,9.4446,9.5052,9.5566,9.5584,9.5565,9.5565,9.5565,9.6282,9.6685,9.6685,9.6685,9.6722,9.6759,9.6759,9.7126,9.7897,9.7163,9.6795,9.6832,9.6795,9.6722,9.6722,9.753,9.7456,6.9688,7.0601,7.1481,7.5202,7.7096,7.828,7.8991,8.1736,8.4187,8.4434,8.654,8.8541,8.9256,9.028,9.1033,9.1033,9.173,9.217,9.184,9.206,9.2134,9.184,9.1803,9.1803,9.1803,9.1803,9.1803,9.1803,9.1803,9.1803,9.1803,9.1803,9.1803,9.1803,9.1803,9.1803,9.1803,9.0996,9.0592,9.0592,9.0317,9.017,9.017,9.0702,9.1106,9.14,9.1657,9.1803,9.1803,9.1803,9.1803,9.1803,9.1803,9.1803,9.1803,9.1803,9.1803,9.1803,9.1803,9.1803,9.1803,9.1803,9.1803,9.1803,9.1803,9.1803,9.1803,9.1803,9.1803,9.1803,9.1803,9.1803,9.1803,9.1803,9.1803,9.1803,9.1803,9.1803,9.1803,9.1803,9.1803,9.1913,9.2207,9.2281,9.2281,9.2281,9.3235,9.3859,9.3565,9.4666,9.5511,9.5492,9.5951,9.6282,9.6282,9.7016,9.7236,9.6722,9.7163,9.7236,9.6722,9.6685,9.6832,9.7126,9.6832,9.6942,9.7456,9.6942,9.6685,9.6722,9.753,9.7456,6.8085,6.8876,6.9891,7.3375,7.483,7.5777,7.7266,7.9891,8.222,8.3097,8.5217,8.7324,8.8726,8.9657,9.028,9.0537,9.1289,9.1803,9.1803,9.1803,9.1803,9.1803,9.1803,9.1803,9.1803,9.1803,9.1803,9.1803,9.1803,9.1803,9.1803,9.1803,9.1803,9.1803,9.1803,9.1657,9.14,9.0592,9.006,8.9784,8.9528,8.9528,8.9821,9.0335,9.0886,9.14,9.14,9.1546,9.1803,9.1803,9.1803,9.1803,9.1803,9.1803,9.1803,9.1803,9.1803,9.1803,9.1803,9.1803,9.1803,9.1803,9.1803,9.1803,9.1803,9.1803,9.1803,9.1803,9.1803,9.1803,9.1803,9.1803,9.1803,9.1803,9.1803,9.1803,9.1803,9.1803,9.1803,9.1803,9.1803,9.1803,9.1803,9.1803,9.1803,9.1803,9.2537,9.3088,9.3088,9.4501,9.5382,9.5144,9.6061,9.6575,9.6318,9.7273,9.7676,9.7126,9.786,9.7933,9.7126,9.7089,9.6979,9.6722,9.6685,9.6942,9.7493,9.6942,9.6685,9.6722,9.753,9.7603,0.0,0.0,0.0,7.0478,7.1785,7.3105,7.6082,7.8175,8.0064,8.1994,8.3904,8.5782,8.7738,8.8795,8.962,9.0445,9.1253,9.1803,9.1803,9.1803,9.1803,9.1803,9.1803,9.1803,9.1803,9.1803,9.1803,9.1803,9.1803,9.1803,9.1803,9.1803,9.1803,9.1803,9.1767,9.14,9.0629,8.9767,8.8959,8.8243,8.7435,8.7472,8.828,8.828,8.9124,9.0629,9.0629,9.1069,9.1803,9.1803,9.1803,9.1803,9.1803,9.1803,9.1803,9.1803,9.1803,9.1803,9.1803,9.1803,9.1803,9.1803,9.1803,9.1803,9.1803,9.1803,9.1803,9.1803,9.1803,9.1803,9.1803,9.1803,9.1803,9.1803,9.1803,9.1803,9.1803,9.1803,9.1803,9.1803,9.1803,9.1803,9.1803,9.1803,9.1803,9.1803,9.2537,9.3088,9.3088,9.4464,9.518,9.441,9.5768,9.6392,9.5602,9.6979,9.7897,9.7879,9.8631,9.8741,9.7953,9.7897,9.7566,9.6759,9.6722,9.6722,9.6685,9.6685,9.6685,9.6722,9.7493,9.786,6.5649,0.0,0.0,0.0,0.0,0.0,7.3105,7.4455,7.6063,7.9055,8.1161,8.3204,8.5654,8.7413,8.8793,8.9583,9.0922,9.1803,9.1803,9.1803,9.1803,9.1803,9.1803,9.1803,9.1803,9.1803,9.1803,9.1803,9.1803,9.1803,9.1803,9.1803,9.1803,9.1803,9.1253,9.0849,9.0592,8.9234,8.872,8.9069,8.8243,8.861,8.9931,8.9931,9.0519,9.1473,9.1473,9.1583,9.1803,9.1803,9.1803,9.1803,9.1803,9.1803,9.1803,9.1803,9.1803,9.1803,9.1803,9.1803,9.1803,9.1803,9.1803,9.1803,9.1803,9.1803,9.1803,9.1803,9.1803,9.1803,9.1803,9.1803,9.1803,9.1803,9.1803,9.1803,9.1803,9.1803,9.1803,9.1803,9.1803,9.1803,9.1803,9.1803,9.1803,9.1803,9.2024,9.2391,9.3015,9.4006,9.4777,9.5144,9.6098,9.6612,9.6392,9.7309,9.764,9.7052,9.8337,9.8741,9.7953,9.8447,9.8374,9.7566,9.7566,9.7273,9.6685,9.6685,9.6685,9.6722,9.6942,9.7016,0.0,0.0,6.7726,6.9553,0.0,0.0,7.3285,7.4341,7.562,7.9191,8.1038,8.2737,8.508,8.67,8.8096,8.9216,9.0464,9.1436,9.173,9.1803,9.1803,9.1803,9.1803,9.1803,9.1803,9.1803,9.1803,9.1803,9.1803,9.1803,9.1803,9.1803,9.1803,9.1803,9.1363,9.0776,9.0097,8.916,8.8776,8.8886,8.8426,8.905,9.0592,9.0592,9.1033,9.1803,9.1803,9.1803,9.1803,9.1803,9.1803,9.1803,9.1803,9.1803,9.1803,9.1803,9.1803,9.1803,9.1803,9.1803,9.1803,9.1803,9.1803,9.1803,9.1803,9.1803,9.1803,9.1803,9.1803,9.1803,9.1803,9.1803,9.1803,9.1803,9.1803,9.1803,9.1803,9.1803,9.1803,9.1803,9.1803,9.1803,9.1803,9.1803,9.1803,9.1803,9.2097,9.2537,9.3015,9.4116,9.4997,9.5455,9.6208,9.6685,9.6685,9.7419,9.7823,9.7713,9.8594,9.9035,9.8888,9.8704,9.8557,9.8411,9.808,9.7676,9.7199,9.6869,9.6685,9.6685,9.6685,9.6685,0.0,0.0,0.0,0.0,0.0,0.0,7.48,7.5591,7.6572,8.0139,8.1492,8.2605,8.4497,8.5547,8.6642,8.8142,8.9312,9.0447,9.1638,9.1803,9.1803,9.1803,9.1803,9.1767,9.1693,9.1657,9.1657,9.1657,9.173,9.1803,9.1803,9.1803,9.1803,9.1803,9.1693,9.0959,8.94,8.9326,8.8886,8.8206,8.8096,8.8977,9.0592,9.0519,9.0959,9.1803,9.1803,9.1803,9.1803,9.1803,9.1803,9.1803,9.1803,9.1803,9.1803,9.1803,9.1803,9.1803,9.1803,9.1803,9.1803,9.1803,9.1803,9.1803,9.1803,9.1803,9.1803,9.1803,9.1803,9.1803,9.1803,9.1803,9.1803,9.1803,9.1803,9.1803,9.1803,9.1803,9.1803,9.1803,9.1803,9.1803,9.1803,9.1803,9.1803,9.1803,9.2537,9.3125,9.3235,9.4538,9.5528,9.5602,9.6282,9.6685,9.6685,9.7346,9.808,9.8814,9.8924,9.9292,9.9989,9.8814,9.8447,9.9108,9.8411,9.8007,9.8007,9.7236,9.6795,9.6685,9.6685,9.6685,0.0,0.0,0.0,0.0,0.0,0.0,7.1828,7.1804,7.2061,7.4599,7.5975,7.718,7.8756,7.9908,8.0948,8.1968,8.4607,8.772,9.1309,9.1803,9.1803,9.1803,9.1803,9.1546,9.0922,9.0849,9.0849,9.0849,9.1436,9.1803,9.1803,9.1803,9.1803,9.1803,9.1179,9.0354,8.94,8.8757,8.8353,8.8206,8.7545,8.8409,9.0592,8.9913,9.0445,9.1803,9.1803,9.1803,9.1803,9.1803,9.1803,9.1803,9.1803,9.1803,9.1803,9.1803,9.1803,9.1803,9.1803,9.1803,9.1803,9.1803,9.1803,9.1803,9.1803,9.1803,9.1803,9.1803,9.1803,9.1803,9.1803,9.1803,9.1803,9.1803,9.1803,9.1803,9.1803,9.1803,9.1803,9.1803,9.1803,9.1803,9.1803,9.1803,9.1803,9.1803,9.2537,9.3345,9.3969,9.4923,9.5749,9.6392,9.6612,9.6685,9.6685,9.6832,9.7016,9.7163,9.7787,9.819,9.8337,9.9292,9.9585,9.9108,9.8961,9.8888,9.8851,9.8043,9.7309,9.6685,9.6685,9.6685,0.0,0.0,0.0,7.0567,0.0,0.0,0.0,7.2065,7.2223,7.4604,7.4988,7.5289,7.6772,7.756,7.8473,8.0086,8.2903,8.5638,8.7703,9.0209,9.1803,9.1803,9.1436,9.1216,9.1216,9.0464,9.017,9.0592,9.1363,9.1803,9.1803,9.1803,9.1803,9.1803,9.1033,9.0207,8.94,8.861,8.8206,8.8206,8.8189,8.9033,9.0592,9.0592,9.1033,9.1803,9.1803,9.1803,9.1803,9.1803,9.1803,9.1803,9.1803,9.1803,9.1803,9.1803,9.1803,9.1803,9.1803,9.1803,9.1803,9.1803,9.1803,9.1803,9.1803,9.1803,9.1803,9.1803,9.1803,9.1803,9.1803,9.1803,9.1803,9.1803,9.1803,9.1803,9.1803,9.1803,9.1803,9.1803,9.1803,9.1803,9.1803,9.1803,9.1803,9.1803,9.2537,9.3382,9.4189,9.4997,9.5951,9.7163,9.6942,9.6869,9.7273,9.6942,9.6869,9.7273,9.7309,9.764,9.8484,9.8888,9.9292,9.9695,10.0099,10.0099,9.9695,9.9292,9.8668,9.7897,9.7897,9.7897,0.0,0.0,0.0,0.0,0.0,7.1851,0.0,0.0,0.0,7.5249,7.4694,7.4257,7.5429,7.5715,7.6368,7.8248,8.0934,8.2766,8.2727,8.682,9.0063,9.0593,9.0225,9.0152,9.0812,8.9564,8.9106,9.0078,9.0739,9.1253,9.1546,9.173,9.1803,9.1803,9.1033,9.0207,8.94,8.861,8.8133,8.7986,8.8776,8.951,9.0188,9.1143,9.1583,9.1583,9.173,9.1803,9.1803,9.1803,9.1803,9.1803,9.1803,9.1803,9.1803,9.1803,9.1803,9.1803,9.1803,9.1803,9.1803,9.1803,9.1803,9.1803,9.1803,9.1803,9.1803,9.1803,9.1803,9.1803,9.1803,9.1803,9.1803,9.1803,9.1803,9.1803,9.1803,9.1803,9.1803,9.1803,9.1803,9.1803,9.1803,9.1803,9.1803,9.1803,9.2684,9.3565,9.4226,9.5144,9.6245,9.753,9.7089,9.6942,9.7603,9.7052,9.6979,9.764,9.7052,9.7273,9.8594,9.83,9.8888,10.0503,10.122,10.122,10.0503,10.0503,9.9989,9.9108,9.9108,9.9108,0.0,0.0,0.0,0.0,7.1785,0.0,0.0,0.0,7.1557,7.186,0.0,7.1734,7.1871,0.0,0.0,7.2301,7.5133,7.7265,7.7299,8.0429,8.3672,8.6161,8.7031,8.7418,8.7528,8.6738,8.6848,8.8353,8.8573,8.9234,9.0665,9.14,9.1803,9.1803,9.1033,9.0207,8.94,8.861,8.7839,8.7124,8.7949,8.839,8.8536,9.0041,9.0739,9.0776,9.1473,9.1803,9.1803,9.1803,9.1803,9.1803,9.1803,9.1803,9.1803,9.1803,9.1803,9.1803,9.1803,9.1803,9.1803,9.1803,9.1803,9.1803,9.1803,9.1803,9.1803,9.1803,9.1803,9.1803,9.1803,9.1803,9.1803,9.1803,9.1803,9.1803,9.1803,9.1803,9.1803,9.1803,9.1803,9.1803,9.1803,9.1803,9.1803,9.1803,9.3161,9.4189,9.4299,9.5621,9.6649,9.6832,9.6759,9.6722,9.6832,9.6759,9.6722,9.6832,9.6759,9.6795,9.6979,9.8264,9.9732,10.1274,10.1514,10.1514,10.1404,10.1404,10.0576,9.9108,9.9108,9.9108,0.0,0.0,0.0,0.0,0.0,0.0,0.0,0.0,7.077,0.0,0.0,0.0,0.0,0.0,0.0,0.0,7.3426,7.4893,7.4392,7.7278,8.0424,8.3051,8.3756,8.4258,8.4835,8.5894,8.6591,8.6775,8.7252,8.8023,8.916,8.9968,9.0629,9.1106,9.0317,8.973,8.94,8.861,8.7802,8.7014,8.7839,8.8426,8.8923,9.0078,9.0849,9.1326,9.1657,9.1803,9.1803,9.1803,9.1803,9.1803,9.1803,9.1803,9.1803,9.1803,9.1803,9.1803,9.1803,9.1803,9.1803,9.1803,9.1803,9.1803,9.1803,9.1803,9.1803,9.1803,9.1803,9.1803,9.1803,9.1803,9.1803,9.1803,9.1803,9.1803,9.1803,9.1803,9.1803,9.1803,9.1803,9.1803,9.1803,9.1803,9.1803,9.1803,9.2391,9.3198,9.4153,9.4887,9.5841,9.7236,9.6979,9.6685,9.6685,9.6685,9.6502,9.6025,9.6428,9.7346,9.8741,9.8521,9.9365,10.1514,10.098,10.098,10.1514,10.098,10.0686,10.0503,10.0503,10.0503,7.19,0.0,0.0,0.0,0.0,0.0,0.0,0.0,0.0,0.0,0.0,0.0,0.0,0.0,0.0,0.0,0.0,7.3135,7.2527,7.4807,7.7453,8.0035,8.1127,8.1951,8.2671,8.4132,8.5049,8.5123,8.549,8.6334,8.7802,8.8849,8.9767,9.0592,9.0024,8.973,8.973,8.8923,8.8133,8.7362,8.839,8.894,8.9106,9.0372,9.1143,9.1473,9.1693,9.1803,9.1803,9.1803,9.1803,9.1803,9.1803,9.195,9.2134,9.1877,9.1803,9.1803,9.1803,9.1803,9.1803,9.1803,9.1803,9.1803,9.1803,9.1803,9.1803,9.1803,9.1803,9.1803,9.1803,9.1987,9.217,9.217,9.217,9.217,9.217,9.195,9.1803,9.1803,9.1803,9.1803,9.1803,9.1987,9.206,9.184,9.217,9.2831,9.3822,9.4373,9.529,9.7052,9.6906,9.6612,9.6392,9.6575,9.6465,9.5878,9.6392,9.7566,9.9548,9.8521,9.8924,10.109,10.0613,10.0686,10.1514,10.0907,10.0907,10.1514,10.1294,10.1294,0.0,0.0,0.0,7.1907,0.0,0.0,0.0,0.0,7.1921,0.0,0.0,0.0,0.0,0.0,0.0,0.0,0.0,0.0,0.0,7.2416,7.3997,7.6822,7.943,8.1053,8.1069,8.0424,8.0975,8.3308,8.2774,8.3728,8.6867,8.8556,8.9767,9.0592,9.0592,9.0537,9.0537,8.9767,8.8959,8.8169,8.9784,8.9711,8.8316,9.0665,9.1363,9.0702,9.1473,9.1803,9.1803,9.1803,9.1803,9.1803,9.1803,9.2317,9.2978,9.2097,9.1803,9.1803,9.1803,9.1803,9.1803,9.1803,9.1803,9.1803,9.1803,9.1803,9.1803,9.1803,9.1803,9.1803,9.1803,9.2427,9.3051,9.3051,9.3051,9.3051,9.3051,9.2391,9.1803,9.1803,9.1803,9.1803,9.1803,9.2501,9.2758,9.1913,9.3161,9.3969,9.3235,9.452,9.5492,9.5565,9.6245,9.6392,9.5602,9.6245,9.6685,9.6649,9.6685,9.7089,9.7933,9.7953,9.8668,10.0283,10.0283,10.0686,10.1514,10.1514,10.1514,10.1514,10.0686,10.0816,0.0,0.0,7.8012,7.4703,0.0,0.0,0.0,0.0,0.0,0.0,0.0,0.0,0.0,0.0,0.0,0.0,0.0,0.0,0.0,7.1419,7.3587,7.5024,7.7557,7.9218,7.9386,7.9669,8.0367,8.1709,8.1562,8.237,8.4482,8.6647,8.8189,8.8977,9.0041,9.0592,9.0592,9.0317,8.9767,8.8996,8.9546,8.9803,8.9821,9.0629,9.1143,9.14,9.1693,9.1803,9.1803,9.1803,9.1803,9.1803,9.1803,9.1987,9.2207,9.1913,9.2501,9.3455,9.3455,9.2721,9.1913,9.2464,9.2281,9.1803,9.1803,9.1803,9.1803,9.1803,9.1803,9.1803,9.1803,9.2024,9.2244,9.2244,9.2244,9.2244,9.2244,9.2024,9.1803,9.1803,9.1803,9.1803,9.1803,9.2537,9.2794,9.1913,9.2281,9.2758,9.3051,9.3602,9.4116,9.4666,9.5437,9.5584,9.4777,9.5437,9.6355,9.7419,9.6979,9.753,9.9402,9.8447,9.8668,10.0283,10.0283,10.0393,10.0686,10.0686,10.098,10.1514,10.0706,10.0393,7.8426,7.9553,0.0,7.7324,7.7455,0.0,7.3572,0.0,0.0,0.0,0.0,0.0,0.0,0.0,0.0,0.0,0.0,0.0,0.0,7.1597,7.369,7.4724,7.6656,7.7943,7.8123,7.8626,7.925,8.0094,8.0424,8.1269,8.2884,8.527,8.7068,8.8169,8.9784,9.0739,9.1033,9.1033,9.0629,8.984,9.0097,9.0391,9.0629,9.0922,9.1326,9.1803,9.1803,9.1803,9.1803,9.1803,9.1803,9.1803,9.1803,9.217,9.2611,9.2024,9.2464,9.3455,9.3749,9.2941,9.1877,9.2464,9.2244,9.1803,9.1803,9.1803,9.1803,9.1803,9.1803,9.1803,9.1803,9.2024,9.2244,9.2244,9.2244,9.2244,9.2244,9.2024,9.1803,9.1803,9.1803,9.1803,9.1803,9.2281,9.2464,9.1877,9.206,9.2464,9.3015,9.3088,9.3418,9.4189,9.5034,9.5401,9.518,9.5364,9.6061,9.7383,9.6979,9.753,9.9365,9.8447,9.8521,9.9842,10.0209,10.0283,10.0283,10.0613,10.0796,10.111,10.0503,9.9989]}]]